<?xml version="1.0" encoding="UTF-8" standalone="no" ?>
<gpx xmlns="http://www.topografix.com/GPX/1/1" xmlns:xsi="http://www.w3.org/2001/XMLSchema-instance" xsi:schemaLocation="http://www.topografix.com/GPX/1/1 http://www.topografix.com/GPX/1/1/gpx.xsd" version="1.1" creator="VisuGPX - https://www.visugpx.com">
  <metadata>
    <name>St hil</name>
    <desc><![CDATA[
]]></desc>
  </metadata>
  <trk>
    <name><![CDATA[St hil_1]]></name>
    <extensions>
      <line xmlns="http://www.topografix.com/GPX/gpx_style/0/2">
        <color>0000FF</color>
        <width>4</width>
      </line>
    </extensions>
    <trkseg>
      <trkpt lat="45.31414" lon="5.88569">
        <ele>960.44702148438</ele>
        <time>2017-12-15T08:06:12Z</time>
      </trkpt>
      <trkpt lat="45.31421" lon="5.88575">
        <ele>973.44799804688</ele>
        <time>2017-12-15T08:06:14Z</time>
      </trkpt>
      <trkpt lat="45.31407" lon="5.88577">
        <ele>975.44702148438</ele>
        <time>2017-12-15T08:06:18Z</time>
      </trkpt>
      <trkpt lat="45.3141" lon="5.88582">
        <ele>985.44702148438</ele>
        <time>2017-12-15T08:06:23Z</time>
      </trkpt>
      <trkpt lat="45.31403" lon="5.88577">
        <ele>981.44702148438</ele>
        <time>2017-12-15T08:06:25Z</time>
      </trkpt>
      <trkpt lat="45.31398" lon="5.88575">
        <ele>979.44702148438</ele>
        <time>2017-12-15T08:06:27Z</time>
      </trkpt>
      <trkpt lat="45.31398" lon="5.88582">
        <ele>974.44702148438</ele>
        <time>2017-12-15T08:06:29Z</time>
      </trkpt>
      <trkpt lat="45.31394" lon="5.8858">
        <ele>971.44702148438</ele>
        <time>2017-12-15T08:06:34Z</time>
      </trkpt>
      <trkpt lat="45.31395" lon="5.88573">
        <ele>967.44702148438</ele>
        <time>2017-12-15T08:07:05Z</time>
      </trkpt>
      <trkpt lat="45.31392" lon="5.88566">
        <ele>967.44702148438</ele>
        <time>2017-12-15T08:07:11Z</time>
      </trkpt>
      <trkpt lat="45.31391" lon="5.88559">
        <ele>967.44702148438</ele>
        <time>2017-12-15T08:07:15Z</time>
      </trkpt>
      <trkpt lat="45.31388" lon="5.88554">
        <ele>966.44702148438</ele>
        <time>2017-12-15T08:07:20Z</time>
      </trkpt>
      <trkpt lat="45.31385" lon="5.88549">
        <ele>967.44702148438</ele>
        <time>2017-12-15T08:07:24Z</time>
      </trkpt>
      <trkpt lat="45.31382" lon="5.88542">
        <ele>967.44702148438</ele>
        <time>2017-12-15T08:07:30Z</time>
      </trkpt>
      <trkpt lat="45.31381" lon="5.88535">
        <ele>969.44702148438</ele>
        <time>2017-12-15T08:07:34Z</time>
      </trkpt>
      <trkpt lat="45.31379" lon="5.88528">
        <ele>971.44702148438</ele>
        <time>2017-12-15T08:07:39Z</time>
      </trkpt>
      <trkpt lat="45.31378" lon="5.88521">
        <ele>971.44702148438</ele>
        <time>2017-12-15T08:07:44Z</time>
      </trkpt>
      <trkpt lat="45.31376" lon="5.88514">
        <ele>971.44702148438</ele>
        <time>2017-12-15T08:07:48Z</time>
      </trkpt>
      <trkpt lat="45.31376" lon="5.88507">
        <ele>972.44702148438</ele>
        <time>2017-12-15T08:07:52Z</time>
      </trkpt>
      <trkpt lat="45.31376" lon="5.885">
        <ele>973.44702148438</ele>
        <time>2017-12-15T08:07:56Z</time>
      </trkpt>
      <trkpt lat="45.31375" lon="5.88493">
        <ele>974.44702148438</ele>
        <time>2017-12-15T08:08:00Z</time>
      </trkpt>
      <trkpt lat="45.31376" lon="5.88486">
        <ele>973.44702148438</ele>
        <time>2017-12-15T08:08:04Z</time>
      </trkpt>
      <trkpt lat="45.31375" lon="5.88479">
        <ele>974.44702148438</ele>
        <time>2017-12-15T08:08:09Z</time>
      </trkpt>
      <trkpt lat="45.31376" lon="5.88472">
        <ele>975.44702148438</ele>
        <time>2017-12-15T08:08:14Z</time>
      </trkpt>
      <trkpt lat="45.31378" lon="5.88465">
        <ele>974.44702148438</ele>
        <time>2017-12-15T08:08:18Z</time>
      </trkpt>
      <trkpt lat="45.31378" lon="5.88459">
        <ele>976.44702148438</ele>
        <time>2017-12-15T08:08:24Z</time>
      </trkpt>
      <trkpt lat="45.31379" lon="5.88452">
        <ele>976.44702148438</ele>
        <time>2017-12-15T08:08:29Z</time>
      </trkpt>
      <trkpt lat="45.31381" lon="5.88445">
        <ele>976.44702148438</ele>
        <time>2017-12-15T08:08:34Z</time>
      </trkpt>
      <trkpt lat="45.3138" lon="5.88437">
        <ele>978.44702148438</ele>
        <time>2017-12-15T08:08:40Z</time>
      </trkpt>
      <trkpt lat="45.3138" lon="5.88431">
        <ele>982.44702148438</ele>
        <time>2017-12-15T08:08:46Z</time>
      </trkpt>
      <trkpt lat="45.31382" lon="5.88424">
        <ele>984.44702148438</ele>
        <time>2017-12-15T08:08:53Z</time>
      </trkpt>
      <trkpt lat="45.31383" lon="5.88417">
        <ele>988.44702148438</ele>
        <time>2017-12-15T08:08:59Z</time>
      </trkpt>
      <trkpt lat="45.31385" lon="5.8841">
        <ele>988.44702148438</ele>
        <time>2017-12-15T08:09:04Z</time>
      </trkpt>
      <trkpt lat="45.31386" lon="5.88403">
        <ele>991.44702148438</ele>
        <time>2017-12-15T08:09:12Z</time>
      </trkpt>
      <trkpt lat="45.3139" lon="5.88396">
        <ele>990.44702148438</ele>
        <time>2017-12-15T08:09:18Z</time>
      </trkpt>
      <trkpt lat="45.31391" lon="5.8839">
        <ele>992.44702148438</ele>
        <time>2017-12-15T08:09:24Z</time>
      </trkpt>
      <trkpt lat="45.31393" lon="5.88382">
        <ele>995.44702148438</ele>
        <time>2017-12-15T08:09:31Z</time>
      </trkpt>
      <trkpt lat="45.31394" lon="5.88375">
        <ele>994.44702148438</ele>
        <time>2017-12-15T08:09:37Z</time>
      </trkpt>
      <trkpt lat="45.31394" lon="5.88369">
        <ele>997.44702148438</ele>
        <time>2017-12-15T08:09:44Z</time>
      </trkpt>
      <trkpt lat="45.31396" lon="5.88362">
        <ele>997.44702148438</ele>
        <time>2017-12-15T08:09:50Z</time>
      </trkpt>
      <trkpt lat="45.31398" lon="5.88355">
        <ele>999.44702148438</ele>
        <time>2017-12-15T08:09:56Z</time>
      </trkpt>
      <trkpt lat="45.314" lon="5.88349">
        <ele>1000.4470214844</ele>
        <time>2017-12-15T08:10:02Z</time>
      </trkpt>
      <trkpt lat="45.31401" lon="5.88342">
        <ele>1004.4470214844</ele>
        <time>2017-12-15T08:10:12Z</time>
      </trkpt>
      <trkpt lat="45.31402" lon="5.88335">
        <ele>1007.4470214844</ele>
        <time>2017-12-15T08:10:21Z</time>
      </trkpt>
      <trkpt lat="45.31404" lon="5.88329">
        <ele>1008.4470214844</ele>
        <time>2017-12-15T08:10:28Z</time>
      </trkpt>
      <trkpt lat="45.31407" lon="5.88322">
        <ele>1011.4470214844</ele>
        <time>2017-12-15T08:10:40Z</time>
      </trkpt>
      <trkpt lat="45.3141" lon="5.88317">
        <ele>1010.4470214844</ele>
        <time>2017-12-15T08:10:49Z</time>
      </trkpt>
      <trkpt lat="45.3141" lon="5.8831">
        <ele>1013.4470214844</ele>
        <time>2017-12-15T08:10:58Z</time>
      </trkpt>
      <trkpt lat="45.3141" lon="5.88303">
        <ele>1017.4470214844</ele>
        <time>2017-12-15T08:11:11Z</time>
      </trkpt>
      <trkpt lat="45.31413" lon="5.88297">
        <ele>1017.4470214844</ele>
        <time>2017-12-15T08:11:21Z</time>
      </trkpt>
      <trkpt lat="45.31413" lon="5.8829">
        <ele>1016.4470214844</ele>
        <time>2017-12-15T08:11:29Z</time>
      </trkpt>
      <trkpt lat="45.31412" lon="5.88283">
        <ele>1020.4470214844</ele>
        <time>2017-12-15T08:11:43Z</time>
      </trkpt>
      <trkpt lat="45.31413" lon="5.88276">
        <ele>1022.4470214844</ele>
        <time>2017-12-15T08:11:53Z</time>
      </trkpt>
      <trkpt lat="45.31415" lon="5.88269">
        <ele>1027.4470214844</ele>
        <time>2017-12-15T08:12:09Z</time>
      </trkpt>
      <trkpt lat="45.31415" lon="5.88262">
        <ele>1029.4470214844</ele>
        <time>2017-12-15T08:12:21Z</time>
      </trkpt>
      <trkpt lat="45.31416" lon="5.88255">
        <ele>1030.4470214844</ele>
        <time>2017-12-15T08:12:32Z</time>
      </trkpt>
      <trkpt lat="45.31417" lon="5.88249">
        <ele>1031.4470214844</ele>
        <time>2017-12-15T08:12:42Z</time>
      </trkpt>
      <trkpt lat="45.31416" lon="5.88242">
        <ele>1033.4470214844</ele>
        <time>2017-12-15T08:12:52Z</time>
      </trkpt>
      <trkpt lat="45.31417" lon="5.88236">
        <ele>1034.4470214844</ele>
        <time>2017-12-15T08:13:00Z</time>
      </trkpt>
      <trkpt lat="45.31416" lon="5.8823">
        <ele>1036.4470214844</ele>
        <time>2017-12-15T08:13:10Z</time>
      </trkpt>
      <trkpt lat="45.31417" lon="5.88223">
        <ele>1038.4470214844</ele>
        <time>2017-12-15T08:13:21Z</time>
      </trkpt>
      <trkpt lat="45.31419" lon="5.88216">
        <ele>1039.4470214844</ele>
        <time>2017-12-15T08:13:31Z</time>
      </trkpt>
      <trkpt lat="45.31418" lon="5.8821">
        <ele>1044.4470214844</ele>
        <time>2017-12-15T08:13:46Z</time>
      </trkpt>
      <trkpt lat="45.31418" lon="5.88203">
        <ele>1046.4470214844</ele>
        <time>2017-12-15T08:13:56Z</time>
      </trkpt>
      <trkpt lat="45.31418" lon="5.88196">
        <ele>1046.4470214844</ele>
        <time>2017-12-15T08:14:04Z</time>
      </trkpt>
      <trkpt lat="45.31417" lon="5.88189">
        <ele>1047.4470214844</ele>
        <time>2017-12-15T08:14:10Z</time>
      </trkpt>
      <trkpt lat="45.31418" lon="5.88182">
        <ele>1047.4470214844</ele>
        <time>2017-12-15T08:14:17Z</time>
      </trkpt>
      <trkpt lat="45.31417" lon="5.88176">
        <ele>1045.4470214844</ele>
        <time>2017-12-15T08:14:23Z</time>
      </trkpt>
      <trkpt lat="45.31414" lon="5.88171">
        <ele>1048.4470214844</ele>
        <time>2017-12-15T08:14:30Z</time>
      </trkpt>
      <trkpt lat="45.31413" lon="5.88164">
        <ele>1051.4470214844</ele>
        <time>2017-12-15T08:14:43Z</time>
      </trkpt>
      <trkpt lat="45.31414" lon="5.88158">
        <ele>1052.4470214844</ele>
        <time>2017-12-15T08:14:57Z</time>
      </trkpt>
      <trkpt lat="45.31415" lon="5.88151">
        <ele>1054.4470214844</ele>
        <time>2017-12-15T08:15:06Z</time>
      </trkpt>
      <trkpt lat="45.31417" lon="5.88144">
        <ele>1055.4470214844</ele>
        <time>2017-12-15T08:15:14Z</time>
      </trkpt>
      <trkpt lat="45.31419" lon="5.88139">
        <ele>1057.4470214844</ele>
        <time>2017-12-15T08:15:20Z</time>
      </trkpt>
      <trkpt lat="45.31416" lon="5.88134">
        <ele>1062.4470214844</ele>
        <time>2017-12-15T08:15:30Z</time>
      </trkpt>
      <trkpt lat="45.31414" lon="5.88128">
        <ele>1061.4470214844</ele>
        <time>2017-12-15T08:15:41Z</time>
      </trkpt>
      <trkpt lat="45.31412" lon="5.88122">
        <ele>1066.4470214844</ele>
        <time>2017-12-15T08:15:54Z</time>
      </trkpt>
      <trkpt lat="45.31411" lon="5.88115">
        <ele>1065.4470214844</ele>
        <time>2017-12-15T08:16:00Z</time>
      </trkpt>
      <trkpt lat="45.31407" lon="5.88111">
        <ele>1067.4470214844</ele>
        <time>2017-12-15T08:16:06Z</time>
      </trkpt>
      <trkpt lat="45.31402" lon="5.8811">
        <ele>1070.4470214844</ele>
        <time>2017-12-15T08:17:35Z</time>
      </trkpt>
      <trkpt lat="45.31401" lon="5.88103">
        <ele>1067.4470214844</ele>
        <time>2017-12-15T08:18:15Z</time>
      </trkpt>
      <trkpt lat="45.31399" lon="5.88096">
        <ele>1069.4470214844</ele>
        <time>2017-12-15T08:18:20Z</time>
      </trkpt>
      <trkpt lat="45.314" lon="5.8809">
        <ele>1070.4470214844</ele>
        <time>2017-12-15T08:18:30Z</time>
      </trkpt>
      <trkpt lat="45.31397" lon="5.88085">
        <ele>1071.4470214844</ele>
        <time>2017-12-15T08:18:36Z</time>
      </trkpt>
      <trkpt lat="45.31393" lon="5.88081">
        <ele>1073.4470214844</ele>
        <time>2017-12-15T08:18:42Z</time>
      </trkpt>
      <trkpt lat="45.31397" lon="5.88076">
        <ele>1077.4470214844</ele>
        <time>2017-12-15T08:18:50Z</time>
      </trkpt>
      <trkpt lat="45.31396" lon="5.88069">
        <ele>1078.4470214844</ele>
        <time>2017-12-15T08:19:10Z</time>
      </trkpt>
      <trkpt lat="45.31393" lon="5.88064">
        <ele>1087.4470214844</ele>
        <time>2017-12-15T08:19:25Z</time>
      </trkpt>
      <trkpt lat="45.3139" lon="5.88059">
        <ele>1093.4470214844</ele>
        <time>2017-12-15T08:19:31Z</time>
      </trkpt>
      <trkpt lat="45.31386" lon="5.88053">
        <ele>1093.4470214844</ele>
        <time>2017-12-15T08:19:39Z</time>
      </trkpt>
      <trkpt lat="45.31382" lon="5.88049">
        <ele>1095.4470214844</ele>
        <time>2017-12-15T08:19:47Z</time>
      </trkpt>
      <trkpt lat="45.31381" lon="5.88043">
        <ele>1096.4470214844</ele>
        <time>2017-12-15T08:19:53Z</time>
      </trkpt>
      <trkpt lat="45.31379" lon="5.88036">
        <ele>1096.4470214844</ele>
        <time>2017-12-15T08:19:58Z</time>
      </trkpt>
      <trkpt lat="45.31376" lon="5.88029">
        <ele>1097.4470214844</ele>
        <time>2017-12-15T08:20:07Z</time>
      </trkpt>
      <trkpt lat="45.31375" lon="5.88023">
        <ele>1100.4470214844</ele>
        <time>2017-12-15T08:20:12Z</time>
      </trkpt>
      <trkpt lat="45.31375" lon="5.88016">
        <ele>1103.4470214844</ele>
        <time>2017-12-15T08:20:18Z</time>
      </trkpt>
      <trkpt lat="45.31371" lon="5.88011">
        <ele>1109.4470214844</ele>
        <time>2017-12-15T08:20:25Z</time>
      </trkpt>
      <trkpt lat="45.31369" lon="5.88004">
        <ele>1109.4470214844</ele>
        <time>2017-12-15T08:20:31Z</time>
      </trkpt>
      <trkpt lat="45.31367" lon="5.87998">
        <ele>1113.4470214844</ele>
        <time>2017-12-15T08:20:37Z</time>
      </trkpt>
      <trkpt lat="45.31364" lon="5.87993">
        <ele>1114.4470214844</ele>
        <time>2017-12-15T08:20:41Z</time>
      </trkpt>
      <trkpt lat="45.31362" lon="5.87986">
        <ele>1113.4470214844</ele>
        <time>2017-12-15T08:20:46Z</time>
      </trkpt>
      <trkpt lat="45.31365" lon="5.8798">
        <ele>1113.4470214844</ele>
        <time>2017-12-15T08:20:52Z</time>
      </trkpt>
      <trkpt lat="45.31362" lon="5.87974">
        <ele>1111.4470214844</ele>
        <time>2017-12-15T08:20:56Z</time>
      </trkpt>
      <trkpt lat="45.3136" lon="5.87967">
        <ele>1120.4470214844</ele>
        <time>2017-12-15T08:21:10Z</time>
      </trkpt>
      <trkpt lat="45.31358" lon="5.8796">
        <ele>1124.4470214844</ele>
        <time>2017-12-15T08:21:18Z</time>
      </trkpt>
      <trkpt lat="45.31355" lon="5.87955">
        <ele>1123.4470214844</ele>
        <time>2017-12-15T08:21:24Z</time>
      </trkpt>
      <trkpt lat="45.31356" lon="5.87949">
        <ele>1124.4470214844</ele>
        <time>2017-12-15T08:21:30Z</time>
      </trkpt>
      <trkpt lat="45.31358" lon="5.87943">
        <ele>1126.4470214844</ele>
        <time>2017-12-15T08:21:39Z</time>
      </trkpt>
      <trkpt lat="45.31358" lon="5.87937">
        <ele>1130.4470214844</ele>
        <time>2017-12-15T08:21:48Z</time>
      </trkpt>
      <trkpt lat="45.31362" lon="5.87932">
        <ele>1131.4470214844</ele>
        <time>2017-12-15T08:21:54Z</time>
      </trkpt>
      <trkpt lat="45.31363" lon="5.87926">
        <ele>1132.4470214844</ele>
        <time>2017-12-15T08:22:00Z</time>
      </trkpt>
      <trkpt lat="45.31366" lon="5.8792">
        <ele>1132.4470214844</ele>
        <time>2017-12-15T08:22:08Z</time>
      </trkpt>
      <trkpt lat="45.3137" lon="5.87916">
        <ele>1133.4470214844</ele>
        <time>2017-12-15T08:22:14Z</time>
      </trkpt>
      <trkpt lat="45.31371" lon="5.87909">
        <ele>1132.4470214844</ele>
        <time>2017-12-15T08:22:22Z</time>
      </trkpt>
      <trkpt lat="45.31371" lon="5.87902">
        <ele>1137.4460449219</ele>
        <time>2017-12-15T08:22:28Z</time>
      </trkpt>
      <trkpt lat="45.31372" lon="5.87895">
        <ele>1139.4460449219</ele>
        <time>2017-12-15T08:22:34Z</time>
      </trkpt>
      <trkpt lat="45.3137" lon="5.87889">
        <ele>1139.4460449219</ele>
        <time>2017-12-15T08:22:46Z</time>
      </trkpt>
      <trkpt lat="45.31369" lon="5.87882">
        <ele>1138.4460449219</ele>
        <time>2017-12-15T08:22:52Z</time>
      </trkpt>
      <trkpt lat="45.3137" lon="5.87875">
        <ele>1142.4460449219</ele>
        <time>2017-12-15T08:23:00Z</time>
      </trkpt>
      <trkpt lat="45.3137" lon="5.87869">
        <ele>1149.4460449219</ele>
        <time>2017-12-15T08:23:09Z</time>
      </trkpt>
      <trkpt lat="45.3137" lon="5.87862">
        <ele>1147.4460449219</ele>
        <time>2017-12-15T08:23:16Z</time>
      </trkpt>
      <trkpt lat="45.31369" lon="5.87856">
        <ele>1149.4460449219</ele>
        <time>2017-12-15T08:23:22Z</time>
      </trkpt>
      <trkpt lat="45.31368" lon="5.87849">
        <ele>1149.4460449219</ele>
        <time>2017-12-15T08:23:29Z</time>
      </trkpt>
      <trkpt lat="45.31366" lon="5.87841">
        <ele>1152.4460449219</ele>
        <time>2017-12-15T08:23:35Z</time>
      </trkpt>
      <trkpt lat="45.31365" lon="5.87835">
        <ele>1155.4460449219</ele>
        <time>2017-12-15T08:23:40Z</time>
      </trkpt>
      <trkpt lat="45.31362" lon="5.87829">
        <ele>1160.4460449219</ele>
        <time>2017-12-15T08:23:49Z</time>
      </trkpt>
      <trkpt lat="45.31361" lon="5.87823">
        <ele>1159.4460449219</ele>
        <time>2017-12-15T08:23:59Z</time>
      </trkpt>
      <trkpt lat="45.31361" lon="5.87816">
        <ele>1160.4460449219</ele>
        <time>2017-12-15T08:24:06Z</time>
      </trkpt>
      <trkpt lat="45.3136" lon="5.87809">
        <ele>1161.4460449219</ele>
        <time>2017-12-15T08:24:13Z</time>
      </trkpt>
      <trkpt lat="45.31359" lon="5.87801">
        <ele>1165.4460449219</ele>
        <time>2017-12-15T08:24:23Z</time>
      </trkpt>
      <trkpt lat="45.31358" lon="5.87794">
        <ele>1166.4460449219</ele>
        <time>2017-12-15T08:24:29Z</time>
      </trkpt>
      <trkpt lat="45.31361" lon="5.87787">
        <ele>1168.4460449219</ele>
        <time>2017-12-15T08:24:37Z</time>
      </trkpt>
      <trkpt lat="45.3136" lon="5.8778">
        <ele>1167.4460449219</ele>
        <time>2017-12-15T08:24:43Z</time>
      </trkpt>
      <trkpt lat="45.31359" lon="5.87773">
        <ele>1169.4460449219</ele>
        <time>2017-12-15T08:24:50Z</time>
      </trkpt>
      <trkpt lat="45.3136" lon="5.87765">
        <ele>1172.4460449219</ele>
        <time>2017-12-15T08:24:58Z</time>
      </trkpt>
      <trkpt lat="45.31362" lon="5.87759">
        <ele>1173.4460449219</ele>
        <time>2017-12-15T08:25:05Z</time>
      </trkpt>
      <trkpt lat="45.31363" lon="5.87752">
        <ele>1173.4460449219</ele>
        <time>2017-12-15T08:25:12Z</time>
      </trkpt>
      <trkpt lat="45.31361" lon="5.87744">
        <ele>1175.4460449219</ele>
        <time>2017-12-15T08:25:21Z</time>
      </trkpt>
      <trkpt lat="45.3136" lon="5.87738">
        <ele>1180.4460449219</ele>
        <time>2017-12-15T08:25:29Z</time>
      </trkpt>
      <trkpt lat="45.3136" lon="5.87731">
        <ele>1182.4460449219</ele>
        <time>2017-12-15T08:25:40Z</time>
      </trkpt>
      <trkpt lat="45.3136" lon="5.87724">
        <ele>1183.4460449219</ele>
        <time>2017-12-15T08:25:47Z</time>
      </trkpt>
      <trkpt lat="45.3136" lon="5.87715">
        <ele>1184.4460449219</ele>
        <time>2017-12-15T08:25:54Z</time>
      </trkpt>
      <trkpt lat="45.31358" lon="5.87708">
        <ele>1185.4460449219</ele>
        <time>2017-12-15T08:26:05Z</time>
      </trkpt>
      <trkpt lat="45.3136" lon="5.87702">
        <ele>1188.4460449219</ele>
        <time>2017-12-15T08:26:16Z</time>
      </trkpt>
      <trkpt lat="45.31361" lon="5.87696">
        <ele>1191.4460449219</ele>
        <time>2017-12-15T08:26:26Z</time>
      </trkpt>
      <trkpt lat="45.31359" lon="5.87689">
        <ele>1192.4460449219</ele>
        <time>2017-12-15T08:26:40Z</time>
      </trkpt>
      <trkpt lat="45.31359" lon="5.87683">
        <ele>1194.4460449219</ele>
        <time>2017-12-15T08:26:45Z</time>
      </trkpt>
      <trkpt lat="45.31358" lon="5.87675">
        <ele>1196.4460449219</ele>
        <time>2017-12-15T08:26:54Z</time>
      </trkpt>
      <trkpt lat="45.31358" lon="5.87668">
        <ele>1199.4460449219</ele>
        <time>2017-12-15T08:27:00Z</time>
      </trkpt>
      <trkpt lat="45.31357" lon="5.87661">
        <ele>1200.4460449219</ele>
        <time>2017-12-15T08:27:06Z</time>
      </trkpt>
      <trkpt lat="45.31358" lon="5.87654">
        <ele>1200.4460449219</ele>
        <time>2017-12-15T08:27:19Z</time>
      </trkpt>
      <trkpt lat="45.31357" lon="5.87647">
        <ele>1203.4460449219</ele>
        <time>2017-12-15T08:27:29Z</time>
      </trkpt>
      <trkpt lat="45.31359" lon="5.8764">
        <ele>1206.4460449219</ele>
        <time>2017-12-15T08:27:42Z</time>
      </trkpt>
      <trkpt lat="45.31356" lon="5.87635">
        <ele>1211.4460449219</ele>
        <time>2017-12-15T08:27:51Z</time>
      </trkpt>
      <trkpt lat="45.31355" lon="5.87629">
        <ele>1213.4460449219</ele>
        <time>2017-12-15T08:28:00Z</time>
      </trkpt>
      <trkpt lat="45.31356" lon="5.87622">
        <ele>1216.4460449219</ele>
        <time>2017-12-15T08:28:11Z</time>
      </trkpt>
      <trkpt lat="45.31352" lon="5.87616">
        <ele>1215.4460449219</ele>
        <time>2017-12-15T08:28:19Z</time>
      </trkpt>
      <trkpt lat="45.31356" lon="5.87611">
        <ele>1219.4460449219</ele>
        <time>2017-12-15T08:28:24Z</time>
      </trkpt>
      <trkpt lat="45.31358" lon="5.87606">
        <ele>1224.4460449219</ele>
        <time>2017-12-15T08:28:33Z</time>
      </trkpt>
      <trkpt lat="45.31356" lon="5.876">
        <ele>1223.4460449219</ele>
        <time>2017-12-15T08:28:42Z</time>
      </trkpt>
      <trkpt lat="45.31354" lon="5.87594">
        <ele>1225.4460449219</ele>
        <time>2017-12-15T08:28:49Z</time>
      </trkpt>
      <trkpt lat="45.31352" lon="5.87587">
        <ele>1224.4460449219</ele>
        <time>2017-12-15T08:28:59Z</time>
      </trkpt>
      <trkpt lat="45.3135" lon="5.8758">
        <ele>1226.4460449219</ele>
        <time>2017-12-15T08:29:06Z</time>
      </trkpt>
      <trkpt lat="45.31349" lon="5.87574">
        <ele>1228.4460449219</ele>
        <time>2017-12-15T08:29:11Z</time>
      </trkpt>
      <trkpt lat="45.31348" lon="5.87566">
        <ele>1226.4460449219</ele>
        <time>2017-12-15T08:29:18Z</time>
      </trkpt>
      <trkpt lat="45.31345" lon="5.87558">
        <ele>1226.4460449219</ele>
        <time>2017-12-15T08:29:27Z</time>
      </trkpt>
      <trkpt lat="45.31346" lon="5.87551">
        <ele>1228.4460449219</ele>
        <time>2017-12-15T08:29:37Z</time>
      </trkpt>
      <trkpt lat="45.31347" lon="5.87545">
        <ele>1230.4460449219</ele>
        <time>2017-12-15T08:29:42Z</time>
      </trkpt>
      <trkpt lat="45.31347" lon="5.87538">
        <ele>1232.4460449219</ele>
        <time>2017-12-15T08:29:49Z</time>
      </trkpt>
      <trkpt lat="45.31342" lon="5.87535">
        <ele>1242.4460449219</ele>
        <time>2017-12-15T08:30:02Z</time>
      </trkpt>
      <trkpt lat="45.31343" lon="5.87528">
        <ele>1245.4460449219</ele>
        <time>2017-12-15T08:30:16Z</time>
      </trkpt>
      <trkpt lat="45.31341" lon="5.87521">
        <ele>1245.4460449219</ele>
        <time>2017-12-15T08:30:24Z</time>
      </trkpt>
      <trkpt lat="45.3134" lon="5.87514">
        <ele>1250.4460449219</ele>
        <time>2017-12-15T08:30:36Z</time>
      </trkpt>
      <trkpt lat="45.31341" lon="5.87507">
        <ele>1256.4460449219</ele>
        <time>2017-12-15T08:30:53Z</time>
      </trkpt>
      <trkpt lat="45.31339" lon="5.87501">
        <ele>1259.4460449219</ele>
        <time>2017-12-15T08:31:01Z</time>
      </trkpt>
      <trkpt lat="45.31337" lon="5.87495">
        <ele>1261.4460449219</ele>
        <time>2017-12-15T08:31:09Z</time>
      </trkpt>
      <trkpt lat="45.31333" lon="5.87488">
        <ele>1263.4460449219</ele>
        <time>2017-12-15T08:31:15Z</time>
      </trkpt>
      <trkpt lat="45.31333" lon="5.87481">
        <ele>1261.4460449219</ele>
        <time>2017-12-15T08:31:24Z</time>
      </trkpt>
      <trkpt lat="45.3133" lon="5.87474">
        <ele>1263.4460449219</ele>
        <time>2017-12-15T08:31:35Z</time>
      </trkpt>
      <trkpt lat="45.31329" lon="5.87466">
        <ele>1267.4460449219</ele>
        <time>2017-12-15T08:31:49Z</time>
      </trkpt>
      <trkpt lat="45.3133" lon="5.87459">
        <ele>1268.4460449219</ele>
        <time>2017-12-15T08:31:58Z</time>
      </trkpt>
      <trkpt lat="45.31327" lon="5.87453">
        <ele>1272.4460449219</ele>
        <time>2017-12-15T08:32:06Z</time>
      </trkpt>
      <trkpt lat="45.31326" lon="5.87446">
        <ele>1275.4460449219</ele>
        <time>2017-12-15T08:32:14Z</time>
      </trkpt>
      <trkpt lat="45.31324" lon="5.87439">
        <ele>1277.4460449219</ele>
        <time>2017-12-15T08:32:22Z</time>
      </trkpt>
      <trkpt lat="45.31323" lon="5.87432">
        <ele>1277.4460449219</ele>
        <time>2017-12-15T08:32:28Z</time>
      </trkpt>
      <trkpt lat="45.31323" lon="5.87425">
        <ele>1278.4460449219</ele>
        <time>2017-12-15T08:32:35Z</time>
      </trkpt>
      <trkpt lat="45.31324" lon="5.87419">
        <ele>1284.4460449219</ele>
        <time>2017-12-15T08:32:47Z</time>
      </trkpt>
      <trkpt lat="45.31325" lon="5.87412">
        <ele>1286.4460449219</ele>
        <time>2017-12-15T08:32:54Z</time>
      </trkpt>
      <trkpt lat="45.31325" lon="5.87405">
        <ele>1293.4460449219</ele>
        <time>2017-12-15T08:33:05Z</time>
      </trkpt>
      <trkpt lat="45.31325" lon="5.87399">
        <ele>1292.4460449219</ele>
        <time>2017-12-15T08:33:10Z</time>
      </trkpt>
      <trkpt lat="45.31325" lon="5.87392">
        <ele>1289.4460449219</ele>
        <time>2017-12-15T08:33:14Z</time>
      </trkpt>
      <trkpt lat="45.31327" lon="5.87384">
        <ele>1289.4460449219</ele>
        <time>2017-12-15T08:33:19Z</time>
      </trkpt>
      <trkpt lat="45.31328" lon="5.87377">
        <ele>1287.4460449219</ele>
        <time>2017-12-15T08:33:22Z</time>
      </trkpt>
      <trkpt lat="45.31328" lon="5.8737">
        <ele>1285.4460449219</ele>
        <time>2017-12-15T08:33:25Z</time>
      </trkpt>
      <trkpt lat="45.31328" lon="5.87363">
        <ele>1285.4460449219</ele>
        <time>2017-12-15T08:33:29Z</time>
      </trkpt>
      <trkpt lat="45.31329" lon="5.87356">
        <ele>1284.4460449219</ele>
        <time>2017-12-15T08:33:33Z</time>
      </trkpt>
      <trkpt lat="45.31331" lon="5.8735">
        <ele>1284.4460449219</ele>
        <time>2017-12-15T08:33:37Z</time>
      </trkpt>
      <trkpt lat="45.31331" lon="5.87343">
        <ele>1285.4460449219</ele>
        <time>2017-12-15T08:33:41Z</time>
      </trkpt>
      <trkpt lat="45.3133" lon="5.87336">
        <ele>1285.4460449219</ele>
        <time>2017-12-15T08:33:45Z</time>
      </trkpt>
      <trkpt lat="45.3133" lon="5.87328">
        <ele>1285.4460449219</ele>
        <time>2017-12-15T08:33:50Z</time>
      </trkpt>
      <trkpt lat="45.31332" lon="5.87322">
        <ele>1282.4460449219</ele>
        <time>2017-12-15T08:33:53Z</time>
      </trkpt>
      <trkpt lat="45.31333" lon="5.87315">
        <ele>1281.4460449219</ele>
        <time>2017-12-15T08:33:57Z</time>
      </trkpt>
      <trkpt lat="45.31332" lon="5.87309">
        <ele>1283.4460449219</ele>
        <time>2017-12-15T08:34:04Z</time>
      </trkpt>
      <trkpt lat="45.31335" lon="5.87303">
        <ele>1287.4460449219</ele>
        <time>2017-12-15T08:34:12Z</time>
      </trkpt>
      <trkpt lat="45.31337" lon="5.87297">
        <ele>1294.4460449219</ele>
        <time>2017-12-15T08:34:20Z</time>
      </trkpt>
      <trkpt lat="45.31339" lon="5.8729">
        <ele>1296.4460449219</ele>
        <time>2017-12-15T08:34:25Z</time>
      </trkpt>
      <trkpt lat="45.3134" lon="5.87283">
        <ele>1298.4460449219</ele>
        <time>2017-12-15T08:34:31Z</time>
      </trkpt>
      <trkpt lat="45.31341" lon="5.87276">
        <ele>1298.4460449219</ele>
        <time>2017-12-15T08:34:36Z</time>
      </trkpt>
      <trkpt lat="45.31342" lon="5.87269">
        <ele>1302.4460449219</ele>
        <time>2017-12-15T08:34:44Z</time>
      </trkpt>
      <trkpt lat="45.31344" lon="5.87262">
        <ele>1303.4460449219</ele>
        <time>2017-12-15T08:34:49Z</time>
      </trkpt>
      <trkpt lat="45.31345" lon="5.87256">
        <ele>1306.4460449219</ele>
        <time>2017-12-15T08:34:56Z</time>
      </trkpt>
      <trkpt lat="45.31347" lon="5.8725">
        <ele>1308.4460449219</ele>
        <time>2017-12-15T08:35:02Z</time>
      </trkpt>
      <trkpt lat="45.3135" lon="5.87245">
        <ele>1312.4460449219</ele>
        <time>2017-12-15T08:35:13Z</time>
      </trkpt>
      <trkpt lat="45.3135" lon="5.87238">
        <ele>1313.4460449219</ele>
        <time>2017-12-15T08:35:19Z</time>
      </trkpt>
      <trkpt lat="45.31351" lon="5.87231">
        <ele>1315.4460449219</ele>
        <time>2017-12-15T08:35:24Z</time>
      </trkpt>
      <trkpt lat="45.31354" lon="5.87226">
        <ele>1317.4460449219</ele>
        <time>2017-12-15T08:35:35Z</time>
      </trkpt>
      <trkpt lat="45.31357" lon="5.87221">
        <ele>1320.4460449219</ele>
        <time>2017-12-15T08:35:43Z</time>
      </trkpt>
      <trkpt lat="45.3136" lon="5.87217">
        <ele>1322.4460449219</ele>
        <time>2017-12-15T08:35:50Z</time>
      </trkpt>
      <trkpt lat="45.31365" lon="5.87218">
        <ele>1323.4460449219</ele>
        <time>2017-12-15T08:36:05Z</time>
      </trkpt>
      <trkpt lat="45.3137" lon="5.87214">
        <ele>1321.4460449219</ele>
        <time>2017-12-15T08:36:08Z</time>
      </trkpt>
      <trkpt lat="45.31372" lon="5.87208">
        <ele>1321.4460449219</ele>
        <time>2017-12-15T08:37:45Z</time>
      </trkpt>
      <trkpt lat="45.31374" lon="5.87201">
        <ele>1323.4460449219</ele>
        <time>2017-12-15T08:37:49Z</time>
      </trkpt>
      <trkpt lat="45.31379" lon="5.87201">
        <ele>1321.4460449219</ele>
        <time>2017-12-15T08:37:52Z</time>
      </trkpt>
      <trkpt lat="45.31384" lon="5.87199">
        <ele>1319.4460449219</ele>
        <time>2017-12-15T08:37:57Z</time>
      </trkpt>
      <trkpt lat="45.31391" lon="5.87201">
        <ele>1321.4460449219</ele>
        <time>2017-12-15T08:37:59Z</time>
      </trkpt>
      <trkpt lat="45.31402" lon="5.87206">
        <ele>1320.4460449219</ele>
        <time>2017-12-15T08:38:01Z</time>
      </trkpt>
      <trkpt lat="45.31402" lon="5.87218">
        <ele>1315.4460449219</ele>
        <time>2017-12-15T08:38:03Z</time>
      </trkpt>
      <trkpt lat="45.31391" lon="5.8725">
        <ele>1307.4460449219</ele>
        <time>2017-12-15T08:38:07Z</time>
      </trkpt>
      <trkpt lat="45.31383" lon="5.87264">
        <ele>1305.4460449219</ele>
        <time>2017-12-15T08:38:09Z</time>
      </trkpt>
      <trkpt lat="45.3138" lon="5.8727">
        <ele>1305.4460449219</ele>
        <time>2017-12-15T08:39:05Z</time>
      </trkpt>
      <trkpt lat="45.31382" lon="5.87284">
        <ele>1304.4460449219</ele>
        <time>2017-12-15T08:39:06Z</time>
      </trkpt>
      <trkpt lat="45.31384" lon="5.87303">
        <ele>1301.4460449219</ele>
        <time>2017-12-15T08:39:08Z</time>
      </trkpt>
      <trkpt lat="45.31388" lon="5.87326">
        <ele>1298.4460449219</ele>
        <time>2017-12-15T08:39:10Z</time>
      </trkpt>
      <trkpt lat="45.31396" lon="5.87349">
        <ele>1293.4460449219</ele>
        <time>2017-12-15T08:39:12Z</time>
      </trkpt>
      <trkpt lat="45.31403" lon="5.87367">
        <ele>1285.4460449219</ele>
        <time>2017-12-15T08:39:14Z</time>
      </trkpt>
      <trkpt lat="45.3141" lon="5.87385">
        <ele>1277.4460449219</ele>
        <time>2017-12-15T08:39:16Z</time>
      </trkpt>
      <trkpt lat="45.31419" lon="5.87407">
        <ele>1266.4460449219</ele>
        <time>2017-12-15T08:39:18Z</time>
      </trkpt>
      <trkpt lat="45.3142" lon="5.87431">
        <ele>1258.4460449219</ele>
        <time>2017-12-15T08:39:20Z</time>
      </trkpt>
      <trkpt lat="45.31424" lon="5.87454">
        <ele>1254.4460449219</ele>
        <time>2017-12-15T08:39:22Z</time>
      </trkpt>
      <trkpt lat="45.31427" lon="5.87475">
        <ele>1253.4460449219</ele>
        <time>2017-12-15T08:39:24Z</time>
      </trkpt>
      <trkpt lat="45.31436" lon="5.8748">
        <ele>1248.4460449219</ele>
        <time>2017-12-15T08:39:25Z</time>
      </trkpt>
      <trkpt lat="45.31447" lon="5.87499">
        <ele>1247.4460449219</ele>
        <time>2017-12-15T08:39:27Z</time>
      </trkpt>
      <trkpt lat="45.31451" lon="5.87508">
        <ele>1243.4460449219</ele>
        <time>2017-12-15T08:39:28Z</time>
      </trkpt>
      <trkpt lat="45.31454" lon="5.87533">
        <ele>1242.4460449219</ele>
        <time>2017-12-15T08:39:30Z</time>
      </trkpt>
      <trkpt lat="45.31459" lon="5.87559">
        <ele>1239.4460449219</ele>
        <time>2017-12-15T08:39:32Z</time>
      </trkpt>
      <trkpt lat="45.31463" lon="5.87578">
        <ele>1231.4460449219</ele>
        <time>2017-12-15T08:39:34Z</time>
      </trkpt>
      <trkpt lat="45.3146" lon="5.87605">
        <ele>1227.4460449219</ele>
        <time>2017-12-15T08:39:36Z</time>
      </trkpt>
      <trkpt lat="45.31468" lon="5.87612">
        <ele>1222.4460449219</ele>
        <time>2017-12-15T08:39:37Z</time>
      </trkpt>
      <trkpt lat="45.31474" lon="5.87637">
        <ele>1213.4460449219</ele>
        <time>2017-12-15T08:39:39Z</time>
      </trkpt>
      <trkpt lat="45.3148" lon="5.87665">
        <ele>1206.4460449219</ele>
        <time>2017-12-15T08:39:41Z</time>
      </trkpt>
      <trkpt lat="45.31487" lon="5.87688">
        <ele>1199.4460449219</ele>
        <time>2017-12-15T08:39:43Z</time>
      </trkpt>
      <trkpt lat="45.31493" lon="5.87699">
        <ele>1198.4460449219</ele>
        <time>2017-12-15T08:39:44Z</time>
      </trkpt>
      <trkpt lat="45.31501" lon="5.87721">
        <ele>1193.4470214844</ele>
        <time>2017-12-15T08:39:46Z</time>
      </trkpt>
      <trkpt lat="45.315" lon="5.87731">
        <ele>1184.4470214844</ele>
        <time>2017-12-15T08:39:47Z</time>
      </trkpt>
      <trkpt lat="45.31503" lon="5.87743">
        <ele>1176.4470214844</ele>
        <time>2017-12-15T08:39:49Z</time>
      </trkpt>
      <trkpt lat="45.31505" lon="5.87756">
        <ele>1170.4470214844</ele>
        <time>2017-12-15T08:39:51Z</time>
      </trkpt>
      <trkpt lat="45.3151" lon="5.87778">
        <ele>1166.4470214844</ele>
        <time>2017-12-15T08:39:53Z</time>
      </trkpt>
      <trkpt lat="45.31505" lon="5.87794">
        <ele>1160.4470214844</ele>
        <time>2017-12-15T08:39:54Z</time>
      </trkpt>
      <trkpt lat="45.31508" lon="5.87806">
        <ele>1154.4470214844</ele>
        <time>2017-12-15T08:39:55Z</time>
      </trkpt>
      <trkpt lat="45.31507" lon="5.87833">
        <ele>1148.4470214844</ele>
        <time>2017-12-15T08:39:57Z</time>
      </trkpt>
      <trkpt lat="45.31502" lon="5.87855">
        <ele>1142.4470214844</ele>
        <time>2017-12-15T08:39:59Z</time>
      </trkpt>
      <trkpt lat="45.31498" lon="5.87875">
        <ele>1137.4470214844</ele>
        <time>2017-12-15T08:40:02Z</time>
      </trkpt>
      <trkpt lat="45.31501" lon="5.87888">
        <ele>1134.4470214844</ele>
        <time>2017-12-15T08:40:04Z</time>
      </trkpt>
      <trkpt lat="45.31505" lon="5.87903">
        <ele>1127.4470214844</ele>
        <time>2017-12-15T08:40:05Z</time>
      </trkpt>
      <trkpt lat="45.31512" lon="5.87929">
        <ele>1121.4470214844</ele>
        <time>2017-12-15T08:40:07Z</time>
      </trkpt>
      <trkpt lat="45.31514" lon="5.87943">
        <ele>1116.4470214844</ele>
        <time>2017-12-15T08:40:08Z</time>
      </trkpt>
      <trkpt lat="45.31524" lon="5.87969">
        <ele>1107.4470214844</ele>
        <time>2017-12-15T08:40:10Z</time>
      </trkpt>
      <trkpt lat="45.31531" lon="5.88014">
        <ele>1096.4470214844</ele>
        <time>2017-12-15T08:40:13Z</time>
      </trkpt>
      <trkpt lat="45.31538" lon="5.88042">
        <ele>1093.4470214844</ele>
        <time>2017-12-15T08:40:15Z</time>
      </trkpt>
      <trkpt lat="45.31537" lon="5.88064">
        <ele>1093.4470214844</ele>
        <time>2017-12-15T08:40:16Z</time>
      </trkpt>
      <trkpt lat="45.31541" lon="5.88082">
        <ele>1092.4470214844</ele>
        <time>2017-12-15T08:40:17Z</time>
      </trkpt>
      <trkpt lat="45.31548" lon="5.88112">
        <ele>1087.4470214844</ele>
        <time>2017-12-15T08:40:19Z</time>
      </trkpt>
      <trkpt lat="45.31554" lon="5.88143">
        <ele>1084.4470214844</ele>
        <time>2017-12-15T08:40:21Z</time>
      </trkpt>
      <trkpt lat="45.31561" lon="5.8817">
        <ele>1076.4470214844</ele>
        <time>2017-12-15T08:40:23Z</time>
      </trkpt>
      <trkpt lat="45.31563" lon="5.88201">
        <ele>1071.4470214844</ele>
        <time>2017-12-15T08:40:25Z</time>
      </trkpt>
      <trkpt lat="45.31571" lon="5.8823">
        <ele>1066.4470214844</ele>
        <time>2017-12-15T08:40:27Z</time>
      </trkpt>
      <trkpt lat="45.31561" lon="5.88252">
        <ele>1057.4470214844</ele>
        <time>2017-12-15T08:40:29Z</time>
      </trkpt>
      <trkpt lat="45.31557" lon="5.8828">
        <ele>1052.4470214844</ele>
        <time>2017-12-15T08:40:31Z</time>
      </trkpt>
      <trkpt lat="45.31554" lon="5.88288">
        <ele>1047.4470214844</ele>
        <time>2017-12-15T08:40:32Z</time>
      </trkpt>
      <trkpt lat="45.31544" lon="5.88311">
        <ele>1043.4470214844</ele>
        <time>2017-12-15T08:40:34Z</time>
      </trkpt>
      <trkpt lat="45.31532" lon="5.88332">
        <ele>1038.4470214844</ele>
        <time>2017-12-15T08:40:36Z</time>
      </trkpt>
      <trkpt lat="45.31522" lon="5.88355">
        <ele>1031.4470214844</ele>
        <time>2017-12-15T08:40:38Z</time>
      </trkpt>
      <trkpt lat="45.31508" lon="5.88376">
        <ele>1027.4470214844</ele>
        <time>2017-12-15T08:40:40Z</time>
      </trkpt>
      <trkpt lat="45.31493" lon="5.88395">
        <ele>1023.4470214844</ele>
        <time>2017-12-15T08:40:42Z</time>
      </trkpt>
      <trkpt lat="45.31482" lon="5.8842">
        <ele>1018.4470214844</ele>
        <time>2017-12-15T08:40:44Z</time>
      </trkpt>
      <trkpt lat="45.31469" lon="5.88437">
        <ele>1010.4470214844</ele>
        <time>2017-12-15T08:40:46Z</time>
      </trkpt>
      <trkpt lat="45.3146" lon="5.88458">
        <ele>1005.4470214844</ele>
        <time>2017-12-15T08:40:48Z</time>
      </trkpt>
      <trkpt lat="45.31449" lon="5.88478">
        <ele>999.44702148438</ele>
        <time>2017-12-15T08:40:50Z</time>
      </trkpt>
      <trkpt lat="45.31441" lon="5.88494">
        <ele>996.44702148438</ele>
        <time>2017-12-15T08:40:52Z</time>
      </trkpt>
      <trkpt lat="45.31428" lon="5.88504">
        <ele>992.44702148438</ele>
        <time>2017-12-15T08:40:54Z</time>
      </trkpt>
      <trkpt lat="45.31417" lon="5.88517">
        <ele>988.44702148438</ele>
        <time>2017-12-15T08:40:56Z</time>
      </trkpt>
      <trkpt lat="45.31408" lon="5.88533">
        <ele>986.44702148438</ele>
        <time>2017-12-15T08:40:58Z</time>
      </trkpt>
      <trkpt lat="45.31401" lon="5.88544">
        <ele>983.44702148438</ele>
        <time>2017-12-15T08:41:00Z</time>
      </trkpt>
      <trkpt lat="45.3139" lon="5.88558">
        <ele>978.44702148438</ele>
        <time>2017-12-15T08:41:03Z</time>
      </trkpt>
      <trkpt lat="45.31379" lon="5.88552">
        <ele>977.44702148438</ele>
        <time>2017-12-15T08:41:06Z</time>
      </trkpt>
      <trkpt lat="45.31377" lon="5.88545">
        <ele>978.44702148438</ele>
        <time>2017-12-15T08:41:09Z</time>
      </trkpt>
      <trkpt lat="45.31373" lon="5.88547">
        <ele>978.44702148438</ele>
        <time>2017-12-15T08:41:23Z</time>
      </trkpt>
      <trkpt lat="45.31375" lon="5.88537">
        <ele>978.44702148438</ele>
        <time>2017-12-15T08:42:29Z</time>
      </trkpt>
      <trkpt lat="45.31375" lon="5.8853">
        <ele>976.44702148438</ele>
        <time>2017-12-15T08:42:33Z</time>
      </trkpt>
      <trkpt lat="45.31375" lon="5.88522">
        <ele>976.44702148438</ele>
        <time>2017-12-15T08:42:37Z</time>
      </trkpt>
      <trkpt lat="45.31375" lon="5.88515">
        <ele>976.44702148438</ele>
        <time>2017-12-15T08:42:40Z</time>
      </trkpt>
      <trkpt lat="45.31374" lon="5.88508">
        <ele>977.44702148438</ele>
        <time>2017-12-15T08:42:43Z</time>
      </trkpt>
      <trkpt lat="45.31375" lon="5.88501">
        <ele>976.44702148438</ele>
        <time>2017-12-15T08:42:47Z</time>
      </trkpt>
      <trkpt lat="45.31376" lon="5.88494">
        <ele>977.44702148438</ele>
        <time>2017-12-15T08:42:50Z</time>
      </trkpt>
      <trkpt lat="45.31375" lon="5.88487">
        <ele>977.44702148438</ele>
        <time>2017-12-15T08:42:54Z</time>
      </trkpt>
      <trkpt lat="45.31376" lon="5.88479">
        <ele>979.44702148438</ele>
        <time>2017-12-15T08:42:58Z</time>
      </trkpt>
      <trkpt lat="45.31376" lon="5.88472">
        <ele>978.44702148438</ele>
        <time>2017-12-15T08:43:01Z</time>
      </trkpt>
      <trkpt lat="45.31377" lon="5.88465">
        <ele>979.44702148438</ele>
        <time>2017-12-15T08:43:06Z</time>
      </trkpt>
      <trkpt lat="45.31377" lon="5.88458">
        <ele>980.44702148438</ele>
        <time>2017-12-15T08:43:09Z</time>
      </trkpt>
      <trkpt lat="45.31377" lon="5.88451">
        <ele>981.44702148438</ele>
        <time>2017-12-15T08:43:15Z</time>
      </trkpt>
      <trkpt lat="45.31377" lon="5.88443">
        <ele>981.44702148438</ele>
        <time>2017-12-15T08:43:19Z</time>
      </trkpt>
      <trkpt lat="45.31376" lon="5.88435">
        <ele>982.44702148438</ele>
        <time>2017-12-15T08:43:24Z</time>
      </trkpt>
      <trkpt lat="45.31378" lon="5.88428">
        <ele>983.44702148438</ele>
        <time>2017-12-15T08:43:28Z</time>
      </trkpt>
      <trkpt lat="45.3138" lon="5.8842">
        <ele>984.44702148438</ele>
        <time>2017-12-15T08:43:34Z</time>
      </trkpt>
      <trkpt lat="45.31381" lon="5.88412">
        <ele>982.44702148438</ele>
        <time>2017-12-15T08:43:36Z</time>
      </trkpt>
      <trkpt lat="45.31381" lon="5.88406">
        <ele>984.44702148438</ele>
        <time>2017-12-15T08:43:40Z</time>
      </trkpt>
      <trkpt lat="45.31383" lon="5.88399">
        <ele>987.44702148438</ele>
        <time>2017-12-15T08:43:45Z</time>
      </trkpt>
      <trkpt lat="45.31389" lon="5.88392">
        <ele>987.44702148438</ele>
        <time>2017-12-15T08:43:58Z</time>
      </trkpt>
      <trkpt lat="45.31393" lon="5.88388">
        <ele>990.44702148438</ele>
        <time>2017-12-15T08:44:02Z</time>
      </trkpt>
      <trkpt lat="45.31393" lon="5.88381">
        <ele>990.44702148438</ele>
        <time>2017-12-15T08:44:06Z</time>
      </trkpt>
      <trkpt lat="45.31395" lon="5.88375">
        <ele>995.44702148438</ele>
        <time>2017-12-15T08:44:12Z</time>
      </trkpt>
      <trkpt lat="45.31395" lon="5.88368">
        <ele>998.44702148438</ele>
        <time>2017-12-15T08:44:16Z</time>
      </trkpt>
      <trkpt lat="45.31398" lon="5.88362">
        <ele>998.44702148438</ele>
        <time>2017-12-15T08:44:21Z</time>
      </trkpt>
      <trkpt lat="45.31399" lon="5.88356">
        <ele>1003.4470214844</ele>
        <time>2017-12-15T08:44:27Z</time>
      </trkpt>
      <trkpt lat="45.31401" lon="5.88348">
        <ele>1004.4470214844</ele>
        <time>2017-12-15T08:44:30Z</time>
      </trkpt>
      <trkpt lat="45.31404" lon="5.88342">
        <ele>1004.4470214844</ele>
        <time>2017-12-15T08:44:36Z</time>
      </trkpt>
      <trkpt lat="45.31404" lon="5.88334">
        <ele>1007.4470214844</ele>
        <time>2017-12-15T08:44:42Z</time>
      </trkpt>
      <trkpt lat="45.31404" lon="5.88327">
        <ele>1009.4470214844</ele>
        <time>2017-12-15T08:44:49Z</time>
      </trkpt>
      <trkpt lat="45.31406" lon="5.88321">
        <ele>1012.4470214844</ele>
        <time>2017-12-15T08:44:56Z</time>
      </trkpt>
      <trkpt lat="45.31405" lon="5.88314">
        <ele>1014.4470214844</ele>
        <time>2017-12-15T08:45:00Z</time>
      </trkpt>
      <trkpt lat="45.31407" lon="5.88307">
        <ele>1014.4470214844</ele>
        <time>2017-12-15T08:45:07Z</time>
      </trkpt>
      <trkpt lat="45.31408" lon="5.88301">
        <ele>1016.4470214844</ele>
        <time>2017-12-15T08:45:13Z</time>
      </trkpt>
      <trkpt lat="45.3141" lon="5.88293">
        <ele>1020.4470214844</ele>
        <time>2017-12-15T08:45:21Z</time>
      </trkpt>
      <trkpt lat="45.31412" lon="5.88286">
        <ele>1020.4470214844</ele>
        <time>2017-12-15T08:45:28Z</time>
      </trkpt>
      <trkpt lat="45.31413" lon="5.8828">
        <ele>1023.4470214844</ele>
        <time>2017-12-15T08:45:39Z</time>
      </trkpt>
      <trkpt lat="45.31414" lon="5.88272">
        <ele>1026.4470214844</ele>
        <time>2017-12-15T08:45:46Z</time>
      </trkpt>
      <trkpt lat="45.31414" lon="5.88266">
        <ele>1030.4470214844</ele>
        <time>2017-12-15T08:45:53Z</time>
      </trkpt>
      <trkpt lat="45.31415" lon="5.88259">
        <ele>1029.4470214844</ele>
        <time>2017-12-15T08:46:00Z</time>
      </trkpt>
      <trkpt lat="45.31417" lon="5.88253">
        <ele>1029.4470214844</ele>
        <time>2017-12-15T08:46:07Z</time>
      </trkpt>
      <trkpt lat="45.31417" lon="5.88246">
        <ele>1030.4470214844</ele>
        <time>2017-12-15T08:46:12Z</time>
      </trkpt>
      <trkpt lat="45.31416" lon="5.88239">
        <ele>1033.4470214844</ele>
        <time>2017-12-15T08:46:20Z</time>
      </trkpt>
      <trkpt lat="45.31417" lon="5.88233">
        <ele>1036.4470214844</ele>
        <time>2017-12-15T08:46:26Z</time>
      </trkpt>
      <trkpt lat="45.31417" lon="5.88226">
        <ele>1038.4470214844</ele>
        <time>2017-12-15T08:46:33Z</time>
      </trkpt>
      <trkpt lat="45.31417" lon="5.88219">
        <ele>1039.4470214844</ele>
        <time>2017-12-15T08:46:39Z</time>
      </trkpt>
      <trkpt lat="45.31417" lon="5.88212">
        <ele>1043.4470214844</ele>
        <time>2017-12-15T08:46:45Z</time>
      </trkpt>
      <trkpt lat="45.31418" lon="5.88206">
        <ele>1044.4470214844</ele>
        <time>2017-12-15T08:46:55Z</time>
      </trkpt>
      <trkpt lat="45.31417" lon="5.88199">
        <ele>1045.4470214844</ele>
        <time>2017-12-15T08:47:04Z</time>
      </trkpt>
      <trkpt lat="45.31417" lon="5.88192">
        <ele>1049.4470214844</ele>
        <time>2017-12-15T08:47:15Z</time>
      </trkpt>
      <trkpt lat="45.31417" lon="5.88186">
        <ele>1049.4470214844</ele>
        <time>2017-12-15T08:47:19Z</time>
      </trkpt>
      <trkpt lat="45.31417" lon="5.88178">
        <ele>1051.4470214844</ele>
        <time>2017-12-15T08:47:27Z</time>
      </trkpt>
      <trkpt lat="45.31417" lon="5.88171">
        <ele>1051.4470214844</ele>
        <time>2017-12-15T08:47:34Z</time>
      </trkpt>
      <trkpt lat="45.31418" lon="5.88165">
        <ele>1058.4470214844</ele>
        <time>2017-12-15T08:47:44Z</time>
      </trkpt>
      <trkpt lat="45.31416" lon="5.88157">
        <ele>1058.4470214844</ele>
        <time>2017-12-15T08:47:52Z</time>
      </trkpt>
      <trkpt lat="45.31415" lon="5.8815">
        <ele>1063.4470214844</ele>
        <time>2017-12-15T08:48:04Z</time>
      </trkpt>
      <trkpt lat="45.31419" lon="5.88145">
        <ele>1066.4470214844</ele>
        <time>2017-12-15T08:48:10Z</time>
      </trkpt>
      <trkpt lat="45.3142" lon="5.88138">
        <ele>1065.4470214844</ele>
        <time>2017-12-15T08:48:17Z</time>
      </trkpt>
      <trkpt lat="45.31417" lon="5.88133">
        <ele>1065.4470214844</ele>
        <time>2017-12-15T08:48:25Z</time>
      </trkpt>
      <trkpt lat="45.31417" lon="5.88125">
        <ele>1066.4470214844</ele>
        <time>2017-12-15T08:48:30Z</time>
      </trkpt>
      <trkpt lat="45.31412" lon="5.88121">
        <ele>1067.4470214844</ele>
        <time>2017-12-15T08:48:37Z</time>
      </trkpt>
      <trkpt lat="45.31409" lon="5.88114">
        <ele>1067.4470214844</ele>
        <time>2017-12-15T08:48:45Z</time>
      </trkpt>
      <trkpt lat="45.31407" lon="5.88108">
        <ele>1072.4470214844</ele>
        <time>2017-12-15T08:48:53Z</time>
      </trkpt>
      <trkpt lat="45.31406" lon="5.88102">
        <ele>1072.4470214844</ele>
        <time>2017-12-15T08:48:59Z</time>
      </trkpt>
      <trkpt lat="45.31408" lon="5.88096">
        <ele>1075.4470214844</ele>
        <time>2017-12-15T08:49:09Z</time>
      </trkpt>
      <trkpt lat="45.31406" lon="5.88089">
        <ele>1073.4470214844</ele>
        <time>2017-12-15T08:49:25Z</time>
      </trkpt>
      <trkpt lat="45.31404" lon="5.88084">
        <ele>1075.4470214844</ele>
        <time>2017-12-15T08:49:30Z</time>
      </trkpt>
      <trkpt lat="45.31399" lon="5.88082">
        <ele>1079.4470214844</ele>
        <time>2017-12-15T08:49:37Z</time>
      </trkpt>
      <trkpt lat="45.31397" lon="5.88075">
        <ele>1079.4470214844</ele>
        <time>2017-12-15T08:49:47Z</time>
      </trkpt>
      <trkpt lat="45.31393" lon="5.8807">
        <ele>1079.4470214844</ele>
        <time>2017-12-15T08:49:52Z</time>
      </trkpt>
      <trkpt lat="45.31392" lon="5.88064">
        <ele>1081.4470214844</ele>
        <time>2017-12-15T08:49:57Z</time>
      </trkpt>
      <trkpt lat="45.31391" lon="5.88057">
        <ele>1081.4470214844</ele>
        <time>2017-12-15T08:50:03Z</time>
      </trkpt>
      <trkpt lat="45.31387" lon="5.88051">
        <ele>1084.4470214844</ele>
        <time>2017-12-15T08:50:09Z</time>
      </trkpt>
      <trkpt lat="45.31384" lon="5.88046">
        <ele>1084.4470214844</ele>
        <time>2017-12-15T08:50:15Z</time>
      </trkpt>
      <trkpt lat="45.3138" lon="5.88043">
        <ele>1088.4470214844</ele>
        <time>2017-12-15T08:50:23Z</time>
      </trkpt>
      <trkpt lat="45.31375" lon="5.8804">
        <ele>1094.4470214844</ele>
        <time>2017-12-15T08:50:30Z</time>
      </trkpt>
      <trkpt lat="45.31374" lon="5.88033">
        <ele>1097.4470214844</ele>
        <time>2017-12-15T08:50:37Z</time>
      </trkpt>
      <trkpt lat="45.3137" lon="5.88028">
        <ele>1104.4470214844</ele>
        <time>2017-12-15T08:50:45Z</time>
      </trkpt>
      <trkpt lat="45.31369" lon="5.88022">
        <ele>1105.4470214844</ele>
        <time>2017-12-15T08:50:52Z</time>
      </trkpt>
      <trkpt lat="45.31368" lon="5.88015">
        <ele>1107.4470214844</ele>
        <time>2017-12-15T08:51:00Z</time>
      </trkpt>
      <trkpt lat="45.31368" lon="5.88006">
        <ele>1107.4470214844</ele>
        <time>2017-12-15T08:51:09Z</time>
      </trkpt>
      <trkpt lat="45.31366" lon="5.87999">
        <ele>1108.4470214844</ele>
        <time>2017-12-15T08:51:14Z</time>
      </trkpt>
      <trkpt lat="45.31364" lon="5.87993">
        <ele>1112.4470214844</ele>
        <time>2017-12-15T08:51:21Z</time>
      </trkpt>
      <trkpt lat="45.31361" lon="5.87987">
        <ele>1114.4470214844</ele>
        <time>2017-12-15T08:51:27Z</time>
      </trkpt>
      <trkpt lat="45.31358" lon="5.8798">
        <ele>1117.4470214844</ele>
        <time>2017-12-15T08:51:34Z</time>
      </trkpt>
      <trkpt lat="45.31356" lon="5.87973">
        <ele>1120.4470214844</ele>
        <time>2017-12-15T08:51:43Z</time>
      </trkpt>
      <trkpt lat="45.31355" lon="5.87966">
        <ele>1120.4470214844</ele>
        <time>2017-12-15T08:51:51Z</time>
      </trkpt>
      <trkpt lat="45.31354" lon="5.8796">
        <ele>1118.4470214844</ele>
        <time>2017-12-15T08:51:57Z</time>
      </trkpt>
      <trkpt lat="45.31353" lon="5.87953">
        <ele>1124.4470214844</ele>
        <time>2017-12-15T08:52:05Z</time>
      </trkpt>
      <trkpt lat="45.31355" lon="5.87947">
        <ele>1123.4470214844</ele>
        <time>2017-12-15T08:52:15Z</time>
      </trkpt>
      <trkpt lat="45.31358" lon="5.87941">
        <ele>1126.4470214844</ele>
        <time>2017-12-15T08:52:19Z</time>
      </trkpt>
      <trkpt lat="45.3136" lon="5.87935">
        <ele>1127.4470214844</ele>
        <time>2017-12-15T08:52:26Z</time>
      </trkpt>
      <trkpt lat="45.31363" lon="5.87928">
        <ele>1130.4470214844</ele>
        <time>2017-12-15T08:52:34Z</time>
      </trkpt>
      <trkpt lat="45.31364" lon="5.87921">
        <ele>1132.4470214844</ele>
        <time>2017-12-15T08:52:41Z</time>
      </trkpt>
      <trkpt lat="45.31368" lon="5.87917">
        <ele>1132.4470214844</ele>
        <time>2017-12-15T08:52:45Z</time>
      </trkpt>
      <trkpt lat="45.31373" lon="5.87915">
        <ele>1131.4470214844</ele>
        <time>2017-12-15T08:52:48Z</time>
      </trkpt>
      <trkpt lat="45.31369" lon="5.87911">
        <ele>1131.4470214844</ele>
        <time>2017-12-15T08:52:52Z</time>
      </trkpt>
      <trkpt lat="45.31373" lon="5.87907">
        <ele>1132.4470214844</ele>
        <time>2017-12-15T08:52:57Z</time>
      </trkpt>
      <trkpt lat="45.31373" lon="5.879">
        <ele>1135.4460449219</ele>
        <time>2017-12-15T08:53:02Z</time>
      </trkpt>
      <trkpt lat="45.31375" lon="5.87893">
        <ele>1137.4460449219</ele>
        <time>2017-12-15T08:53:08Z</time>
      </trkpt>
      <trkpt lat="45.31372" lon="5.87887">
        <ele>1139.4460449219</ele>
        <time>2017-12-15T08:53:14Z</time>
      </trkpt>
      <trkpt lat="45.31369" lon="5.87881">
        <ele>1141.4460449219</ele>
        <time>2017-12-15T08:53:21Z</time>
      </trkpt>
      <trkpt lat="45.31368" lon="5.87874">
        <ele>1146.4460449219</ele>
        <time>2017-12-15T08:53:28Z</time>
      </trkpt>
      <trkpt lat="45.31368" lon="5.87867">
        <ele>1145.4460449219</ele>
        <time>2017-12-15T08:53:33Z</time>
      </trkpt>
      <trkpt lat="45.31369" lon="5.8786">
        <ele>1149.4460449219</ele>
        <time>2017-12-15T08:53:41Z</time>
      </trkpt>
      <trkpt lat="45.31368" lon="5.87853">
        <ele>1152.4460449219</ele>
        <time>2017-12-15T08:53:51Z</time>
      </trkpt>
      <trkpt lat="45.31368" lon="5.87846">
        <ele>1152.4460449219</ele>
        <time>2017-12-15T08:53:56Z</time>
      </trkpt>
      <trkpt lat="45.31365" lon="5.87841">
        <ele>1154.4460449219</ele>
        <time>2017-12-15T08:54:01Z</time>
      </trkpt>
      <trkpt lat="45.31364" lon="5.87833">
        <ele>1154.4460449219</ele>
        <time>2017-12-15T08:54:04Z</time>
      </trkpt>
      <trkpt lat="45.31362" lon="5.87827">
        <ele>1153.4460449219</ele>
        <time>2017-12-15T08:54:11Z</time>
      </trkpt>
      <trkpt lat="45.31359" lon="5.87822">
        <ele>1156.4460449219</ele>
        <time>2017-12-15T08:54:14Z</time>
      </trkpt>
      <trkpt lat="45.31359" lon="5.87815">
        <ele>1159.4460449219</ele>
        <time>2017-12-15T08:54:27Z</time>
      </trkpt>
      <trkpt lat="45.3136" lon="5.87809">
        <ele>1160.4460449219</ele>
        <time>2017-12-15T08:54:35Z</time>
      </trkpt>
      <trkpt lat="45.3136" lon="5.87801">
        <ele>1160.4460449219</ele>
        <time>2017-12-15T08:54:41Z</time>
      </trkpt>
      <trkpt lat="45.3136" lon="5.87794">
        <ele>1160.4460449219</ele>
        <time>2017-12-15T08:54:46Z</time>
      </trkpt>
      <trkpt lat="45.31362" lon="5.87787">
        <ele>1162.4460449219</ele>
        <time>2017-12-15T08:54:53Z</time>
      </trkpt>
      <trkpt lat="45.3136" lon="5.8778">
        <ele>1161.4460449219</ele>
        <time>2017-12-15T08:54:59Z</time>
      </trkpt>
      <trkpt lat="45.3136" lon="5.87773">
        <ele>1165.4460449219</ele>
        <time>2017-12-15T08:55:09Z</time>
      </trkpt>
      <trkpt lat="45.3136" lon="5.87766">
        <ele>1167.4460449219</ele>
        <time>2017-12-15T08:55:15Z</time>
      </trkpt>
      <trkpt lat="45.31359" lon="5.87758">
        <ele>1171.4460449219</ele>
        <time>2017-12-15T08:55:21Z</time>
      </trkpt>
      <trkpt lat="45.31359" lon="5.87751">
        <ele>1172.4460449219</ele>
        <time>2017-12-15T08:55:31Z</time>
      </trkpt>
      <trkpt lat="45.31358" lon="5.87742">
        <ele>1173.4460449219</ele>
        <time>2017-12-15T08:55:36Z</time>
      </trkpt>
      <trkpt lat="45.31357" lon="5.87736">
        <ele>1174.4460449219</ele>
        <time>2017-12-15T08:55:40Z</time>
      </trkpt>
      <trkpt lat="45.3136" lon="5.87731">
        <ele>1182.4460449219</ele>
        <time>2017-12-15T08:55:46Z</time>
      </trkpt>
      <trkpt lat="45.31363" lon="5.87725">
        <ele>1178.4460449219</ele>
        <time>2017-12-15T08:55:52Z</time>
      </trkpt>
      <trkpt lat="45.3136" lon="5.87719">
        <ele>1180.4460449219</ele>
        <time>2017-12-15T08:55:59Z</time>
      </trkpt>
      <trkpt lat="45.31358" lon="5.87713">
        <ele>1181.4460449219</ele>
        <time>2017-12-15T08:56:06Z</time>
      </trkpt>
      <trkpt lat="45.31356" lon="5.87707">
        <ele>1182.4460449219</ele>
        <time>2017-12-15T08:56:16Z</time>
      </trkpt>
      <trkpt lat="45.31356" lon="5.87699">
        <ele>1187.4460449219</ele>
        <time>2017-12-15T08:56:25Z</time>
      </trkpt>
      <trkpt lat="45.31356" lon="5.8769">
        <ele>1189.4460449219</ele>
        <time>2017-12-15T08:56:33Z</time>
      </trkpt>
      <trkpt lat="45.31353" lon="5.87683">
        <ele>1190.4460449219</ele>
        <time>2017-12-15T08:56:39Z</time>
      </trkpt>
      <trkpt lat="45.31353" lon="5.87677">
        <ele>1190.4460449219</ele>
        <time>2017-12-15T08:56:43Z</time>
      </trkpt>
      <trkpt lat="45.31355" lon="5.87669">
        <ele>1192.4460449219</ele>
        <time>2017-12-15T08:56:56Z</time>
      </trkpt>
      <trkpt lat="45.31357" lon="5.87661">
        <ele>1198.4460449219</ele>
        <time>2017-12-15T08:57:03Z</time>
      </trkpt>
      <trkpt lat="45.31357" lon="5.87655">
        <ele>1200.4460449219</ele>
        <time>2017-12-15T08:57:10Z</time>
      </trkpt>
      <trkpt lat="45.31356" lon="5.87648">
        <ele>1201.4460449219</ele>
        <time>2017-12-15T08:57:17Z</time>
      </trkpt>
      <trkpt lat="45.31357" lon="5.87641">
        <ele>1204.4460449219</ele>
        <time>2017-12-15T08:57:25Z</time>
      </trkpt>
      <trkpt lat="45.3136" lon="5.87635">
        <ele>1209.4460449219</ele>
        <time>2017-12-15T08:57:33Z</time>
      </trkpt>
      <trkpt lat="45.3136" lon="5.87628">
        <ele>1215.4460449219</ele>
        <time>2017-12-15T08:57:50Z</time>
      </trkpt>
      <trkpt lat="45.31359" lon="5.87622">
        <ele>1220.4460449219</ele>
        <time>2017-12-15T08:57:59Z</time>
      </trkpt>
      <trkpt lat="45.31357" lon="5.87615">
        <ele>1221.4460449219</ele>
        <time>2017-12-15T08:58:06Z</time>
      </trkpt>
      <trkpt lat="45.31355" lon="5.87607">
        <ele>1228.4460449219</ele>
        <time>2017-12-15T08:58:18Z</time>
      </trkpt>
      <trkpt lat="45.3136" lon="5.87606">
        <ele>1232.4460449219</ele>
        <time>2017-12-15T08:58:21Z</time>
      </trkpt>
      <trkpt lat="45.31358" lon="5.87598">
        <ele>1233.4460449219</ele>
        <time>2017-12-15T08:58:27Z</time>
      </trkpt>
      <trkpt lat="45.31357" lon="5.87592">
        <ele>1231.4460449219</ele>
        <time>2017-12-15T08:58:30Z</time>
      </trkpt>
      <trkpt lat="45.31348" lon="5.87578">
        <ele>1232.4460449219</ele>
        <time>2017-12-15T08:58:43Z</time>
      </trkpt>
      <trkpt lat="45.31348" lon="5.87571">
        <ele>1232.4460449219</ele>
        <time>2017-12-15T08:58:47Z</time>
      </trkpt>
      <trkpt lat="45.31349" lon="5.87564">
        <ele>1233.4460449219</ele>
        <time>2017-12-15T08:58:54Z</time>
      </trkpt>
      <trkpt lat="45.31349" lon="5.87558">
        <ele>1234.4460449219</ele>
        <time>2017-12-15T08:59:00Z</time>
      </trkpt>
      <trkpt lat="45.31346" lon="5.87552">
        <ele>1234.4460449219</ele>
        <time>2017-12-15T08:59:07Z</time>
      </trkpt>
      <trkpt lat="45.31347" lon="5.87546">
        <ele>1239.4460449219</ele>
        <time>2017-12-15T08:59:16Z</time>
      </trkpt>
      <trkpt lat="45.31344" lon="5.87539">
        <ele>1244.4460449219</ele>
        <time>2017-12-15T08:59:36Z</time>
      </trkpt>
      <trkpt lat="45.31343" lon="5.87532">
        <ele>1249.4460449219</ele>
        <time>2017-12-15T08:59:48Z</time>
      </trkpt>
      <trkpt lat="45.3134" lon="5.87526">
        <ele>1249.4460449219</ele>
        <time>2017-12-15T08:59:53Z</time>
      </trkpt>
      <trkpt lat="45.3134" lon="5.87518">
        <ele>1252.4460449219</ele>
        <time>2017-12-15T08:59:58Z</time>
      </trkpt>
      <trkpt lat="45.31339" lon="5.87511">
        <ele>1250.4460449219</ele>
        <time>2017-12-15T09:00:05Z</time>
      </trkpt>
      <trkpt lat="45.31337" lon="5.87503">
        <ele>1253.4460449219</ele>
        <time>2017-12-15T09:00:20Z</time>
      </trkpt>
      <trkpt lat="45.31335" lon="5.87495">
        <ele>1253.4460449219</ele>
        <time>2017-12-15T09:00:27Z</time>
      </trkpt>
      <trkpt lat="45.31333" lon="5.87488">
        <ele>1255.4460449219</ele>
        <time>2017-12-15T09:00:32Z</time>
      </trkpt>
      <trkpt lat="45.31335" lon="5.87481">
        <ele>1259.4460449219</ele>
        <time>2017-12-15T09:00:42Z</time>
      </trkpt>
      <trkpt lat="45.31333" lon="5.87475">
        <ele>1262.4460449219</ele>
        <time>2017-12-15T09:00:56Z</time>
      </trkpt>
      <trkpt lat="45.31333" lon="5.87467">
        <ele>1268.4460449219</ele>
        <time>2017-12-15T09:01:02Z</time>
      </trkpt>
      <trkpt lat="45.31331" lon="5.87461">
        <ele>1269.4460449219</ele>
        <time>2017-12-15T09:01:08Z</time>
      </trkpt>
      <trkpt lat="45.31328" lon="5.87456">
        <ele>1273.4460449219</ele>
        <time>2017-12-15T09:01:18Z</time>
      </trkpt>
      <trkpt lat="45.31326" lon="5.8745">
        <ele>1272.4460449219</ele>
        <time>2017-12-15T09:01:22Z</time>
      </trkpt>
      <trkpt lat="45.31325" lon="5.87442">
        <ele>1271.4460449219</ele>
        <time>2017-12-15T09:01:36Z</time>
      </trkpt>
      <trkpt lat="45.31325" lon="5.87433">
        <ele>1278.4460449219</ele>
        <time>2017-12-15T09:01:42Z</time>
      </trkpt>
      <trkpt lat="45.31321" lon="5.87426">
        <ele>1278.4460449219</ele>
        <time>2017-12-15T09:01:46Z</time>
      </trkpt>
      <trkpt lat="45.31321" lon="5.87418">
        <ele>1279.4460449219</ele>
        <time>2017-12-15T09:01:49Z</time>
      </trkpt>
      <trkpt lat="45.31321" lon="5.87412">
        <ele>1280.4460449219</ele>
        <time>2017-12-15T09:01:58Z</time>
      </trkpt>
      <trkpt lat="45.31322" lon="5.87405">
        <ele>1285.4460449219</ele>
        <time>2017-12-15T09:02:02Z</time>
      </trkpt>
      <trkpt lat="45.31324" lon="5.87399">
        <ele>1284.4460449219</ele>
        <time>2017-12-15T09:02:09Z</time>
      </trkpt>
      <trkpt lat="45.31324" lon="5.87391">
        <ele>1286.4460449219</ele>
        <time>2017-12-15T09:02:14Z</time>
      </trkpt>
      <trkpt lat="45.31321" lon="5.87385">
        <ele>1287.4460449219</ele>
        <time>2017-12-15T09:02:19Z</time>
      </trkpt>
      <trkpt lat="45.31324" lon="5.87378">
        <ele>1290.4460449219</ele>
        <time>2017-12-15T09:02:25Z</time>
      </trkpt>
      <trkpt lat="45.31326" lon="5.87372">
        <ele>1292.4460449219</ele>
        <time>2017-12-15T09:02:29Z</time>
      </trkpt>
      <trkpt lat="45.31329" lon="5.87364">
        <ele>1291.4460449219</ele>
        <time>2017-12-15T09:02:33Z</time>
      </trkpt>
      <trkpt lat="45.31331" lon="5.87357">
        <ele>1290.4460449219</ele>
        <time>2017-12-15T09:02:36Z</time>
      </trkpt>
      <trkpt lat="45.31333" lon="5.8735">
        <ele>1292.4460449219</ele>
        <time>2017-12-15T09:02:40Z</time>
      </trkpt>
      <trkpt lat="45.31333" lon="5.87343">
        <ele>1291.4460449219</ele>
        <time>2017-12-15T09:02:44Z</time>
      </trkpt>
      <trkpt lat="45.31335" lon="5.87336">
        <ele>1293.4460449219</ele>
        <time>2017-12-15T09:02:50Z</time>
      </trkpt>
      <trkpt lat="45.31334" lon="5.87329">
        <ele>1290.4460449219</ele>
        <time>2017-12-15T09:02:54Z</time>
      </trkpt>
      <trkpt lat="45.31335" lon="5.87323">
        <ele>1293.4460449219</ele>
        <time>2017-12-15T09:03:00Z</time>
      </trkpt>
      <trkpt lat="45.31336" lon="5.87316">
        <ele>1295.4460449219</ele>
        <time>2017-12-15T09:03:05Z</time>
      </trkpt>
      <trkpt lat="45.31337" lon="5.87309">
        <ele>1297.4460449219</ele>
        <time>2017-12-15T09:03:10Z</time>
      </trkpt>
      <trkpt lat="45.31339" lon="5.87303">
        <ele>1301.4460449219</ele>
        <time>2017-12-15T09:03:15Z</time>
      </trkpt>
      <trkpt lat="45.3134" lon="5.87296">
        <ele>1303.4460449219</ele>
        <time>2017-12-15T09:03:20Z</time>
      </trkpt>
      <trkpt lat="45.3134" lon="5.87289">
        <ele>1305.4460449219</ele>
        <time>2017-12-15T09:03:24Z</time>
      </trkpt>
      <trkpt lat="45.31342" lon="5.87283">
        <ele>1307.4460449219</ele>
        <time>2017-12-15T09:03:29Z</time>
      </trkpt>
      <trkpt lat="45.31342" lon="5.87276">
        <ele>1308.4460449219</ele>
        <time>2017-12-15T09:03:35Z</time>
      </trkpt>
      <trkpt lat="45.31344" lon="5.87269">
        <ele>1308.4460449219</ele>
        <time>2017-12-15T09:03:40Z</time>
      </trkpt>
      <trkpt lat="45.31346" lon="5.8726">
        <ele>1309.4460449219</ele>
        <time>2017-12-15T09:03:46Z</time>
      </trkpt>
      <trkpt lat="45.31348" lon="5.87254">
        <ele>1312.4460449219</ele>
        <time>2017-12-15T09:03:52Z</time>
      </trkpt>
      <trkpt lat="45.31349" lon="5.87248">
        <ele>1315.4460449219</ele>
        <time>2017-12-15T09:03:59Z</time>
      </trkpt>
      <trkpt lat="45.3135" lon="5.87241">
        <ele>1315.4460449219</ele>
        <time>2017-12-15T09:04:08Z</time>
      </trkpt>
      <trkpt lat="45.31351" lon="5.87234">
        <ele>1314.4460449219</ele>
        <time>2017-12-15T09:04:16Z</time>
      </trkpt>
      <trkpt lat="45.31351" lon="5.87227">
        <ele>1314.4460449219</ele>
        <time>2017-12-15T09:04:22Z</time>
      </trkpt>
      <trkpt lat="45.31354" lon="5.87221">
        <ele>1316.4460449219</ele>
        <time>2017-12-15T09:04:28Z</time>
      </trkpt>
      <trkpt lat="45.31356" lon="5.87214">
        <ele>1315.4460449219</ele>
        <time>2017-12-15T09:04:34Z</time>
      </trkpt>
      <trkpt lat="45.3136" lon="5.87211">
        <ele>1316.4460449219</ele>
        <time>2017-12-15T09:04:44Z</time>
      </trkpt>
      <trkpt lat="45.31362" lon="5.87204">
        <ele>1314.4460449219</ele>
        <time>2017-12-15T09:05:07Z</time>
      </trkpt>
      <trkpt lat="45.31367" lon="5.87201">
        <ele>1317.4460449219</ele>
        <time>2017-12-15T09:06:08Z</time>
      </trkpt>
      <trkpt lat="45.31371" lon="5.87197">
        <ele>1318.4460449219</ele>
        <time>2017-12-15T09:06:44Z</time>
      </trkpt>
      <trkpt lat="45.31376" lon="5.87194">
        <ele>1318.4460449219</ele>
        <time>2017-12-15T09:06:46Z</time>
      </trkpt>
      <trkpt lat="45.31381" lon="5.87191">
        <ele>1317.4460449219</ele>
        <time>2017-12-15T09:06:48Z</time>
      </trkpt>
      <trkpt lat="45.31389" lon="5.87192">
        <ele>1316.4460449219</ele>
        <time>2017-12-15T09:06:50Z</time>
      </trkpt>
      <trkpt lat="45.31401" lon="5.87195">
        <ele>1312.4460449219</ele>
        <time>2017-12-15T09:06:52Z</time>
      </trkpt>
      <trkpt lat="45.31406" lon="5.87199">
        <ele>1309.4460449219</ele>
        <time>2017-12-15T09:06:53Z</time>
      </trkpt>
      <trkpt lat="45.31407" lon="5.87221">
        <ele>1303.4460449219</ele>
        <time>2017-12-15T09:06:55Z</time>
      </trkpt>
      <trkpt lat="45.31404" lon="5.87244">
        <ele>1293.4460449219</ele>
        <time>2017-12-15T09:06:57Z</time>
      </trkpt>
      <trkpt lat="45.31404" lon="5.87269">
        <ele>1286.4460449219</ele>
        <time>2017-12-15T09:06:59Z</time>
      </trkpt>
      <trkpt lat="45.31405" lon="5.87295">
        <ele>1277.4460449219</ele>
        <time>2017-12-15T09:07:01Z</time>
      </trkpt>
      <trkpt lat="45.31406" lon="5.87323">
        <ele>1268.4460449219</ele>
        <time>2017-12-15T09:07:03Z</time>
      </trkpt>
      <trkpt lat="45.31407" lon="5.87349">
        <ele>1258.4460449219</ele>
        <time>2017-12-15T09:07:05Z</time>
      </trkpt>
      <trkpt lat="45.31418" lon="5.87377">
        <ele>1250.4460449219</ele>
        <time>2017-12-15T09:07:07Z</time>
      </trkpt>
      <trkpt lat="45.31421" lon="5.87409">
        <ele>1241.4460449219</ele>
        <time>2017-12-15T09:07:09Z</time>
      </trkpt>
      <trkpt lat="45.31426" lon="5.87437">
        <ele>1234.4460449219</ele>
        <time>2017-12-15T09:07:11Z</time>
      </trkpt>
      <trkpt lat="45.31431" lon="5.8746">
        <ele>1228.4460449219</ele>
        <time>2017-12-15T09:07:13Z</time>
      </trkpt>
      <trkpt lat="45.31437" lon="5.87483">
        <ele>1222.4460449219</ele>
        <time>2017-12-15T09:07:15Z</time>
      </trkpt>
      <trkpt lat="45.31447" lon="5.8751">
        <ele>1210.4460449219</ele>
        <time>2017-12-15T09:07:17Z</time>
      </trkpt>
      <trkpt lat="45.3145" lon="5.87539">
        <ele>1201.4460449219</ele>
        <time>2017-12-15T09:07:19Z</time>
      </trkpt>
      <trkpt lat="45.31454" lon="5.8757">
        <ele>1191.4460449219</ele>
        <time>2017-12-15T09:07:21Z</time>
      </trkpt>
      <trkpt lat="45.31462" lon="5.87617">
        <ele>1177.4460449219</ele>
        <time>2017-12-15T09:07:24Z</time>
      </trkpt>
      <trkpt lat="45.31469" lon="5.87648">
        <ele>1169.4460449219</ele>
        <time>2017-12-15T09:07:26Z</time>
      </trkpt>
      <trkpt lat="45.31476" lon="5.87676">
        <ele>1162.4460449219</ele>
        <time>2017-12-15T09:07:28Z</time>
      </trkpt>
      <trkpt lat="45.31482" lon="5.87702">
        <ele>1155.4460449219</ele>
        <time>2017-12-15T09:07:30Z</time>
      </trkpt>
      <trkpt lat="45.3149" lon="5.87727">
        <ele>1148.4470214844</ele>
        <time>2017-12-15T09:07:32Z</time>
      </trkpt>
      <trkpt lat="45.31486" lon="5.8775">
        <ele>1144.4470214844</ele>
        <time>2017-12-15T09:07:34Z</time>
      </trkpt>
      <trkpt lat="45.31489" lon="5.87778">
        <ele>1138.4470214844</ele>
        <time>2017-12-15T09:07:36Z</time>
      </trkpt>
      <trkpt lat="45.31495" lon="5.87804">
        <ele>1130.4470214844</ele>
        <time>2017-12-15T09:07:38Z</time>
      </trkpt>
      <trkpt lat="45.31498" lon="5.87833">
        <ele>1123.4470214844</ele>
        <time>2017-12-15T09:07:40Z</time>
      </trkpt>
      <trkpt lat="45.31497" lon="5.87863">
        <ele>1115.4470214844</ele>
        <time>2017-12-15T09:07:42Z</time>
      </trkpt>
      <trkpt lat="45.31499" lon="5.87896">
        <ele>1106.4470214844</ele>
        <time>2017-12-15T09:07:44Z</time>
      </trkpt>
      <trkpt lat="45.31501" lon="5.87929">
        <ele>1097.4470214844</ele>
        <time>2017-12-15T09:07:46Z</time>
      </trkpt>
      <trkpt lat="45.31508" lon="5.87964">
        <ele>1095.4470214844</ele>
        <time>2017-12-15T09:07:48Z</time>
      </trkpt>
      <trkpt lat="45.31512" lon="5.88">
        <ele>1093.4470214844</ele>
        <time>2017-12-15T09:07:50Z</time>
      </trkpt>
      <trkpt lat="45.3152" lon="5.88014">
        <ele>1091.4470214844</ele>
        <time>2017-12-15T09:07:51Z</time>
      </trkpt>
      <trkpt lat="45.31532" lon="5.88033">
        <ele>1084.4470214844</ele>
        <time>2017-12-15T09:07:53Z</time>
      </trkpt>
      <trkpt lat="45.31542" lon="5.88069">
        <ele>1082.4470214844</ele>
        <time>2017-12-15T09:07:55Z</time>
      </trkpt>
      <trkpt lat="45.31545" lon="5.8809">
        <ele>1081.4470214844</ele>
        <time>2017-12-15T09:07:56Z</time>
      </trkpt>
      <trkpt lat="45.31548" lon="5.88104">
        <ele>1076.4470214844</ele>
        <time>2017-12-15T09:07:57Z</time>
      </trkpt>
      <trkpt lat="45.31551" lon="5.88121">
        <ele>1073.4470214844</ele>
        <time>2017-12-15T09:07:58Z</time>
      </trkpt>
      <trkpt lat="45.31553" lon="5.88133">
        <ele>1065.4470214844</ele>
        <time>2017-12-15T09:07:59Z</time>
      </trkpt>
      <trkpt lat="45.31552" lon="5.88147">
        <ele>1060.4470214844</ele>
        <time>2017-12-15T09:08:00Z</time>
      </trkpt>
      <trkpt lat="45.31557" lon="5.88178">
        <ele>1052.4470214844</ele>
        <time>2017-12-15T09:08:02Z</time>
      </trkpt>
      <trkpt lat="45.31561" lon="5.88192">
        <ele>1048.4470214844</ele>
        <time>2017-12-15T09:08:03Z</time>
      </trkpt>
      <trkpt lat="45.31562" lon="5.88222">
        <ele>1042.4470214844</ele>
        <time>2017-12-15T09:08:05Z</time>
      </trkpt>
      <trkpt lat="45.31558" lon="5.88251">
        <ele>1035.4470214844</ele>
        <time>2017-12-15T09:08:07Z</time>
      </trkpt>
      <trkpt lat="45.31548" lon="5.88279">
        <ele>1029.4470214844</ele>
        <time>2017-12-15T09:08:09Z</time>
      </trkpt>
      <trkpt lat="45.31534" lon="5.88306">
        <ele>1026.4470214844</ele>
        <time>2017-12-15T09:08:11Z</time>
      </trkpt>
      <trkpt lat="45.31523" lon="5.88333">
        <ele>1020.4470214844</ele>
        <time>2017-12-15T09:08:13Z</time>
      </trkpt>
      <trkpt lat="45.31507" lon="5.88355">
        <ele>1014.4470214844</ele>
        <time>2017-12-15T09:08:15Z</time>
      </trkpt>
      <trkpt lat="45.31492" lon="5.88379">
        <ele>1010.4470214844</ele>
        <time>2017-12-15T09:08:17Z</time>
      </trkpt>
      <trkpt lat="45.3148" lon="5.88406">
        <ele>1006.4470214844</ele>
        <time>2017-12-15T09:08:19Z</time>
      </trkpt>
      <trkpt lat="45.31468" lon="5.88431">
        <ele>1004.4470214844</ele>
        <time>2017-12-15T09:08:21Z</time>
      </trkpt>
      <trkpt lat="45.31456" lon="5.88455">
        <ele>1002.4470214844</ele>
        <time>2017-12-15T09:08:23Z</time>
      </trkpt>
      <trkpt lat="45.31446" lon="5.88475">
        <ele>999.44702148438</ele>
        <time>2017-12-15T09:08:25Z</time>
      </trkpt>
      <trkpt lat="45.31434" lon="5.88496">
        <ele>996.44702148438</ele>
        <time>2017-12-15T09:08:27Z</time>
      </trkpt>
      <trkpt lat="45.31421" lon="5.8851">
        <ele>992.44702148438</ele>
        <time>2017-12-15T09:08:29Z</time>
      </trkpt>
      <trkpt lat="45.31409" lon="5.88528">
        <ele>989.44702148438</ele>
        <time>2017-12-15T09:08:31Z</time>
      </trkpt>
      <trkpt lat="45.31401" lon="5.88551">
        <ele>987.44702148438</ele>
        <time>2017-12-15T09:08:33Z</time>
      </trkpt>
      <trkpt lat="45.31388" lon="5.88561">
        <ele>981.44702148438</ele>
        <time>2017-12-15T09:08:36Z</time>
      </trkpt>
      <trkpt lat="45.3138" lon="5.88552">
        <ele>980.44702148438</ele>
        <time>2017-12-15T09:08:38Z</time>
      </trkpt>
      <trkpt lat="45.31382" lon="5.88541">
        <ele>974.44702148438</ele>
        <time>2017-12-15T09:10:05Z</time>
      </trkpt>
      <trkpt lat="45.31379" lon="5.88537">
        <ele>972.44702148438</ele>
        <time>2017-12-15T09:10:15Z</time>
      </trkpt>
      <trkpt lat="45.31377" lon="5.88528">
        <ele>976.44702148438</ele>
        <time>2017-12-15T09:10:32Z</time>
      </trkpt>
      <trkpt lat="45.31375" lon="5.88521">
        <ele>976.44702148438</ele>
        <time>2017-12-15T09:10:36Z</time>
      </trkpt>
      <trkpt lat="45.31375" lon="5.88514">
        <ele>977.44702148438</ele>
        <time>2017-12-15T09:10:39Z</time>
      </trkpt>
      <trkpt lat="45.31375" lon="5.88508">
        <ele>979.44702148438</ele>
        <time>2017-12-15T09:10:42Z</time>
      </trkpt>
      <trkpt lat="45.31375" lon="5.88499">
        <ele>979.44702148438</ele>
        <time>2017-12-15T09:10:45Z</time>
      </trkpt>
      <trkpt lat="45.31374" lon="5.88493">
        <ele>978.44702148438</ele>
        <time>2017-12-15T09:10:48Z</time>
      </trkpt>
      <trkpt lat="45.31374" lon="5.88484">
        <ele>976.44702148438</ele>
        <time>2017-12-15T09:10:53Z</time>
      </trkpt>
      <trkpt lat="45.31377" lon="5.88478">
        <ele>980.44702148438</ele>
        <time>2017-12-15T09:10:57Z</time>
      </trkpt>
      <trkpt lat="45.31375" lon="5.88471">
        <ele>979.44702148438</ele>
        <time>2017-12-15T09:11:01Z</time>
      </trkpt>
      <trkpt lat="45.31376" lon="5.88463">
        <ele>978.44702148438</ele>
        <time>2017-12-15T09:11:06Z</time>
      </trkpt>
      <trkpt lat="45.31377" lon="5.88455">
        <ele>979.44702148438</ele>
        <time>2017-12-15T09:11:11Z</time>
      </trkpt>
      <trkpt lat="45.31377" lon="5.88448">
        <ele>982.44702148438</ele>
        <time>2017-12-15T09:11:17Z</time>
      </trkpt>
      <trkpt lat="45.31378" lon="5.88439">
        <ele>986.44702148438</ele>
        <time>2017-12-15T09:11:23Z</time>
      </trkpt>
      <trkpt lat="45.31378" lon="5.8843">
        <ele>985.44702148438</ele>
        <time>2017-12-15T09:11:27Z</time>
      </trkpt>
      <trkpt lat="45.3138" lon="5.88422">
        <ele>991.44702148438</ele>
        <time>2017-12-15T09:11:33Z</time>
      </trkpt>
      <trkpt lat="45.31383" lon="5.88413">
        <ele>993.44702148438</ele>
        <time>2017-12-15T09:11:40Z</time>
      </trkpt>
      <trkpt lat="45.31384" lon="5.88406">
        <ele>993.44702148438</ele>
        <time>2017-12-15T09:11:44Z</time>
      </trkpt>
      <trkpt lat="45.31386" lon="5.884">
        <ele>991.44702148438</ele>
        <time>2017-12-15T09:11:47Z</time>
      </trkpt>
      <trkpt lat="45.31387" lon="5.88394">
        <ele>991.44702148438</ele>
        <time>2017-12-15T09:11:53Z</time>
      </trkpt>
      <trkpt lat="45.31389" lon="5.88387">
        <ele>989.44702148438</ele>
        <time>2017-12-15T09:12:00Z</time>
      </trkpt>
      <trkpt lat="45.31392" lon="5.8838">
        <ele>997.44702148438</ele>
        <time>2017-12-15T09:12:09Z</time>
      </trkpt>
      <trkpt lat="45.31394" lon="5.88373">
        <ele>998.44702148438</ele>
        <time>2017-12-15T09:12:13Z</time>
      </trkpt>
      <trkpt lat="45.31394" lon="5.88366">
        <ele>994.44702148438</ele>
        <time>2017-12-15T09:12:16Z</time>
      </trkpt>
      <trkpt lat="45.31395" lon="5.88358">
        <ele>993.44702148438</ele>
        <time>2017-12-15T09:12:23Z</time>
      </trkpt>
      <trkpt lat="45.31398" lon="5.88352">
        <ele>993.44702148438</ele>
        <time>2017-12-15T09:12:28Z</time>
      </trkpt>
      <trkpt lat="45.31398" lon="5.88345">
        <ele>994.44702148438</ele>
        <time>2017-12-15T09:12:33Z</time>
      </trkpt>
      <trkpt lat="45.314" lon="5.88339">
        <ele>998.44702148438</ele>
        <time>2017-12-15T09:12:40Z</time>
      </trkpt>
      <trkpt lat="45.31402" lon="5.88334">
        <ele>1005.4470214844</ele>
        <time>2017-12-15T09:12:49Z</time>
      </trkpt>
      <trkpt lat="45.31404" lon="5.88327">
        <ele>1006.4470214844</ele>
        <time>2017-12-15T09:12:53Z</time>
      </trkpt>
      <trkpt lat="45.31406" lon="5.88322">
        <ele>1011.4470214844</ele>
        <time>2017-12-15T09:12:59Z</time>
      </trkpt>
      <trkpt lat="45.31406" lon="5.88315">
        <ele>1012.4470214844</ele>
        <time>2017-12-15T09:13:03Z</time>
      </trkpt>
      <trkpt lat="45.31406" lon="5.88308">
        <ele>1013.4470214844</ele>
        <time>2017-12-15T09:13:09Z</time>
      </trkpt>
      <trkpt lat="45.31407" lon="5.88301">
        <ele>1014.4470214844</ele>
        <time>2017-12-15T09:13:13Z</time>
      </trkpt>
      <trkpt lat="45.3141" lon="5.88296">
        <ele>1013.4470214844</ele>
        <time>2017-12-15T09:13:18Z</time>
      </trkpt>
      <trkpt lat="45.31414" lon="5.8829">
        <ele>1015.4470214844</ele>
        <time>2017-12-15T09:13:24Z</time>
      </trkpt>
      <trkpt lat="45.31412" lon="5.88282">
        <ele>1011.4470214844</ele>
        <time>2017-12-15T09:13:29Z</time>
      </trkpt>
      <trkpt lat="45.31413" lon="5.88274">
        <ele>1012.4470214844</ele>
        <time>2017-12-15T09:13:36Z</time>
      </trkpt>
      <trkpt lat="45.31413" lon="5.88267">
        <ele>1020.4470214844</ele>
        <time>2017-12-15T09:13:46Z</time>
      </trkpt>
      <trkpt lat="45.31416" lon="5.8826">
        <ele>1021.4470214844</ele>
        <time>2017-12-15T09:13:52Z</time>
      </trkpt>
      <trkpt lat="45.31417" lon="5.88253">
        <ele>1021.4470214844</ele>
        <time>2017-12-15T09:13:59Z</time>
      </trkpt>
      <trkpt lat="45.31415" lon="5.88246">
        <ele>1022.4470214844</ele>
        <time>2017-12-15T09:14:04Z</time>
      </trkpt>
      <trkpt lat="45.31417" lon="5.8824">
        <ele>1027.4470214844</ele>
        <time>2017-12-15T09:14:10Z</time>
      </trkpt>
      <trkpt lat="45.31416" lon="5.88233">
        <ele>1030.4470214844</ele>
        <time>2017-12-15T09:14:16Z</time>
      </trkpt>
      <trkpt lat="45.31416" lon="5.88226">
        <ele>1033.4470214844</ele>
        <time>2017-12-15T09:14:24Z</time>
      </trkpt>
      <trkpt lat="45.31417" lon="5.88218">
        <ele>1034.4470214844</ele>
        <time>2017-12-15T09:14:31Z</time>
      </trkpt>
      <trkpt lat="45.31418" lon="5.88212">
        <ele>1039.4470214844</ele>
        <time>2017-12-15T09:14:43Z</time>
      </trkpt>
      <trkpt lat="45.31418" lon="5.88205">
        <ele>1041.4470214844</ele>
        <time>2017-12-15T09:14:53Z</time>
      </trkpt>
      <trkpt lat="45.31421" lon="5.88199">
        <ele>1042.4470214844</ele>
        <time>2017-12-15T09:14:57Z</time>
      </trkpt>
      <trkpt lat="45.3142" lon="5.88193">
        <ele>1046.4470214844</ele>
        <time>2017-12-15T09:15:00Z</time>
      </trkpt>
      <trkpt lat="45.31419" lon="5.88185">
        <ele>1052.4470214844</ele>
        <time>2017-12-15T09:15:09Z</time>
      </trkpt>
      <trkpt lat="45.31416" lon="5.88178">
        <ele>1053.4470214844</ele>
        <time>2017-12-15T09:15:20Z</time>
      </trkpt>
      <trkpt lat="45.31417" lon="5.88171">
        <ele>1058.4470214844</ele>
        <time>2017-12-15T09:15:27Z</time>
      </trkpt>
      <trkpt lat="45.31417" lon="5.88165">
        <ele>1060.4470214844</ele>
        <time>2017-12-15T09:15:34Z</time>
      </trkpt>
      <trkpt lat="45.31414" lon="5.88159">
        <ele>1060.4470214844</ele>
        <time>2017-12-15T09:15:45Z</time>
      </trkpt>
      <trkpt lat="45.31417" lon="5.8815">
        <ele>1058.4470214844</ele>
        <time>2017-12-15T09:15:52Z</time>
      </trkpt>
      <trkpt lat="45.31417" lon="5.88143">
        <ele>1056.4470214844</ele>
        <time>2017-12-15T09:15:55Z</time>
      </trkpt>
      <trkpt lat="45.31415" lon="5.88137">
        <ele>1056.4470214844</ele>
        <time>2017-12-15T09:16:01Z</time>
      </trkpt>
      <trkpt lat="45.31413" lon="5.88131">
        <ele>1059.4470214844</ele>
        <time>2017-12-15T09:16:11Z</time>
      </trkpt>
      <trkpt lat="45.31411" lon="5.88124">
        <ele>1064.4470214844</ele>
        <time>2017-12-15T09:16:16Z</time>
      </trkpt>
      <trkpt lat="45.31409" lon="5.88117">
        <ele>1069.4470214844</ele>
        <time>2017-12-15T09:16:21Z</time>
      </trkpt>
      <trkpt lat="45.31408" lon="5.88111">
        <ele>1074.4470214844</ele>
        <time>2017-12-15T09:16:26Z</time>
      </trkpt>
      <trkpt lat="45.31407" lon="5.88104">
        <ele>1077.4470214844</ele>
        <time>2017-12-15T09:16:34Z</time>
      </trkpt>
      <trkpt lat="45.31406" lon="5.88096">
        <ele>1081.4470214844</ele>
        <time>2017-12-15T09:16:41Z</time>
      </trkpt>
      <trkpt lat="45.31404" lon="5.88089">
        <ele>1085.4470214844</ele>
        <time>2017-12-15T09:16:49Z</time>
      </trkpt>
      <trkpt lat="45.31399" lon="5.88085">
        <ele>1086.4470214844</ele>
        <time>2017-12-15T09:16:56Z</time>
      </trkpt>
      <trkpt lat="45.31396" lon="5.88079">
        <ele>1089.4470214844</ele>
        <time>2017-12-15T09:17:04Z</time>
      </trkpt>
      <trkpt lat="45.31392" lon="5.88076">
        <ele>1091.4470214844</ele>
        <time>2017-12-15T09:17:09Z</time>
      </trkpt>
      <trkpt lat="45.31391" lon="5.88068">
        <ele>1091.4470214844</ele>
        <time>2017-12-15T09:17:17Z</time>
      </trkpt>
      <trkpt lat="45.31385" lon="5.88069">
        <ele>1091.4470214844</ele>
        <time>2017-12-15T09:17:21Z</time>
      </trkpt>
      <trkpt lat="45.31383" lon="5.88063">
        <ele>1093.4470214844</ele>
        <time>2017-12-15T09:17:27Z</time>
      </trkpt>
      <trkpt lat="45.31383" lon="5.88057">
        <ele>1093.4470214844</ele>
        <time>2017-12-15T09:17:31Z</time>
      </trkpt>
      <trkpt lat="45.31382" lon="5.8805">
        <ele>1095.4470214844</ele>
        <time>2017-12-15T09:17:39Z</time>
      </trkpt>
      <trkpt lat="45.3138" lon="5.88043">
        <ele>1098.4470214844</ele>
        <time>2017-12-15T09:17:46Z</time>
      </trkpt>
      <trkpt lat="45.31379" lon="5.88036">
        <ele>1099.4470214844</ele>
        <time>2017-12-15T09:17:52Z</time>
      </trkpt>
      <trkpt lat="45.31375" lon="5.88031">
        <ele>1105.4470214844</ele>
        <time>2017-12-15T09:18:01Z</time>
      </trkpt>
      <trkpt lat="45.31372" lon="5.88026">
        <ele>1106.4470214844</ele>
        <time>2017-12-15T09:18:08Z</time>
      </trkpt>
      <trkpt lat="45.31371" lon="5.88019">
        <ele>1109.4470214844</ele>
        <time>2017-12-15T09:18:15Z</time>
      </trkpt>
      <trkpt lat="45.31369" lon="5.88013">
        <ele>1111.4470214844</ele>
        <time>2017-12-15T09:18:22Z</time>
      </trkpt>
      <trkpt lat="45.31367" lon="5.88008">
        <ele>1115.4470214844</ele>
        <time>2017-12-15T09:18:29Z</time>
      </trkpt>
      <trkpt lat="45.31364" lon="5.88002">
        <ele>1116.4470214844</ele>
        <time>2017-12-15T09:18:34Z</time>
      </trkpt>
      <trkpt lat="45.31361" lon="5.87996">
        <ele>1119.4470214844</ele>
        <time>2017-12-15T09:18:39Z</time>
      </trkpt>
      <trkpt lat="45.31359" lon="5.87988">
        <ele>1120.4470214844</ele>
        <time>2017-12-15T09:18:44Z</time>
      </trkpt>
      <trkpt lat="45.31359" lon="5.87981">
        <ele>1122.4470214844</ele>
        <time>2017-12-15T09:18:50Z</time>
      </trkpt>
      <trkpt lat="45.31358" lon="5.87974">
        <ele>1123.4470214844</ele>
        <time>2017-12-15T09:18:56Z</time>
      </trkpt>
      <trkpt lat="45.31358" lon="5.87967">
        <ele>1123.4470214844</ele>
        <time>2017-12-15T09:19:03Z</time>
      </trkpt>
      <trkpt lat="45.31357" lon="5.8796">
        <ele>1126.4470214844</ele>
        <time>2017-12-15T09:19:10Z</time>
      </trkpt>
      <trkpt lat="45.31357" lon="5.87953">
        <ele>1127.4470214844</ele>
        <time>2017-12-15T09:19:17Z</time>
      </trkpt>
      <trkpt lat="45.31358" lon="5.87946">
        <ele>1129.4470214844</ele>
        <time>2017-12-15T09:19:25Z</time>
      </trkpt>
      <trkpt lat="45.31359" lon="5.8794">
        <ele>1130.4470214844</ele>
        <time>2017-12-15T09:19:33Z</time>
      </trkpt>
      <trkpt lat="45.31362" lon="5.87933">
        <ele>1133.4470214844</ele>
        <time>2017-12-15T09:19:39Z</time>
      </trkpt>
      <trkpt lat="45.31365" lon="5.87927">
        <ele>1135.4470214844</ele>
        <time>2017-12-15T09:19:46Z</time>
      </trkpt>
      <trkpt lat="45.31369" lon="5.87924">
        <ele>1136.4470214844</ele>
        <time>2017-12-15T09:19:49Z</time>
      </trkpt>
      <trkpt lat="45.31372" lon="5.87918">
        <ele>1140.4470214844</ele>
        <time>2017-12-15T09:19:54Z</time>
      </trkpt>
      <trkpt lat="45.31371" lon="5.87911">
        <ele>1141.4470214844</ele>
        <time>2017-12-15T09:19:59Z</time>
      </trkpt>
      <trkpt lat="45.31371" lon="5.87904">
        <ele>1144.4460449219</ele>
        <time>2017-12-15T09:20:06Z</time>
      </trkpt>
      <trkpt lat="45.31373" lon="5.87897">
        <ele>1146.4460449219</ele>
        <time>2017-12-15T09:20:12Z</time>
      </trkpt>
      <trkpt lat="45.31372" lon="5.8789">
        <ele>1148.4460449219</ele>
        <time>2017-12-15T09:20:18Z</time>
      </trkpt>
      <trkpt lat="45.31374" lon="5.87884">
        <ele>1150.4460449219</ele>
        <time>2017-12-15T09:20:24Z</time>
      </trkpt>
      <trkpt lat="45.31374" lon="5.87877">
        <ele>1149.4460449219</ele>
        <time>2017-12-15T09:20:31Z</time>
      </trkpt>
      <trkpt lat="45.31374" lon="5.8787">
        <ele>1150.4460449219</ele>
        <time>2017-12-15T09:20:36Z</time>
      </trkpt>
      <trkpt lat="45.31374" lon="5.87864">
        <ele>1150.4460449219</ele>
        <time>2017-12-15T09:20:42Z</time>
      </trkpt>
      <trkpt lat="45.31372" lon="5.87857">
        <ele>1151.4460449219</ele>
        <time>2017-12-15T09:20:47Z</time>
      </trkpt>
      <trkpt lat="45.31369" lon="5.8785">
        <ele>1152.4460449219</ele>
        <time>2017-12-15T09:20:53Z</time>
      </trkpt>
      <trkpt lat="45.31367" lon="5.87844">
        <ele>1152.4460449219</ele>
        <time>2017-12-15T09:20:56Z</time>
      </trkpt>
      <trkpt lat="45.31365" lon="5.87838">
        <ele>1155.4460449219</ele>
        <time>2017-12-15T09:21:01Z</time>
      </trkpt>
      <trkpt lat="45.31363" lon="5.87832">
        <ele>1156.4460449219</ele>
        <time>2017-12-15T09:21:07Z</time>
      </trkpt>
      <trkpt lat="45.31362" lon="5.87825">
        <ele>1158.4460449219</ele>
        <time>2017-12-15T09:21:13Z</time>
      </trkpt>
      <trkpt lat="45.31361" lon="5.87818">
        <ele>1162.4460449219</ele>
        <time>2017-12-15T09:21:20Z</time>
      </trkpt>
      <trkpt lat="45.3136" lon="5.87811">
        <ele>1162.4460449219</ele>
        <time>2017-12-15T09:21:26Z</time>
      </trkpt>
      <trkpt lat="45.31359" lon="5.87804">
        <ele>1166.4460449219</ele>
        <time>2017-12-15T09:21:32Z</time>
      </trkpt>
      <trkpt lat="45.3136" lon="5.87797">
        <ele>1169.4460449219</ele>
        <time>2017-12-15T09:21:38Z</time>
      </trkpt>
      <trkpt lat="45.3136" lon="5.8779">
        <ele>1173.4460449219</ele>
        <time>2017-12-15T09:21:44Z</time>
      </trkpt>
      <trkpt lat="45.3136" lon="5.87783">
        <ele>1174.4460449219</ele>
        <time>2017-12-15T09:21:51Z</time>
      </trkpt>
      <trkpt lat="45.31361" lon="5.87776">
        <ele>1176.4460449219</ele>
        <time>2017-12-15T09:21:56Z</time>
      </trkpt>
      <trkpt lat="45.31361" lon="5.87769">
        <ele>1178.4460449219</ele>
        <time>2017-12-15T09:22:02Z</time>
      </trkpt>
      <trkpt lat="45.31362" lon="5.87762">
        <ele>1180.4460449219</ele>
        <time>2017-12-15T09:22:07Z</time>
      </trkpt>
      <trkpt lat="45.31362" lon="5.87755">
        <ele>1183.4460449219</ele>
        <time>2017-12-15T09:22:13Z</time>
      </trkpt>
      <trkpt lat="45.31361" lon="5.87747">
        <ele>1183.4460449219</ele>
        <time>2017-12-15T09:22:19Z</time>
      </trkpt>
      <trkpt lat="45.31362" lon="5.8774">
        <ele>1183.4460449219</ele>
        <time>2017-12-15T09:22:24Z</time>
      </trkpt>
      <trkpt lat="45.31361" lon="5.87733">
        <ele>1184.4460449219</ele>
        <time>2017-12-15T09:22:29Z</time>
      </trkpt>
      <trkpt lat="45.31362" lon="5.87726">
        <ele>1185.4460449219</ele>
        <time>2017-12-15T09:22:34Z</time>
      </trkpt>
      <trkpt lat="45.31362" lon="5.87719">
        <ele>1184.4460449219</ele>
        <time>2017-12-15T09:22:39Z</time>
      </trkpt>
      <trkpt lat="45.31362" lon="5.87712">
        <ele>1187.4460449219</ele>
        <time>2017-12-15T09:22:46Z</time>
      </trkpt>
      <trkpt lat="45.31362" lon="5.87704">
        <ele>1189.4460449219</ele>
        <time>2017-12-15T09:22:54Z</time>
      </trkpt>
      <trkpt lat="45.31363" lon="5.87698">
        <ele>1192.4460449219</ele>
        <time>2017-12-15T09:23:00Z</time>
      </trkpt>
      <trkpt lat="45.31362" lon="5.87691">
        <ele>1193.4460449219</ele>
        <time>2017-12-15T09:23:06Z</time>
      </trkpt>
      <trkpt lat="45.31362" lon="5.87685">
        <ele>1196.4460449219</ele>
        <time>2017-12-15T09:23:13Z</time>
      </trkpt>
      <trkpt lat="45.3136" lon="5.87677">
        <ele>1195.4460449219</ele>
        <time>2017-12-15T09:23:21Z</time>
      </trkpt>
      <trkpt lat="45.3136" lon="5.8767">
        <ele>1196.4460449219</ele>
        <time>2017-12-15T09:23:28Z</time>
      </trkpt>
      <trkpt lat="45.31362" lon="5.87665">
        <ele>1200.4460449219</ele>
        <time>2017-12-15T09:23:35Z</time>
      </trkpt>
      <trkpt lat="45.31363" lon="5.87658">
        <ele>1204.4460449219</ele>
        <time>2017-12-15T09:23:41Z</time>
      </trkpt>
      <trkpt lat="45.31362" lon="5.87651">
        <ele>1202.4460449219</ele>
        <time>2017-12-15T09:23:49Z</time>
      </trkpt>
      <trkpt lat="45.31361" lon="5.87643">
        <ele>1204.4460449219</ele>
        <time>2017-12-15T09:23:54Z</time>
      </trkpt>
      <trkpt lat="45.31362" lon="5.87637">
        <ele>1209.4460449219</ele>
        <time>2017-12-15T09:24:02Z</time>
      </trkpt>
      <trkpt lat="45.31359" lon="5.87632">
        <ele>1210.4460449219</ele>
        <time>2017-12-15T09:24:09Z</time>
      </trkpt>
      <trkpt lat="45.31358" lon="5.87625">
        <ele>1212.4460449219</ele>
        <time>2017-12-15T09:24:17Z</time>
      </trkpt>
      <trkpt lat="45.31361" lon="5.87618">
        <ele>1220.4460449219</ele>
        <time>2017-12-15T09:24:25Z</time>
      </trkpt>
      <trkpt lat="45.31361" lon="5.87612">
        <ele>1222.4460449219</ele>
        <time>2017-12-15T09:24:34Z</time>
      </trkpt>
      <trkpt lat="45.31361" lon="5.87605">
        <ele>1226.4460449219</ele>
        <time>2017-12-15T09:24:41Z</time>
      </trkpt>
      <trkpt lat="45.3136" lon="5.87598">
        <ele>1229.4460449219</ele>
        <time>2017-12-15T09:24:49Z</time>
      </trkpt>
      <trkpt lat="45.31355" lon="5.87592">
        <ele>1229.4460449219</ele>
        <time>2017-12-15T09:24:55Z</time>
      </trkpt>
      <trkpt lat="45.31355" lon="5.87585">
        <ele>1233.4460449219</ele>
        <time>2017-12-15T09:25:00Z</time>
      </trkpt>
      <trkpt lat="45.31353" lon="5.87579">
        <ele>1232.4460449219</ele>
        <time>2017-12-15T09:25:05Z</time>
      </trkpt>
      <trkpt lat="45.31351" lon="5.87574">
        <ele>1231.4460449219</ele>
        <time>2017-12-15T09:25:10Z</time>
      </trkpt>
      <trkpt lat="45.31351" lon="5.87566">
        <ele>1228.4460449219</ele>
        <time>2017-12-15T09:25:16Z</time>
      </trkpt>
      <trkpt lat="45.31349" lon="5.87559">
        <ele>1230.4460449219</ele>
        <time>2017-12-15T09:25:24Z</time>
      </trkpt>
      <trkpt lat="45.31348" lon="5.87553">
        <ele>1229.4460449219</ele>
        <time>2017-12-15T09:25:30Z</time>
      </trkpt>
      <trkpt lat="45.31346" lon="5.87547">
        <ele>1232.4460449219</ele>
        <time>2017-12-15T09:25:37Z</time>
      </trkpt>
      <trkpt lat="45.31344" lon="5.87541">
        <ele>1235.4460449219</ele>
        <time>2017-12-15T09:25:44Z</time>
      </trkpt>
      <trkpt lat="45.3134" lon="5.87536">
        <ele>1235.4460449219</ele>
        <time>2017-12-15T09:25:54Z</time>
      </trkpt>
      <trkpt lat="45.31341" lon="5.87528">
        <ele>1240.4460449219</ele>
        <time>2017-12-15T09:26:03Z</time>
      </trkpt>
      <trkpt lat="45.31341" lon="5.87521">
        <ele>1244.4460449219</ele>
        <time>2017-12-15T09:26:11Z</time>
      </trkpt>
      <trkpt lat="45.31342" lon="5.87514">
        <ele>1246.4460449219</ele>
        <time>2017-12-15T09:26:18Z</time>
      </trkpt>
      <trkpt lat="45.3134" lon="5.87507">
        <ele>1249.4460449219</ele>
        <time>2017-12-15T09:26:24Z</time>
      </trkpt>
      <trkpt lat="45.31338" lon="5.87501">
        <ele>1251.4460449219</ele>
        <time>2017-12-15T09:26:31Z</time>
      </trkpt>
      <trkpt lat="45.31337" lon="5.87486">
        <ele>1258.4460449219</ele>
        <time>2017-12-15T09:26:46Z</time>
      </trkpt>
      <trkpt lat="45.31337" lon="5.87478">
        <ele>1260.4460449219</ele>
        <time>2017-12-15T09:26:53Z</time>
      </trkpt>
      <trkpt lat="45.31335" lon="5.87472">
        <ele>1264.4460449219</ele>
        <time>2017-12-15T09:27:01Z</time>
      </trkpt>
      <trkpt lat="45.31333" lon="5.87465">
        <ele>1267.4460449219</ele>
        <time>2017-12-15T09:27:07Z</time>
      </trkpt>
      <trkpt lat="45.31333" lon="5.87458">
        <ele>1270.4460449219</ele>
        <time>2017-12-15T09:27:16Z</time>
      </trkpt>
      <trkpt lat="45.31331" lon="5.8745">
        <ele>1273.4460449219</ele>
        <time>2017-12-15T09:27:23Z</time>
      </trkpt>
      <trkpt lat="45.31329" lon="5.87444">
        <ele>1275.4460449219</ele>
        <time>2017-12-15T09:27:30Z</time>
      </trkpt>
      <trkpt lat="45.31328" lon="5.87438">
        <ele>1278.4460449219</ele>
        <time>2017-12-15T09:27:40Z</time>
      </trkpt>
      <trkpt lat="45.31326" lon="5.87432">
        <ele>1279.4460449219</ele>
        <time>2017-12-15T09:27:49Z</time>
      </trkpt>
      <trkpt lat="45.31324" lon="5.87426">
        <ele>1280.4460449219</ele>
        <time>2017-12-15T09:27:58Z</time>
      </trkpt>
      <trkpt lat="45.31323" lon="5.87418">
        <ele>1283.4460449219</ele>
        <time>2017-12-15T09:28:04Z</time>
      </trkpt>
      <trkpt lat="45.31323" lon="5.87411">
        <ele>1285.4460449219</ele>
        <time>2017-12-15T09:28:09Z</time>
      </trkpt>
      <trkpt lat="45.31324" lon="5.87404">
        <ele>1284.4460449219</ele>
        <time>2017-12-15T09:28:15Z</time>
      </trkpt>
      <trkpt lat="45.31324" lon="5.87396">
        <ele>1284.4460449219</ele>
        <time>2017-12-15T09:28:21Z</time>
      </trkpt>
      <trkpt lat="45.31326" lon="5.8739">
        <ele>1286.4460449219</ele>
        <time>2017-12-15T09:28:26Z</time>
      </trkpt>
      <trkpt lat="45.31329" lon="5.87385">
        <ele>1287.4460449219</ele>
        <time>2017-12-15T09:28:29Z</time>
      </trkpt>
      <trkpt lat="45.31329" lon="5.87377">
        <ele>1288.4460449219</ele>
        <time>2017-12-15T09:28:34Z</time>
      </trkpt>
      <trkpt lat="45.31329" lon="5.8737">
        <ele>1287.4460449219</ele>
        <time>2017-12-15T09:28:37Z</time>
      </trkpt>
      <trkpt lat="45.3133" lon="5.87363">
        <ele>1287.4460449219</ele>
        <time>2017-12-15T09:28:40Z</time>
      </trkpt>
      <trkpt lat="45.31332" lon="5.87357">
        <ele>1287.4460449219</ele>
        <time>2017-12-15T09:28:42Z</time>
      </trkpt>
      <trkpt lat="45.31332" lon="5.87349">
        <ele>1286.4460449219</ele>
        <time>2017-12-15T09:28:45Z</time>
      </trkpt>
      <trkpt lat="45.31333" lon="5.87342">
        <ele>1285.4460449219</ele>
        <time>2017-12-15T09:28:48Z</time>
      </trkpt>
      <trkpt lat="45.31333" lon="5.87336">
        <ele>1288.4460449219</ele>
        <time>2017-12-15T09:28:53Z</time>
      </trkpt>
      <trkpt lat="45.31334" lon="5.87329">
        <ele>1286.4460449219</ele>
        <time>2017-12-15T09:28:57Z</time>
      </trkpt>
      <trkpt lat="45.31335" lon="5.87322">
        <ele>1287.4460449219</ele>
        <time>2017-12-15T09:29:00Z</time>
      </trkpt>
      <trkpt lat="45.31336" lon="5.87315">
        <ele>1289.4460449219</ele>
        <time>2017-12-15T09:29:04Z</time>
      </trkpt>
      <trkpt lat="45.31338" lon="5.87307">
        <ele>1289.4460449219</ele>
        <time>2017-12-15T09:29:10Z</time>
      </trkpt>
      <trkpt lat="45.31338" lon="5.87301">
        <ele>1290.4460449219</ele>
        <time>2017-12-15T09:29:14Z</time>
      </trkpt>
      <trkpt lat="45.3134" lon="5.87295">
        <ele>1294.4460449219</ele>
        <time>2017-12-15T09:29:21Z</time>
      </trkpt>
      <trkpt lat="45.31343" lon="5.87289">
        <ele>1296.4460449219</ele>
        <time>2017-12-15T09:29:25Z</time>
      </trkpt>
      <trkpt lat="45.31341" lon="5.87282">
        <ele>1302.4460449219</ele>
        <time>2017-12-15T09:29:32Z</time>
      </trkpt>
      <trkpt lat="45.31343" lon="5.87275">
        <ele>1305.4460449219</ele>
        <time>2017-12-15T09:29:37Z</time>
      </trkpt>
      <trkpt lat="45.31345" lon="5.87268">
        <ele>1304.4460449219</ele>
        <time>2017-12-15T09:29:42Z</time>
      </trkpt>
      <trkpt lat="45.31345" lon="5.87262">
        <ele>1304.4460449219</ele>
        <time>2017-12-15T09:29:46Z</time>
      </trkpt>
      <trkpt lat="45.31347" lon="5.87255">
        <ele>1308.4460449219</ele>
        <time>2017-12-15T09:29:51Z</time>
      </trkpt>
      <trkpt lat="45.31348" lon="5.87249">
        <ele>1309.4460449219</ele>
        <time>2017-12-15T09:29:56Z</time>
      </trkpt>
      <trkpt lat="45.31351" lon="5.87243">
        <ele>1313.4460449219</ele>
        <time>2017-12-15T09:30:00Z</time>
      </trkpt>
      <trkpt lat="45.31352" lon="5.87236">
        <ele>1314.4460449219</ele>
        <time>2017-12-15T09:30:05Z</time>
      </trkpt>
      <trkpt lat="45.31354" lon="5.87229">
        <ele>1317.4460449219</ele>
        <time>2017-12-15T09:30:12Z</time>
      </trkpt>
      <trkpt lat="45.31356" lon="5.87223">
        <ele>1320.4460449219</ele>
        <time>2017-12-15T09:30:17Z</time>
      </trkpt>
      <trkpt lat="45.31358" lon="5.87215">
        <ele>1318.4460449219</ele>
        <time>2017-12-15T09:30:21Z</time>
      </trkpt>
      <trkpt lat="45.31361" lon="5.8721">
        <ele>1318.4460449219</ele>
        <time>2017-12-15T09:30:26Z</time>
      </trkpt>
      <trkpt lat="45.31365" lon="5.87206">
        <ele>1322.4460449219</ele>
        <time>2017-12-15T09:30:44Z</time>
      </trkpt>
      <trkpt lat="45.31361" lon="5.87217">
        <ele>1322.4460449219</ele>
        <time>2017-12-15T09:32:54Z</time>
      </trkpt>
      <trkpt lat="45.31361" lon="5.87234">
        <ele>1320.4460449219</ele>
        <time>2017-12-15T09:32:56Z</time>
      </trkpt>
      <trkpt lat="45.31358" lon="5.87254">
        <ele>1313.4460449219</ele>
        <time>2017-12-15T09:32:58Z</time>
      </trkpt>
      <trkpt lat="45.31356" lon="5.87277">
        <ele>1308.4460449219</ele>
        <time>2017-12-15T09:33:00Z</time>
      </trkpt>
      <trkpt lat="45.31353" lon="5.87291">
        <ele>1304.4460449219</ele>
        <time>2017-12-15T09:33:01Z</time>
      </trkpt>
      <trkpt lat="45.31348" lon="5.87319">
        <ele>1299.4460449219</ele>
        <time>2017-12-15T09:33:03Z</time>
      </trkpt>
      <trkpt lat="45.31346" lon="5.87336">
        <ele>1298.4460449219</ele>
        <time>2017-12-15T09:33:04Z</time>
      </trkpt>
      <trkpt lat="45.31342" lon="5.87362">
        <ele>1296.4460449219</ele>
        <time>2017-12-15T09:33:06Z</time>
      </trkpt>
      <trkpt lat="45.31338" lon="5.87382">
        <ele>1294.4460449219</ele>
        <time>2017-12-15T09:33:08Z</time>
      </trkpt>
      <trkpt lat="45.3134" lon="5.87403">
        <ele>1291.4460449219</ele>
        <time>2017-12-15T09:33:10Z</time>
      </trkpt>
      <trkpt lat="45.31342" lon="5.87425">
        <ele>1285.4460449219</ele>
        <time>2017-12-15T09:33:12Z</time>
      </trkpt>
      <trkpt lat="45.31337" lon="5.87446">
        <ele>1280.4460449219</ele>
        <time>2017-12-15T09:33:14Z</time>
      </trkpt>
      <trkpt lat="45.3134" lon="5.87466">
        <ele>1273.4460449219</ele>
        <time>2017-12-15T09:33:16Z</time>
      </trkpt>
      <trkpt lat="45.31348" lon="5.87489">
        <ele>1264.4460449219</ele>
        <time>2017-12-15T09:33:18Z</time>
      </trkpt>
      <trkpt lat="45.3136" lon="5.87511">
        <ele>1255.4460449219</ele>
        <time>2017-12-15T09:33:20Z</time>
      </trkpt>
      <trkpt lat="45.31364" lon="5.87542">
        <ele>1241.4460449219</ele>
        <time>2017-12-15T09:33:22Z</time>
      </trkpt>
      <trkpt lat="45.31374" lon="5.87568">
        <ele>1231.4460449219</ele>
        <time>2017-12-15T09:33:24Z</time>
      </trkpt>
      <trkpt lat="45.31375" lon="5.876">
        <ele>1227.4460449219</ele>
        <time>2017-12-15T09:33:26Z</time>
      </trkpt>
      <trkpt lat="45.31381" lon="5.87632">
        <ele>1216.4460449219</ele>
        <time>2017-12-15T09:33:28Z</time>
      </trkpt>
      <trkpt lat="45.31381" lon="5.87665">
        <ele>1206.4460449219</ele>
        <time>2017-12-15T09:33:30Z</time>
      </trkpt>
      <trkpt lat="45.31378" lon="5.87695">
        <ele>1194.4460449219</ele>
        <time>2017-12-15T09:33:32Z</time>
      </trkpt>
      <trkpt lat="45.31373" lon="5.87732">
        <ele>1185.4460449219</ele>
        <time>2017-12-15T09:33:34Z</time>
      </trkpt>
      <trkpt lat="45.3138" lon="5.87764">
        <ele>1178.4460449219</ele>
        <time>2017-12-15T09:33:36Z</time>
      </trkpt>
      <trkpt lat="45.31385" lon="5.87798">
        <ele>1170.4460449219</ele>
        <time>2017-12-15T09:33:38Z</time>
      </trkpt>
      <trkpt lat="45.31387" lon="5.87829">
        <ele>1162.4460449219</ele>
        <time>2017-12-15T09:33:40Z</time>
      </trkpt>
      <trkpt lat="45.31388" lon="5.87855">
        <ele>1158.4460449219</ele>
        <time>2017-12-15T09:33:42Z</time>
      </trkpt>
      <trkpt lat="45.31391" lon="5.8788">
        <ele>1154.4470214844</ele>
        <time>2017-12-15T09:33:44Z</time>
      </trkpt>
      <trkpt lat="45.31382" lon="5.87901">
        <ele>1151.4470214844</ele>
        <time>2017-12-15T09:33:46Z</time>
      </trkpt>
      <trkpt lat="45.31382" lon="5.87929">
        <ele>1145.4470214844</ele>
        <time>2017-12-15T09:33:48Z</time>
      </trkpt>
      <trkpt lat="45.31377" lon="5.87959">
        <ele>1143.4470214844</ele>
        <time>2017-12-15T09:33:50Z</time>
      </trkpt>
      <trkpt lat="45.31371" lon="5.8799">
        <ele>1137.4470214844</ele>
        <time>2017-12-15T09:33:52Z</time>
      </trkpt>
      <trkpt lat="45.31361" lon="5.88025">
        <ele>1132.4470214844</ele>
        <time>2017-12-15T09:33:54Z</time>
      </trkpt>
      <trkpt lat="45.31367" lon="5.88031">
        <ele>1128.4470214844</ele>
        <time>2017-12-15T09:33:55Z</time>
      </trkpt>
      <trkpt lat="45.31374" lon="5.88045">
        <ele>1126.4470214844</ele>
        <time>2017-12-15T09:33:56Z</time>
      </trkpt>
      <trkpt lat="45.31389" lon="5.88068">
        <ele>1111.4470214844</ele>
        <time>2017-12-15T09:33:58Z</time>
      </trkpt>
      <trkpt lat="45.31403" lon="5.88093">
        <ele>1101.4470214844</ele>
        <time>2017-12-15T09:34:00Z</time>
      </trkpt>
      <trkpt lat="45.31414" lon="5.88118">
        <ele>1086.4470214844</ele>
        <time>2017-12-15T09:34:02Z</time>
      </trkpt>
      <trkpt lat="45.31417" lon="5.88146">
        <ele>1075.4470214844</ele>
        <time>2017-12-15T09:34:04Z</time>
      </trkpt>
      <trkpt lat="45.31413" lon="5.88179">
        <ele>1061.4470214844</ele>
        <time>2017-12-15T09:34:06Z</time>
      </trkpt>
      <trkpt lat="45.31405" lon="5.88208">
        <ele>1048.4470214844</ele>
        <time>2017-12-15T09:34:08Z</time>
      </trkpt>
      <trkpt lat="45.31401" lon="5.88241">
        <ele>1035.4470214844</ele>
        <time>2017-12-15T09:34:10Z</time>
      </trkpt>
      <trkpt lat="45.31395" lon="5.88273">
        <ele>1027.4470214844</ele>
        <time>2017-12-15T09:34:12Z</time>
      </trkpt>
      <trkpt lat="45.31384" lon="5.883">
        <ele>1022.4470214844</ele>
        <time>2017-12-15T09:34:14Z</time>
      </trkpt>
      <trkpt lat="45.31379" lon="5.88325">
        <ele>1019.4470214844</ele>
        <time>2017-12-15T09:34:16Z</time>
      </trkpt>
      <trkpt lat="45.31374" lon="5.88353">
        <ele>1017.4470214844</ele>
        <time>2017-12-15T09:34:18Z</time>
      </trkpt>
      <trkpt lat="45.31375" lon="5.8838">
        <ele>1010.4470214844</ele>
        <time>2017-12-15T09:34:20Z</time>
      </trkpt>
      <trkpt lat="45.31373" lon="5.88394">
        <ele>1007.4470214844</ele>
        <time>2017-12-15T09:34:21Z</time>
      </trkpt>
      <trkpt lat="45.31373" lon="5.88417">
        <ele>1001.4470214844</ele>
        <time>2017-12-15T09:34:23Z</time>
      </trkpt>
      <trkpt lat="45.31373" lon="5.88444">
        <ele>997.44702148438</ele>
        <time>2017-12-15T09:34:25Z</time>
      </trkpt>
      <trkpt lat="45.31375" lon="5.88463">
        <ele>993.44702148438</ele>
        <time>2017-12-15T09:34:27Z</time>
      </trkpt>
      <trkpt lat="45.31375" lon="5.88477">
        <ele>990.44702148438</ele>
        <time>2017-12-15T09:34:28Z</time>
      </trkpt>
      <trkpt lat="45.31373" lon="5.88489">
        <ele>988.44702148438</ele>
        <time>2017-12-15T09:34:29Z</time>
      </trkpt>
      <trkpt lat="45.31374" lon="5.88511">
        <ele>985.44702148438</ele>
        <time>2017-12-15T09:34:31Z</time>
      </trkpt>
      <trkpt lat="45.31374" lon="5.88532">
        <ele>983.44702148438</ele>
        <time>2017-12-15T09:34:33Z</time>
      </trkpt>
      <trkpt lat="45.31377" lon="5.88526">
        <ele>980.44702148438</ele>
        <time>2017-12-15T09:35:54Z</time>
      </trkpt>
      <trkpt lat="45.31376" lon="5.88519">
        <ele>981.44702148438</ele>
        <time>2017-12-15T09:35:57Z</time>
      </trkpt>
      <trkpt lat="45.31378" lon="5.88511">
        <ele>980.44702148438</ele>
        <time>2017-12-15T09:36:00Z</time>
      </trkpt>
      <trkpt lat="45.31378" lon="5.88505">
        <ele>977.44702148438</ele>
        <time>2017-12-15T09:36:03Z</time>
      </trkpt>
      <trkpt lat="45.31377" lon="5.88497">
        <ele>978.44702148438</ele>
        <time>2017-12-15T09:36:07Z</time>
      </trkpt>
      <trkpt lat="45.31375" lon="5.88488">
        <ele>979.44702148438</ele>
        <time>2017-12-15T09:36:12Z</time>
      </trkpt>
      <trkpt lat="45.31376" lon="5.88479">
        <ele>982.44702148438</ele>
        <time>2017-12-15T09:36:19Z</time>
      </trkpt>
      <trkpt lat="45.3138" lon="5.88475">
        <ele>984.44702148438</ele>
        <time>2017-12-15T09:36:22Z</time>
      </trkpt>
      <trkpt lat="45.3138" lon="5.88468">
        <ele>983.44702148438</ele>
        <time>2017-12-15T09:36:25Z</time>
      </trkpt>
      <trkpt lat="45.3138" lon="5.88461">
        <ele>984.44702148438</ele>
        <time>2017-12-15T09:36:28Z</time>
      </trkpt>
      <trkpt lat="45.3138" lon="5.88452">
        <ele>982.44702148438</ele>
        <time>2017-12-15T09:36:33Z</time>
      </trkpt>
      <trkpt lat="45.31382" lon="5.88446">
        <ele>985.44702148438</ele>
        <time>2017-12-15T09:36:38Z</time>
      </trkpt>
      <trkpt lat="45.3138" lon="5.88438">
        <ele>987.44702148438</ele>
        <time>2017-12-15T09:36:42Z</time>
      </trkpt>
      <trkpt lat="45.31381" lon="5.88431">
        <ele>985.44702148438</ele>
        <time>2017-12-15T09:36:47Z</time>
      </trkpt>
      <trkpt lat="45.3138" lon="5.88424">
        <ele>982.44702148438</ele>
        <time>2017-12-15T09:36:51Z</time>
      </trkpt>
      <trkpt lat="45.31381" lon="5.88417">
        <ele>985.44702148438</ele>
        <time>2017-12-15T09:36:55Z</time>
      </trkpt>
      <trkpt lat="45.31382" lon="5.88411">
        <ele>987.44702148438</ele>
        <time>2017-12-15T09:36:59Z</time>
      </trkpt>
      <trkpt lat="45.31383" lon="5.88404">
        <ele>987.44702148438</ele>
        <time>2017-12-15T09:37:03Z</time>
      </trkpt>
      <trkpt lat="45.31386" lon="5.88398">
        <ele>986.44702148438</ele>
        <time>2017-12-15T09:37:07Z</time>
      </trkpt>
      <trkpt lat="45.31386" lon="5.88391">
        <ele>989.44702148438</ele>
        <time>2017-12-15T09:37:13Z</time>
      </trkpt>
      <trkpt lat="45.31389" lon="5.88385">
        <ele>991.44702148438</ele>
        <time>2017-12-15T09:37:17Z</time>
      </trkpt>
      <trkpt lat="45.31394" lon="5.88381">
        <ele>995.44702148438</ele>
        <time>2017-12-15T09:37:22Z</time>
      </trkpt>
      <trkpt lat="45.31397" lon="5.88375">
        <ele>996.44702148438</ele>
        <time>2017-12-15T09:37:25Z</time>
      </trkpt>
      <trkpt lat="45.31396" lon="5.88368">
        <ele>996.44702148438</ele>
        <time>2017-12-15T09:37:27Z</time>
      </trkpt>
      <trkpt lat="45.31395" lon="5.88362">
        <ele>1001.4470214844</ele>
        <time>2017-12-15T09:37:33Z</time>
      </trkpt>
      <trkpt lat="45.31398" lon="5.88356">
        <ele>1003.4470214844</ele>
        <time>2017-12-15T09:37:39Z</time>
      </trkpt>
      <trkpt lat="45.314" lon="5.8835">
        <ele>1002.4470214844</ele>
        <time>2017-12-15T09:37:45Z</time>
      </trkpt>
      <trkpt lat="45.31401" lon="5.88343">
        <ele>1005.4470214844</ele>
        <time>2017-12-15T09:37:52Z</time>
      </trkpt>
      <trkpt lat="45.31402" lon="5.88334">
        <ele>1011.4470214844</ele>
        <time>2017-12-15T09:37:58Z</time>
      </trkpt>
      <trkpt lat="45.31401" lon="5.88327">
        <ele>1010.4470214844</ele>
        <time>2017-12-15T09:38:01Z</time>
      </trkpt>
      <trkpt lat="45.31406" lon="5.88321">
        <ele>1012.4470214844</ele>
        <time>2017-12-15T09:38:09Z</time>
      </trkpt>
      <trkpt lat="45.31404" lon="5.88314">
        <ele>1010.4470214844</ele>
        <time>2017-12-15T09:38:17Z</time>
      </trkpt>
      <trkpt lat="45.31405" lon="5.88307">
        <ele>1008.4470214844</ele>
        <time>2017-12-15T09:38:23Z</time>
      </trkpt>
      <trkpt lat="45.31407" lon="5.883">
        <ele>1016.4470214844</ele>
        <time>2017-12-15T09:38:29Z</time>
      </trkpt>
      <trkpt lat="45.31407" lon="5.88293">
        <ele>1016.4470214844</ele>
        <time>2017-12-15T09:38:36Z</time>
      </trkpt>
      <trkpt lat="45.31408" lon="5.88286">
        <ele>1017.4470214844</ele>
        <time>2017-12-15T09:38:41Z</time>
      </trkpt>
      <trkpt lat="45.3141" lon="5.88281">
        <ele>1015.4470214844</ele>
        <time>2017-12-15T09:38:45Z</time>
      </trkpt>
      <trkpt lat="45.31413" lon="5.88276">
        <ele>1019.4470214844</ele>
        <time>2017-12-15T09:38:51Z</time>
      </trkpt>
      <trkpt lat="45.31414" lon="5.88268">
        <ele>1021.4470214844</ele>
        <time>2017-12-15T09:38:56Z</time>
      </trkpt>
      <trkpt lat="45.31416" lon="5.88261">
        <ele>1022.4470214844</ele>
        <time>2017-12-15T09:39:03Z</time>
      </trkpt>
      <trkpt lat="45.31417" lon="5.88255">
        <ele>1024.4470214844</ele>
        <time>2017-12-15T09:39:10Z</time>
      </trkpt>
      <trkpt lat="45.31417" lon="5.88248">
        <ele>1027.4470214844</ele>
        <time>2017-12-15T09:39:17Z</time>
      </trkpt>
      <trkpt lat="45.31419" lon="5.88242">
        <ele>1029.4470214844</ele>
        <time>2017-12-15T09:39:24Z</time>
      </trkpt>
      <trkpt lat="45.31417" lon="5.88236">
        <ele>1026.4470214844</ele>
        <time>2017-12-15T09:39:28Z</time>
      </trkpt>
      <trkpt lat="45.31416" lon="5.88229">
        <ele>1027.4470214844</ele>
        <time>2017-12-15T09:39:35Z</time>
      </trkpt>
      <trkpt lat="45.31417" lon="5.88222">
        <ele>1031.4470214844</ele>
        <time>2017-12-15T09:39:41Z</time>
      </trkpt>
      <trkpt lat="45.31417" lon="5.88214">
        <ele>1035.4470214844</ele>
        <time>2017-12-15T09:39:48Z</time>
      </trkpt>
      <trkpt lat="45.31418" lon="5.88208">
        <ele>1037.4470214844</ele>
        <time>2017-12-15T09:39:56Z</time>
      </trkpt>
      <trkpt lat="45.3142" lon="5.882">
        <ele>1041.4470214844</ele>
        <time>2017-12-15T09:40:02Z</time>
      </trkpt>
      <trkpt lat="45.31419" lon="5.88193">
        <ele>1043.4470214844</ele>
        <time>2017-12-15T09:40:07Z</time>
      </trkpt>
      <trkpt lat="45.31419" lon="5.88186">
        <ele>1045.4470214844</ele>
        <time>2017-12-15T09:40:13Z</time>
      </trkpt>
      <trkpt lat="45.31417" lon="5.88178">
        <ele>1044.4470214844</ele>
        <time>2017-12-15T09:40:20Z</time>
      </trkpt>
      <trkpt lat="45.31416" lon="5.88171">
        <ele>1045.4470214844</ele>
        <time>2017-12-15T09:40:25Z</time>
      </trkpt>
      <trkpt lat="45.31416" lon="5.88164">
        <ele>1048.4470214844</ele>
        <time>2017-12-15T09:40:32Z</time>
      </trkpt>
      <trkpt lat="45.31417" lon="5.88152">
        <ele>1048.4470214844</ele>
        <time>2017-12-15T09:40:44Z</time>
      </trkpt>
      <trkpt lat="45.31417" lon="5.88146">
        <ele>1046.4470214844</ele>
        <time>2017-12-15T09:40:51Z</time>
      </trkpt>
      <trkpt lat="45.31414" lon="5.8814">
        <ele>1050.4470214844</ele>
        <time>2017-12-15T09:41:08Z</time>
      </trkpt>
      <trkpt lat="45.31413" lon="5.88131">
        <ele>1053.4470214844</ele>
        <time>2017-12-15T09:41:18Z</time>
      </trkpt>
      <trkpt lat="45.31413" lon="5.88124">
        <ele>1059.4470214844</ele>
        <time>2017-12-15T09:41:22Z</time>
      </trkpt>
      <trkpt lat="45.31412" lon="5.88117">
        <ele>1059.4470214844</ele>
        <time>2017-12-15T09:41:27Z</time>
      </trkpt>
      <trkpt lat="45.31413" lon="5.88111">
        <ele>1059.4470214844</ele>
        <time>2017-12-15T09:41:32Z</time>
      </trkpt>
      <trkpt lat="45.31409" lon="5.88106">
        <ele>1061.4470214844</ele>
        <time>2017-12-15T09:41:35Z</time>
      </trkpt>
      <trkpt lat="45.31407" lon="5.88099">
        <ele>1064.4470214844</ele>
        <time>2017-12-15T09:41:43Z</time>
      </trkpt>
      <trkpt lat="45.31405" lon="5.88093">
        <ele>1064.4470214844</ele>
        <time>2017-12-15T09:41:52Z</time>
      </trkpt>
      <trkpt lat="45.31401" lon="5.88088">
        <ele>1069.4470214844</ele>
        <time>2017-12-15T09:42:02Z</time>
      </trkpt>
      <trkpt lat="45.31398" lon="5.88083">
        <ele>1072.4470214844</ele>
        <time>2017-12-15T09:42:08Z</time>
      </trkpt>
      <trkpt lat="45.31397" lon="5.88076">
        <ele>1077.4470214844</ele>
        <time>2017-12-15T09:42:15Z</time>
      </trkpt>
      <trkpt lat="45.31396" lon="5.88069">
        <ele>1079.4470214844</ele>
        <time>2017-12-15T09:42:22Z</time>
      </trkpt>
      <trkpt lat="45.31391" lon="5.88065">
        <ele>1081.4470214844</ele>
        <time>2017-12-15T09:42:28Z</time>
      </trkpt>
      <trkpt lat="45.31387" lon="5.88061">
        <ele>1084.4470214844</ele>
        <time>2017-12-15T09:42:34Z</time>
      </trkpt>
      <trkpt lat="45.31384" lon="5.88056">
        <ele>1088.4470214844</ele>
        <time>2017-12-15T09:42:39Z</time>
      </trkpt>
      <trkpt lat="45.31382" lon="5.88049">
        <ele>1093.4470214844</ele>
        <time>2017-12-15T09:42:44Z</time>
      </trkpt>
      <trkpt lat="45.31383" lon="5.88041">
        <ele>1097.4470214844</ele>
        <time>2017-12-15T09:42:49Z</time>
      </trkpt>
      <trkpt lat="45.31382" lon="5.88034">
        <ele>1097.4470214844</ele>
        <time>2017-12-15T09:42:57Z</time>
      </trkpt>
      <trkpt lat="45.31379" lon="5.88029">
        <ele>1100.4470214844</ele>
        <time>2017-12-15T09:43:09Z</time>
      </trkpt>
      <trkpt lat="45.31377" lon="5.88022">
        <ele>1101.4470214844</ele>
        <time>2017-12-15T09:43:18Z</time>
      </trkpt>
      <trkpt lat="45.31375" lon="5.88016">
        <ele>1103.4470214844</ele>
        <time>2017-12-15T09:43:26Z</time>
      </trkpt>
      <trkpt lat="45.31374" lon="5.88008">
        <ele>1104.4470214844</ele>
        <time>2017-12-15T09:43:36Z</time>
      </trkpt>
      <trkpt lat="45.31373" lon="5.88002">
        <ele>1102.4470214844</ele>
        <time>2017-12-15T09:43:42Z</time>
      </trkpt>
      <trkpt lat="45.31369" lon="5.87994">
        <ele>1106.4470214844</ele>
        <time>2017-12-15T09:43:49Z</time>
      </trkpt>
      <trkpt lat="45.31364" lon="5.87988">
        <ele>1107.4470214844</ele>
        <time>2017-12-15T09:43:54Z</time>
      </trkpt>
      <trkpt lat="45.31361" lon="5.87982">
        <ele>1112.4470214844</ele>
        <time>2017-12-15T09:44:02Z</time>
      </trkpt>
      <trkpt lat="45.31357" lon="5.87973">
        <ele>1114.4470214844</ele>
        <time>2017-12-15T09:44:10Z</time>
      </trkpt>
      <trkpt lat="45.31358" lon="5.87964">
        <ele>1117.4470214844</ele>
        <time>2017-12-15T09:44:18Z</time>
      </trkpt>
      <trkpt lat="45.31358" lon="5.87957">
        <ele>1122.4470214844</ele>
        <time>2017-12-15T09:44:23Z</time>
      </trkpt>
      <trkpt lat="45.31355" lon="5.87951">
        <ele>1126.4470214844</ele>
        <time>2017-12-15T09:44:28Z</time>
      </trkpt>
      <trkpt lat="45.31356" lon="5.87945">
        <ele>1126.4470214844</ele>
        <time>2017-12-15T09:44:33Z</time>
      </trkpt>
      <trkpt lat="45.31358" lon="5.87938">
        <ele>1129.4470214844</ele>
        <time>2017-12-15T09:44:42Z</time>
      </trkpt>
      <trkpt lat="45.31361" lon="5.87933">
        <ele>1132.4470214844</ele>
        <time>2017-12-15T09:44:46Z</time>
      </trkpt>
      <trkpt lat="45.31364" lon="5.87927">
        <ele>1134.4470214844</ele>
        <time>2017-12-15T09:44:49Z</time>
      </trkpt>
      <trkpt lat="45.31366" lon="5.87921">
        <ele>1137.4470214844</ele>
        <time>2017-12-15T09:44:58Z</time>
      </trkpt>
      <trkpt lat="45.31366" lon="5.87914">
        <ele>1138.4470214844</ele>
        <time>2017-12-15T09:45:05Z</time>
      </trkpt>
      <trkpt lat="45.31368" lon="5.87908">
        <ele>1140.4460449219</ele>
        <time>2017-12-15T09:45:08Z</time>
      </trkpt>
      <trkpt lat="45.31373" lon="5.87902">
        <ele>1141.4460449219</ele>
        <time>2017-12-15T09:45:12Z</time>
      </trkpt>
      <trkpt lat="45.31374" lon="5.87895">
        <ele>1144.4460449219</ele>
        <time>2017-12-15T09:45:16Z</time>
      </trkpt>
      <trkpt lat="45.31373" lon="5.87889">
        <ele>1144.4460449219</ele>
        <time>2017-12-15T09:45:21Z</time>
      </trkpt>
      <trkpt lat="45.31373" lon="5.87882">
        <ele>1149.4460449219</ele>
        <time>2017-12-15T09:45:29Z</time>
      </trkpt>
      <trkpt lat="45.31372" lon="5.87875">
        <ele>1152.4460449219</ele>
        <time>2017-12-15T09:45:35Z</time>
      </trkpt>
      <trkpt lat="45.31372" lon="5.87868">
        <ele>1157.4460449219</ele>
        <time>2017-12-15T09:45:42Z</time>
      </trkpt>
      <trkpt lat="45.31372" lon="5.87861">
        <ele>1160.4460449219</ele>
        <time>2017-12-15T09:45:48Z</time>
      </trkpt>
      <trkpt lat="45.3137" lon="5.87854">
        <ele>1161.4460449219</ele>
        <time>2017-12-15T09:45:54Z</time>
      </trkpt>
      <trkpt lat="45.31368" lon="5.87849">
        <ele>1160.4460449219</ele>
        <time>2017-12-15T09:45:59Z</time>
      </trkpt>
      <trkpt lat="45.31367" lon="5.87841">
        <ele>1162.4460449219</ele>
        <time>2017-12-15T09:46:03Z</time>
      </trkpt>
      <trkpt lat="45.31365" lon="5.87835">
        <ele>1163.4460449219</ele>
        <time>2017-12-15T09:46:09Z</time>
      </trkpt>
      <trkpt lat="45.31362" lon="5.87829">
        <ele>1166.4460449219</ele>
        <time>2017-12-15T09:46:15Z</time>
      </trkpt>
      <trkpt lat="45.31362" lon="5.87823">
        <ele>1167.4460449219</ele>
        <time>2017-12-15T09:46:19Z</time>
      </trkpt>
      <trkpt lat="45.31361" lon="5.87816">
        <ele>1168.4460449219</ele>
        <time>2017-12-15T09:46:25Z</time>
      </trkpt>
      <trkpt lat="45.3136" lon="5.87809">
        <ele>1170.4460449219</ele>
        <time>2017-12-15T09:46:31Z</time>
      </trkpt>
      <trkpt lat="45.3136" lon="5.87803">
        <ele>1171.4460449219</ele>
        <time>2017-12-15T09:46:36Z</time>
      </trkpt>
      <trkpt lat="45.3136" lon="5.87796">
        <ele>1172.4460449219</ele>
        <time>2017-12-15T09:46:45Z</time>
      </trkpt>
      <trkpt lat="45.3136" lon="5.8779">
        <ele>1172.4460449219</ele>
        <time>2017-12-15T09:46:50Z</time>
      </trkpt>
      <trkpt lat="45.31361" lon="5.87783">
        <ele>1172.4460449219</ele>
        <time>2017-12-15T09:46:54Z</time>
      </trkpt>
      <trkpt lat="45.31363" lon="5.87777">
        <ele>1175.4460449219</ele>
        <time>2017-12-15T09:47:01Z</time>
      </trkpt>
      <trkpt lat="45.31363" lon="5.87769">
        <ele>1179.4460449219</ele>
        <time>2017-12-15T09:47:06Z</time>
      </trkpt>
      <trkpt lat="45.31362" lon="5.87763">
        <ele>1180.4460449219</ele>
        <time>2017-12-15T09:47:11Z</time>
      </trkpt>
      <trkpt lat="45.3136" lon="5.87756">
        <ele>1182.4460449219</ele>
        <time>2017-12-15T09:47:17Z</time>
      </trkpt>
      <trkpt lat="45.31361" lon="5.87748">
        <ele>1183.4460449219</ele>
        <time>2017-12-15T09:47:23Z</time>
      </trkpt>
      <trkpt lat="45.31362" lon="5.87741">
        <ele>1185.4460449219</ele>
        <time>2017-12-15T09:47:28Z</time>
      </trkpt>
      <trkpt lat="45.31363" lon="5.87733">
        <ele>1185.4460449219</ele>
        <time>2017-12-15T09:47:33Z</time>
      </trkpt>
      <trkpt lat="45.31361" lon="5.87727">
        <ele>1184.4460449219</ele>
        <time>2017-12-15T09:47:38Z</time>
      </trkpt>
      <trkpt lat="45.31359" lon="5.87722">
        <ele>1183.4460449219</ele>
        <time>2017-12-15T09:47:45Z</time>
      </trkpt>
      <trkpt lat="45.31359" lon="5.87715">
        <ele>1184.4460449219</ele>
        <time>2017-12-15T09:47:50Z</time>
      </trkpt>
      <trkpt lat="45.31358" lon="5.87709">
        <ele>1185.4460449219</ele>
        <time>2017-12-15T09:47:57Z</time>
      </trkpt>
      <trkpt lat="45.31359" lon="5.87701">
        <ele>1188.4460449219</ele>
        <time>2017-12-15T09:48:06Z</time>
      </trkpt>
      <trkpt lat="45.31359" lon="5.87693">
        <ele>1191.4460449219</ele>
        <time>2017-12-15T09:48:16Z</time>
      </trkpt>
      <trkpt lat="45.31358" lon="5.87686">
        <ele>1193.4460449219</ele>
        <time>2017-12-15T09:48:22Z</time>
      </trkpt>
      <trkpt lat="45.31357" lon="5.8768">
        <ele>1196.4460449219</ele>
        <time>2017-12-15T09:48:30Z</time>
      </trkpt>
      <trkpt lat="45.3136" lon="5.87673">
        <ele>1200.4460449219</ele>
        <time>2017-12-15T09:48:37Z</time>
      </trkpt>
      <trkpt lat="45.31363" lon="5.87667">
        <ele>1207.4460449219</ele>
        <time>2017-12-15T09:48:44Z</time>
      </trkpt>
      <trkpt lat="45.31363" lon="5.8766">
        <ele>1206.4460449219</ele>
        <time>2017-12-15T09:48:50Z</time>
      </trkpt>
      <trkpt lat="45.3136" lon="5.87655">
        <ele>1206.4460449219</ele>
        <time>2017-12-15T09:48:54Z</time>
      </trkpt>
      <trkpt lat="45.31357" lon="5.87648">
        <ele>1209.4460449219</ele>
        <time>2017-12-15T09:49:02Z</time>
      </trkpt>
      <trkpt lat="45.31357" lon="5.8764">
        <ele>1210.4460449219</ele>
        <time>2017-12-15T09:49:08Z</time>
      </trkpt>
      <trkpt lat="45.31353" lon="5.87636">
        <ele>1212.4460449219</ele>
        <time>2017-12-15T09:49:15Z</time>
      </trkpt>
      <trkpt lat="45.31354" lon="5.8763">
        <ele>1216.4460449219</ele>
        <time>2017-12-15T09:49:24Z</time>
      </trkpt>
      <trkpt lat="45.31353" lon="5.87623">
        <ele>1218.4460449219</ele>
        <time>2017-12-15T09:49:30Z</time>
      </trkpt>
      <trkpt lat="45.31356" lon="5.87619">
        <ele>1219.4460449219</ele>
        <time>2017-12-15T09:49:33Z</time>
      </trkpt>
      <trkpt lat="45.3136" lon="5.87615">
        <ele>1222.4460449219</ele>
        <time>2017-12-15T09:49:36Z</time>
      </trkpt>
      <trkpt lat="45.31356" lon="5.87612">
        <ele>1221.4460449219</ele>
        <time>2017-12-15T09:49:40Z</time>
      </trkpt>
      <trkpt lat="45.31356" lon="5.87604">
        <ele>1223.4460449219</ele>
        <time>2017-12-15T09:49:49Z</time>
      </trkpt>
      <trkpt lat="45.31354" lon="5.87598">
        <ele>1225.4460449219</ele>
        <time>2017-12-15T09:49:59Z</time>
      </trkpt>
      <trkpt lat="45.31355" lon="5.87592">
        <ele>1230.4460449219</ele>
        <time>2017-12-15T09:50:04Z</time>
      </trkpt>
      <trkpt lat="45.3135" lon="5.87588">
        <ele>1227.4460449219</ele>
        <time>2017-12-15T09:50:07Z</time>
      </trkpt>
      <trkpt lat="45.31351" lon="5.87581">
        <ele>1231.4460449219</ele>
        <time>2017-12-15T09:50:13Z</time>
      </trkpt>
      <trkpt lat="45.3135" lon="5.87574">
        <ele>1231.4460449219</ele>
        <time>2017-12-15T09:50:17Z</time>
      </trkpt>
      <trkpt lat="45.31351" lon="5.87566">
        <ele>1233.4460449219</ele>
        <time>2017-12-15T09:50:23Z</time>
      </trkpt>
      <trkpt lat="45.31349" lon="5.87559">
        <ele>1234.4460449219</ele>
        <time>2017-12-15T09:50:33Z</time>
      </trkpt>
      <trkpt lat="45.31347" lon="5.87553">
        <ele>1235.4460449219</ele>
        <time>2017-12-15T09:50:37Z</time>
      </trkpt>
      <trkpt lat="45.31347" lon="5.87546">
        <ele>1242.4460449219</ele>
        <time>2017-12-15T09:50:49Z</time>
      </trkpt>
      <trkpt lat="45.31346" lon="5.8754">
        <ele>1244.4460449219</ele>
        <time>2017-12-15T09:50:55Z</time>
      </trkpt>
      <trkpt lat="45.31345" lon="5.87534">
        <ele>1248.4460449219</ele>
        <time>2017-12-15T09:51:03Z</time>
      </trkpt>
      <trkpt lat="45.31345" lon="5.87527">
        <ele>1246.4460449219</ele>
        <time>2017-12-15T09:51:09Z</time>
      </trkpt>
      <trkpt lat="45.31345" lon="5.87519">
        <ele>1248.4460449219</ele>
        <time>2017-12-15T09:51:15Z</time>
      </trkpt>
      <trkpt lat="45.31342" lon="5.87513">
        <ele>1248.4460449219</ele>
        <time>2017-12-15T09:51:24Z</time>
      </trkpt>
      <trkpt lat="45.31341" lon="5.87506">
        <ele>1251.4460449219</ele>
        <time>2017-12-15T09:51:30Z</time>
      </trkpt>
      <trkpt lat="45.3134" lon="5.87499">
        <ele>1251.4460449219</ele>
        <time>2017-12-15T09:51:36Z</time>
      </trkpt>
      <trkpt lat="45.31338" lon="5.87493">
        <ele>1254.4460449219</ele>
        <time>2017-12-15T09:51:43Z</time>
      </trkpt>
      <trkpt lat="45.31337" lon="5.87486">
        <ele>1256.4460449219</ele>
        <time>2017-12-15T09:51:48Z</time>
      </trkpt>
      <trkpt lat="45.31336" lon="5.87479">
        <ele>1257.4460449219</ele>
        <time>2017-12-15T09:51:55Z</time>
      </trkpt>
      <trkpt lat="45.31334" lon="5.87473">
        <ele>1261.4460449219</ele>
        <time>2017-12-15T09:52:04Z</time>
      </trkpt>
      <trkpt lat="45.31334" lon="5.87466">
        <ele>1266.4460449219</ele>
        <time>2017-12-15T09:52:16Z</time>
      </trkpt>
      <trkpt lat="45.31332" lon="5.8746">
        <ele>1266.4460449219</ele>
        <time>2017-12-15T09:52:22Z</time>
      </trkpt>
      <trkpt lat="45.31331" lon="5.87453">
        <ele>1270.4460449219</ele>
        <time>2017-12-15T09:52:28Z</time>
      </trkpt>
      <trkpt lat="45.31329" lon="5.87448">
        <ele>1270.4460449219</ele>
        <time>2017-12-15T09:52:35Z</time>
      </trkpt>
      <trkpt lat="45.31331" lon="5.87442">
        <ele>1274.4460449219</ele>
        <time>2017-12-15T09:52:42Z</time>
      </trkpt>
      <trkpt lat="45.31329" lon="5.87435">
        <ele>1272.4460449219</ele>
        <time>2017-12-15T09:52:48Z</time>
      </trkpt>
      <trkpt lat="45.31327" lon="5.87428">
        <ele>1275.4460449219</ele>
        <time>2017-12-15T09:52:55Z</time>
      </trkpt>
      <trkpt lat="45.31326" lon="5.87421">
        <ele>1279.4460449219</ele>
        <time>2017-12-15T09:53:05Z</time>
      </trkpt>
      <trkpt lat="45.31323" lon="5.87415">
        <ele>1282.4460449219</ele>
        <time>2017-12-15T09:53:11Z</time>
      </trkpt>
      <trkpt lat="45.31325" lon="5.87408">
        <ele>1284.4460449219</ele>
        <time>2017-12-15T09:53:14Z</time>
      </trkpt>
      <trkpt lat="45.31326" lon="5.87401">
        <ele>1286.4460449219</ele>
        <time>2017-12-15T09:53:19Z</time>
      </trkpt>
      <trkpt lat="45.31327" lon="5.87393">
        <ele>1288.4460449219</ele>
        <time>2017-12-15T09:53:23Z</time>
      </trkpt>
      <trkpt lat="45.31327" lon="5.87386">
        <ele>1287.4460449219</ele>
        <time>2017-12-15T09:53:27Z</time>
      </trkpt>
      <trkpt lat="45.31328" lon="5.87378">
        <ele>1289.4460449219</ele>
        <time>2017-12-15T09:53:32Z</time>
      </trkpt>
      <trkpt lat="45.31329" lon="5.8737">
        <ele>1290.4460449219</ele>
        <time>2017-12-15T09:53:36Z</time>
      </trkpt>
      <trkpt lat="45.31331" lon="5.87363">
        <ele>1292.4460449219</ele>
        <time>2017-12-15T09:53:40Z</time>
      </trkpt>
      <trkpt lat="45.31333" lon="5.87355">
        <ele>1293.4460449219</ele>
        <time>2017-12-15T09:53:43Z</time>
      </trkpt>
      <trkpt lat="45.31333" lon="5.87348">
        <ele>1291.4460449219</ele>
        <time>2017-12-15T09:53:46Z</time>
      </trkpt>
      <trkpt lat="45.31332" lon="5.87341">
        <ele>1292.4460449219</ele>
        <time>2017-12-15T09:53:52Z</time>
      </trkpt>
      <trkpt lat="45.31334" lon="5.87335">
        <ele>1291.4460449219</ele>
        <time>2017-12-15T09:53:56Z</time>
      </trkpt>
      <trkpt lat="45.31336" lon="5.87327">
        <ele>1291.4460449219</ele>
        <time>2017-12-15T09:53:59Z</time>
      </trkpt>
      <trkpt lat="45.31337" lon="5.87321">
        <ele>1293.4460449219</ele>
        <time>2017-12-15T09:54:03Z</time>
      </trkpt>
      <trkpt lat="45.3134" lon="5.87315">
        <ele>1296.4460449219</ele>
        <time>2017-12-15T09:54:07Z</time>
      </trkpt>
      <trkpt lat="45.3134" lon="5.87306">
        <ele>1299.4460449219</ele>
        <time>2017-12-15T09:54:13Z</time>
      </trkpt>
      <trkpt lat="45.31341" lon="5.87299">
        <ele>1302.4460449219</ele>
        <time>2017-12-15T09:54:18Z</time>
      </trkpt>
      <trkpt lat="45.31342" lon="5.87292">
        <ele>1300.4460449219</ele>
        <time>2017-12-15T09:54:22Z</time>
      </trkpt>
      <trkpt lat="45.31344" lon="5.87286">
        <ele>1300.4460449219</ele>
        <time>2017-12-15T09:54:27Z</time>
      </trkpt>
      <trkpt lat="45.31346" lon="5.8728">
        <ele>1300.4460449219</ele>
        <time>2017-12-15T09:54:33Z</time>
      </trkpt>
      <trkpt lat="45.31347" lon="5.87272">
        <ele>1304.4460449219</ele>
        <time>2017-12-15T09:54:38Z</time>
      </trkpt>
      <trkpt lat="45.31345" lon="5.87266">
        <ele>1306.4460449219</ele>
        <time>2017-12-15T09:54:44Z</time>
      </trkpt>
      <trkpt lat="45.31348" lon="5.87259">
        <ele>1309.4460449219</ele>
        <time>2017-12-15T09:54:49Z</time>
      </trkpt>
      <trkpt lat="45.31349" lon="5.87252">
        <ele>1313.4460449219</ele>
        <time>2017-12-15T09:54:55Z</time>
      </trkpt>
      <trkpt lat="45.31351" lon="5.87246">
        <ele>1284.4460449219</ele>
        <time>2017-12-15T09:54:59Z</time>
      </trkpt>
      <trkpt lat="45.31352" lon="5.87239">
        <ele>1306.4460449219</ele>
        <time>2017-12-15T09:55:06Z</time>
      </trkpt>
      <trkpt lat="45.31353" lon="5.87233">
        <ele>1310.4460449219</ele>
        <time>2017-12-15T09:55:12Z</time>
      </trkpt>
      <trkpt lat="45.31353" lon="5.87226">
        <ele>1316.4460449219</ele>
        <time>2017-12-15T09:55:20Z</time>
      </trkpt>
      <trkpt lat="45.31354" lon="5.8722">
        <ele>1316.4460449219</ele>
        <time>2017-12-15T09:55:23Z</time>
      </trkpt>
      <trkpt lat="45.31359" lon="5.87216">
        <ele>1320.4460449219</ele>
        <time>2017-12-15T09:55:33Z</time>
      </trkpt>
      <trkpt lat="45.31363" lon="5.8721">
        <ele>1318.4460449219</ele>
        <time>2017-12-15T09:56:02Z</time>
      </trkpt>
      <trkpt lat="45.3136" lon="5.87215">
        <ele>1320.4460449219</ele>
        <time>2017-12-15T09:56:31Z</time>
      </trkpt>
      <trkpt lat="45.31355" lon="5.87217">
        <ele>1317.4460449219</ele>
        <time>2017-12-15T09:56:33Z</time>
      </trkpt>
      <trkpt lat="45.31347" lon="5.87222">
        <ele>1316.4460449219</ele>
        <time>2017-12-15T09:56:35Z</time>
      </trkpt>
      <trkpt lat="45.31341" lon="5.87235">
        <ele>1315.4460449219</ele>
        <time>2017-12-15T09:56:37Z</time>
      </trkpt>
      <trkpt lat="45.31338" lon="5.8726">
        <ele>1312.4460449219</ele>
        <time>2017-12-15T09:56:39Z</time>
      </trkpt>
      <trkpt lat="45.31334" lon="5.87285">
        <ele>1310.4460449219</ele>
        <time>2017-12-15T09:56:41Z</time>
      </trkpt>
      <trkpt lat="45.31334" lon="5.87309">
        <ele>1308.4460449219</ele>
        <time>2017-12-15T09:56:43Z</time>
      </trkpt>
      <trkpt lat="45.31333" lon="5.87336">
        <ele>1305.4460449219</ele>
        <time>2017-12-15T09:56:45Z</time>
      </trkpt>
      <trkpt lat="45.31334" lon="5.87361">
        <ele>1302.4460449219</ele>
        <time>2017-12-15T09:56:47Z</time>
      </trkpt>
      <trkpt lat="45.31331" lon="5.87374">
        <ele>1302.4460449219</ele>
        <time>2017-12-15T09:56:48Z</time>
      </trkpt>
      <trkpt lat="45.31326" lon="5.87386">
        <ele>1298.4460449219</ele>
        <time>2017-12-15T09:56:50Z</time>
      </trkpt>
      <trkpt lat="45.31325" lon="5.87405">
        <ele>1298.4460449219</ele>
        <time>2017-12-15T09:56:52Z</time>
      </trkpt>
      <trkpt lat="45.31322" lon="5.87425">
        <ele>1298.4460449219</ele>
        <time>2017-12-15T09:56:54Z</time>
      </trkpt>
      <trkpt lat="45.31323" lon="5.87444">
        <ele>1294.4460449219</ele>
        <time>2017-12-15T09:56:56Z</time>
      </trkpt>
      <trkpt lat="45.3133" lon="5.87449">
        <ele>1286.4460449219</ele>
        <time>2017-12-15T09:56:58Z</time>
      </trkpt>
      <trkpt lat="45.31334" lon="5.87462">
        <ele>1286.4460449219</ele>
        <time>2017-12-15T09:56:59Z</time>
      </trkpt>
      <trkpt lat="45.31336" lon="5.8748">
        <ele>1280.4460449219</ele>
        <time>2017-12-15T09:57:01Z</time>
      </trkpt>
      <trkpt lat="45.31342" lon="5.87497">
        <ele>1273.4460449219</ele>
        <time>2017-12-15T09:57:03Z</time>
      </trkpt>
      <trkpt lat="45.31352" lon="5.87514">
        <ele>1267.4460449219</ele>
        <time>2017-12-15T09:57:05Z</time>
      </trkpt>
      <trkpt lat="45.3136" lon="5.87533">
        <ele>1265.4460449219</ele>
        <time>2017-12-15T09:57:07Z</time>
      </trkpt>
      <trkpt lat="45.31359" lon="5.87578">
        <ele>1255.4460449219</ele>
        <time>2017-12-15T09:57:10Z</time>
      </trkpt>
      <trkpt lat="45.31361" lon="5.87587">
        <ele>1250.4460449219</ele>
        <time>2017-12-15T09:57:11Z</time>
      </trkpt>
      <trkpt lat="45.31363" lon="5.87615">
        <ele>1246.4460449219</ele>
        <time>2017-12-15T09:57:13Z</time>
      </trkpt>
      <trkpt lat="45.31367" lon="5.87637">
        <ele>1240.4460449219</ele>
        <time>2017-12-15T09:57:15Z</time>
      </trkpt>
      <trkpt lat="45.3137" lon="5.87658">
        <ele>1235.4460449219</ele>
        <time>2017-12-15T09:57:17Z</time>
      </trkpt>
      <trkpt lat="45.31373" lon="5.8768">
        <ele>1231.4460449219</ele>
        <time>2017-12-15T09:57:19Z</time>
      </trkpt>
      <trkpt lat="45.31372" lon="5.87697">
        <ele>1224.4460449219</ele>
        <time>2017-12-15T09:57:20Z</time>
      </trkpt>
      <trkpt lat="45.31368" lon="5.87723">
        <ele>1220.4460449219</ele>
        <time>2017-12-15T09:57:22Z</time>
      </trkpt>
      <trkpt lat="45.31359" lon="5.87746">
        <ele>1211.4460449219</ele>
        <time>2017-12-15T09:57:24Z</time>
      </trkpt>
      <trkpt lat="45.31357" lon="5.87773">
        <ele>1206.4460449219</ele>
        <time>2017-12-15T09:57:26Z</time>
      </trkpt>
      <trkpt lat="45.31354" lon="5.87801">
        <ele>1198.4460449219</ele>
        <time>2017-12-15T09:57:28Z</time>
      </trkpt>
      <trkpt lat="45.31351" lon="5.87812">
        <ele>1194.4460449219</ele>
        <time>2017-12-15T09:57:29Z</time>
      </trkpt>
      <trkpt lat="45.31339" lon="5.87835">
        <ele>1183.4460449219</ele>
        <time>2017-12-15T09:57:32Z</time>
      </trkpt>
      <trkpt lat="45.31328" lon="5.87842">
        <ele>1176.4460449219</ele>
        <time>2017-12-15T09:57:34Z</time>
      </trkpt>
      <trkpt lat="45.3132" lon="5.8786">
        <ele>1169.4460449219</ele>
        <time>2017-12-15T09:57:36Z</time>
      </trkpt>
      <trkpt lat="45.31317" lon="5.87881">
        <ele>1160.4460449219</ele>
        <time>2017-12-15T09:57:38Z</time>
      </trkpt>
      <trkpt lat="45.31313" lon="5.87908">
        <ele>1154.4460449219</ele>
        <time>2017-12-15T09:57:40Z</time>
      </trkpt>
      <trkpt lat="45.31311" lon="5.87936">
        <ele>1148.4460449219</ele>
        <time>2017-12-15T09:57:42Z</time>
      </trkpt>
      <trkpt lat="45.31307" lon="5.87949">
        <ele>1146.4460449219</ele>
        <time>2017-12-15T09:57:43Z</time>
      </trkpt>
      <trkpt lat="45.31302" lon="5.87977">
        <ele>1140.4460449219</ele>
        <time>2017-12-15T09:57:45Z</time>
      </trkpt>
      <trkpt lat="45.31295" lon="5.88006">
        <ele>1138.4460449219</ele>
        <time>2017-12-15T09:57:47Z</time>
      </trkpt>
      <trkpt lat="45.31285" lon="5.88037">
        <ele>1135.4470214844</ele>
        <time>2017-12-15T09:57:49Z</time>
      </trkpt>
      <trkpt lat="45.3127" lon="5.88064">
        <ele>1132.4470214844</ele>
        <time>2017-12-15T09:57:51Z</time>
      </trkpt>
      <trkpt lat="45.31257" lon="5.88091">
        <ele>1130.4470214844</ele>
        <time>2017-12-15T09:57:53Z</time>
      </trkpt>
      <trkpt lat="45.31252" lon="5.8812">
        <ele>1124.4470214844</ele>
        <time>2017-12-15T09:57:55Z</time>
      </trkpt>
      <trkpt lat="45.31249" lon="5.88143">
        <ele>1104.4470214844</ele>
        <time>2017-12-15T09:57:58Z</time>
      </trkpt>
      <trkpt lat="45.31251" lon="5.88173">
        <ele>1099.4470214844</ele>
        <time>2017-12-15T09:58:00Z</time>
      </trkpt>
      <trkpt lat="45.31258" lon="5.882">
        <ele>1093.4470214844</ele>
        <time>2017-12-15T09:58:02Z</time>
      </trkpt>
      <trkpt lat="45.31271" lon="5.88227">
        <ele>1086.4470214844</ele>
        <time>2017-12-15T09:58:04Z</time>
      </trkpt>
      <trkpt lat="45.31276" lon="5.88235">
        <ele>1081.4470214844</ele>
        <time>2017-12-15T09:58:05Z</time>
      </trkpt>
      <trkpt lat="45.31285" lon="5.88257">
        <ele>1073.4470214844</ele>
        <time>2017-12-15T09:58:07Z</time>
      </trkpt>
      <trkpt lat="45.31287" lon="5.88286">
        <ele>1062.4470214844</ele>
        <time>2017-12-15T09:58:09Z</time>
      </trkpt>
      <trkpt lat="45.31296" lon="5.88318">
        <ele>1056.4470214844</ele>
        <time>2017-12-15T09:58:11Z</time>
      </trkpt>
      <trkpt lat="45.31297" lon="5.88352">
        <ele>1051.4470214844</ele>
        <time>2017-12-15T09:58:13Z</time>
      </trkpt>
      <trkpt lat="45.31304" lon="5.88361">
        <ele>1041.4470214844</ele>
        <time>2017-12-15T09:58:15Z</time>
      </trkpt>
      <trkpt lat="45.31318" lon="5.88377">
        <ele>1035.4470214844</ele>
        <time>2017-12-15T09:58:17Z</time>
      </trkpt>
      <trkpt lat="45.31331" lon="5.88386">
        <ele>1033.4470214844</ele>
        <time>2017-12-15T09:58:18Z</time>
      </trkpt>
      <trkpt lat="45.31351" lon="5.88398">
        <ele>1025.4470214844</ele>
        <time>2017-12-15T09:58:20Z</time>
      </trkpt>
      <trkpt lat="45.31364" lon="5.88402">
        <ele>1015.4470214844</ele>
        <time>2017-12-15T09:58:22Z</time>
      </trkpt>
      <trkpt lat="45.31369" lon="5.88425">
        <ele>1007.4470214844</ele>
        <time>2017-12-15T09:58:24Z</time>
      </trkpt>
      <trkpt lat="45.31369" lon="5.88451">
        <ele>1000.4470214844</ele>
        <time>2017-12-15T09:58:26Z</time>
      </trkpt>
      <trkpt lat="45.31367" lon="5.88477">
        <ele>993.44702148438</ele>
        <time>2017-12-15T09:58:28Z</time>
      </trkpt>
      <trkpt lat="45.31367" lon="5.88503">
        <ele>988.44702148438</ele>
        <time>2017-12-15T09:58:30Z</time>
      </trkpt>
      <trkpt lat="45.3137" lon="5.88528">
        <ele>984.44702148438</ele>
        <time>2017-12-15T09:58:32Z</time>
      </trkpt>
      <trkpt lat="45.31378" lon="5.88528">
        <ele>982.44702148438</ele>
        <time>2017-12-15T09:58:38Z</time>
      </trkpt>
      <trkpt lat="45.31376" lon="5.88521">
        <ele>981.44702148438</ele>
        <time>2017-12-15T09:59:49Z</time>
      </trkpt>
      <trkpt lat="45.31376" lon="5.88514">
        <ele>982.44702148438</ele>
        <time>2017-12-15T09:59:53Z</time>
      </trkpt>
      <trkpt lat="45.31376" lon="5.88506">
        <ele>983.44702148438</ele>
        <time>2017-12-15T09:59:57Z</time>
      </trkpt>
      <trkpt lat="45.31375" lon="5.88499">
        <ele>982.44702148438</ele>
        <time>2017-12-15T10:00:01Z</time>
      </trkpt>
      <trkpt lat="45.31374" lon="5.88491">
        <ele>983.44702148438</ele>
        <time>2017-12-15T10:00:05Z</time>
      </trkpt>
      <trkpt lat="45.31374" lon="5.88484">
        <ele>982.44702148438</ele>
        <time>2017-12-15T10:00:09Z</time>
      </trkpt>
      <trkpt lat="45.31375" lon="5.88477">
        <ele>983.44702148438</ele>
        <time>2017-12-15T10:00:14Z</time>
      </trkpt>
      <trkpt lat="45.31376" lon="5.88468">
        <ele>984.44702148438</ele>
        <time>2017-12-15T10:00:19Z</time>
      </trkpt>
      <trkpt lat="45.31377" lon="5.88461">
        <ele>984.44702148438</ele>
        <time>2017-12-15T10:00:24Z</time>
      </trkpt>
      <trkpt lat="45.31377" lon="5.88453">
        <ele>985.44702148438</ele>
        <time>2017-12-15T10:00:29Z</time>
      </trkpt>
      <trkpt lat="45.31379" lon="5.88446">
        <ele>988.44702148438</ele>
        <time>2017-12-15T10:00:34Z</time>
      </trkpt>
      <trkpt lat="45.31379" lon="5.88439">
        <ele>988.44702148438</ele>
        <time>2017-12-15T10:00:38Z</time>
      </trkpt>
      <trkpt lat="45.31381" lon="5.88432">
        <ele>990.44702148438</ele>
        <time>2017-12-15T10:00:42Z</time>
      </trkpt>
      <trkpt lat="45.31382" lon="5.88425">
        <ele>990.44702148438</ele>
        <time>2017-12-15T10:00:47Z</time>
      </trkpt>
      <trkpt lat="45.31383" lon="5.88417">
        <ele>990.44702148438</ele>
        <time>2017-12-15T10:00:52Z</time>
      </trkpt>
      <trkpt lat="45.31386" lon="5.88411">
        <ele>991.44702148438</ele>
        <time>2017-12-15T10:00:56Z</time>
      </trkpt>
      <trkpt lat="45.31387" lon="5.88404">
        <ele>992.44702148438</ele>
        <time>2017-12-15T10:01:01Z</time>
      </trkpt>
      <trkpt lat="45.31389" lon="5.88397">
        <ele>995.44702148438</ele>
        <time>2017-12-15T10:01:07Z</time>
      </trkpt>
      <trkpt lat="45.31391" lon="5.88391">
        <ele>997.44702148438</ele>
        <time>2017-12-15T10:01:12Z</time>
      </trkpt>
      <trkpt lat="45.31392" lon="5.88385">
        <ele>997.44702148438</ele>
        <time>2017-12-15T10:01:16Z</time>
      </trkpt>
      <trkpt lat="45.31394" lon="5.88379">
        <ele>998.44702148438</ele>
        <time>2017-12-15T10:01:21Z</time>
      </trkpt>
      <trkpt lat="45.31395" lon="5.88372">
        <ele>1000.4470214844</ele>
        <time>2017-12-15T10:01:26Z</time>
      </trkpt>
      <trkpt lat="45.31397" lon="5.88364">
        <ele>1001.4470214844</ele>
        <time>2017-12-15T10:01:32Z</time>
      </trkpt>
      <trkpt lat="45.31398" lon="5.88357">
        <ele>1002.4470214844</ele>
        <time>2017-12-15T10:01:37Z</time>
      </trkpt>
      <trkpt lat="45.314" lon="5.88351">
        <ele>1007.4470214844</ele>
        <time>2017-12-15T10:01:42Z</time>
      </trkpt>
      <trkpt lat="45.31401" lon="5.88345">
        <ele>1008.4470214844</ele>
        <time>2017-12-15T10:01:48Z</time>
      </trkpt>
      <trkpt lat="45.31403" lon="5.88338">
        <ele>1009.4470214844</ele>
        <time>2017-12-15T10:01:54Z</time>
      </trkpt>
      <trkpt lat="45.31405" lon="5.88332">
        <ele>1011.4470214844</ele>
        <time>2017-12-15T10:02:00Z</time>
      </trkpt>
      <trkpt lat="45.31407" lon="5.88324">
        <ele>1013.4470214844</ele>
        <time>2017-12-15T10:02:06Z</time>
      </trkpt>
      <trkpt lat="45.31407" lon="5.88318">
        <ele>1015.4470214844</ele>
        <time>2017-12-15T10:02:12Z</time>
      </trkpt>
      <trkpt lat="45.31409" lon="5.88311">
        <ele>1016.4470214844</ele>
        <time>2017-12-15T10:02:17Z</time>
      </trkpt>
      <trkpt lat="45.3141" lon="5.88303">
        <ele>1018.4470214844</ele>
        <time>2017-12-15T10:02:23Z</time>
      </trkpt>
      <trkpt lat="45.31411" lon="5.88297">
        <ele>1020.4470214844</ele>
        <time>2017-12-15T10:02:29Z</time>
      </trkpt>
      <trkpt lat="45.31411" lon="5.8829">
        <ele>1020.4470214844</ele>
        <time>2017-12-15T10:02:36Z</time>
      </trkpt>
      <trkpt lat="45.31412" lon="5.88283">
        <ele>1021.4470214844</ele>
        <time>2017-12-15T10:02:43Z</time>
      </trkpt>
      <trkpt lat="45.31414" lon="5.88276">
        <ele>1021.4470214844</ele>
        <time>2017-12-15T10:02:49Z</time>
      </trkpt>
      <trkpt lat="45.31415" lon="5.88269">
        <ele>1025.4470214844</ele>
        <time>2017-12-15T10:02:57Z</time>
      </trkpt>
      <trkpt lat="45.31416" lon="5.88263">
        <ele>1025.4470214844</ele>
        <time>2017-12-15T10:03:04Z</time>
      </trkpt>
      <trkpt lat="45.31417" lon="5.88256">
        <ele>1025.4470214844</ele>
        <time>2017-12-15T10:03:09Z</time>
      </trkpt>
      <trkpt lat="45.31418" lon="5.88249">
        <ele>1027.4470214844</ele>
        <time>2017-12-15T10:03:16Z</time>
      </trkpt>
      <trkpt lat="45.31418" lon="5.88242">
        <ele>1027.4470214844</ele>
        <time>2017-12-15T10:03:22Z</time>
      </trkpt>
      <trkpt lat="45.31417" lon="5.88236">
        <ele>1029.4470214844</ele>
        <time>2017-12-15T10:03:27Z</time>
      </trkpt>
      <trkpt lat="45.31417" lon="5.88229">
        <ele>1032.4470214844</ele>
        <time>2017-12-15T10:03:33Z</time>
      </trkpt>
      <trkpt lat="45.31416" lon="5.88222">
        <ele>1033.4470214844</ele>
        <time>2017-12-15T10:03:39Z</time>
      </trkpt>
      <trkpt lat="45.31417" lon="5.88215">
        <ele>1034.4470214844</ele>
        <time>2017-12-15T10:03:46Z</time>
      </trkpt>
      <trkpt lat="45.31417" lon="5.88208">
        <ele>1036.4470214844</ele>
        <time>2017-12-15T10:03:52Z</time>
      </trkpt>
      <trkpt lat="45.31417" lon="5.88202">
        <ele>1039.4470214844</ele>
        <time>2017-12-15T10:03:58Z</time>
      </trkpt>
      <trkpt lat="45.31418" lon="5.88195">
        <ele>1041.4470214844</ele>
        <time>2017-12-15T10:04:05Z</time>
      </trkpt>
      <trkpt lat="45.31418" lon="5.88188">
        <ele>1042.4470214844</ele>
        <time>2017-12-15T10:04:11Z</time>
      </trkpt>
      <trkpt lat="45.31418" lon="5.88181">
        <ele>1044.4470214844</ele>
        <time>2017-12-15T10:04:18Z</time>
      </trkpt>
      <trkpt lat="45.31417" lon="5.88174">
        <ele>1044.4470214844</ele>
        <time>2017-12-15T10:04:24Z</time>
      </trkpt>
      <trkpt lat="45.31416" lon="5.88168">
        <ele>1045.4470214844</ele>
        <time>2017-12-15T10:04:31Z</time>
      </trkpt>
      <trkpt lat="45.31415" lon="5.88161">
        <ele>1048.4470214844</ele>
        <time>2017-12-15T10:04:38Z</time>
      </trkpt>
      <trkpt lat="45.31416" lon="5.88154">
        <ele>1050.4470214844</ele>
        <time>2017-12-15T10:04:46Z</time>
      </trkpt>
      <trkpt lat="45.31418" lon="5.88147">
        <ele>1053.4470214844</ele>
        <time>2017-12-15T10:04:53Z</time>
      </trkpt>
      <trkpt lat="45.3142" lon="5.88141">
        <ele>1055.4470214844</ele>
        <time>2017-12-15T10:05:00Z</time>
      </trkpt>
      <trkpt lat="45.31421" lon="5.88134">
        <ele>1060.4470214844</ele>
        <time>2017-12-15T10:05:09Z</time>
      </trkpt>
      <trkpt lat="45.31419" lon="5.88128">
        <ele>1061.4470214844</ele>
        <time>2017-12-15T10:05:16Z</time>
      </trkpt>
      <trkpt lat="45.31417" lon="5.88122">
        <ele>1063.4470214844</ele>
        <time>2017-12-15T10:05:23Z</time>
      </trkpt>
      <trkpt lat="45.31414" lon="5.88116">
        <ele>1066.4470214844</ele>
        <time>2017-12-15T10:05:30Z</time>
      </trkpt>
      <trkpt lat="45.31411" lon="5.88108">
        <ele>1069.4470214844</ele>
        <time>2017-12-15T10:05:40Z</time>
      </trkpt>
      <trkpt lat="45.31408" lon="5.88102">
        <ele>1070.4470214844</ele>
        <time>2017-12-15T10:05:47Z</time>
      </trkpt>
      <trkpt lat="45.31405" lon="5.88097">
        <ele>1072.4470214844</ele>
        <time>2017-12-15T10:05:53Z</time>
      </trkpt>
      <trkpt lat="45.31403" lon="5.8809">
        <ele>1072.4470214844</ele>
        <time>2017-12-15T10:06:01Z</time>
      </trkpt>
      <trkpt lat="45.31401" lon="5.88085">
        <ele>1075.4470214844</ele>
        <time>2017-12-15T10:06:07Z</time>
      </trkpt>
      <trkpt lat="45.31399" lon="5.88078">
        <ele>1076.4470214844</ele>
        <time>2017-12-15T10:06:14Z</time>
      </trkpt>
      <trkpt lat="45.31395" lon="5.88073">
        <ele>1080.4470214844</ele>
        <time>2017-12-15T10:06:21Z</time>
      </trkpt>
      <trkpt lat="45.31391" lon="5.88067">
        <ele>1084.4470214844</ele>
        <time>2017-12-15T10:06:29Z</time>
      </trkpt>
      <trkpt lat="45.31392" lon="5.8806">
        <ele>1086.4470214844</ele>
        <time>2017-12-15T10:06:34Z</time>
      </trkpt>
      <trkpt lat="45.3139" lon="5.88052">
        <ele>1089.4470214844</ele>
        <time>2017-12-15T10:06:43Z</time>
      </trkpt>
      <trkpt lat="45.31385" lon="5.88047">
        <ele>1091.4470214844</ele>
        <time>2017-12-15T10:06:52Z</time>
      </trkpt>
      <trkpt lat="45.31385" lon="5.88041">
        <ele>1092.4470214844</ele>
        <time>2017-12-15T10:06:58Z</time>
      </trkpt>
      <trkpt lat="45.31381" lon="5.8804">
        <ele>1093.4470214844</ele>
        <time>2017-12-15T10:07:03Z</time>
      </trkpt>
      <trkpt lat="45.31379" lon="5.88033">
        <ele>1095.4470214844</ele>
        <time>2017-12-15T10:07:10Z</time>
      </trkpt>
      <trkpt lat="45.31375" lon="5.88028">
        <ele>1097.4470214844</ele>
        <time>2017-12-15T10:07:17Z</time>
      </trkpt>
      <trkpt lat="45.31374" lon="5.88022">
        <ele>1100.4470214844</ele>
        <time>2017-12-15T10:07:25Z</time>
      </trkpt>
      <trkpt lat="45.31372" lon="5.88016">
        <ele>1101.4470214844</ele>
        <time>2017-12-15T10:07:34Z</time>
      </trkpt>
      <trkpt lat="45.31371" lon="5.88009">
        <ele>1104.4470214844</ele>
        <time>2017-12-15T10:07:44Z</time>
      </trkpt>
      <trkpt lat="45.31368" lon="5.88004">
        <ele>1106.4470214844</ele>
        <time>2017-12-15T10:07:49Z</time>
      </trkpt>
      <trkpt lat="45.31365" lon="5.87998">
        <ele>1109.4470214844</ele>
        <time>2017-12-15T10:07:55Z</time>
      </trkpt>
      <trkpt lat="45.31363" lon="5.87992">
        <ele>1112.4470214844</ele>
        <time>2017-12-15T10:08:00Z</time>
      </trkpt>
      <trkpt lat="45.3136" lon="5.87986">
        <ele>1115.4470214844</ele>
        <time>2017-12-15T10:08:05Z</time>
      </trkpt>
      <trkpt lat="45.31359" lon="5.87979">
        <ele>1115.4470214844</ele>
        <time>2017-12-15T10:08:12Z</time>
      </trkpt>
      <trkpt lat="45.31357" lon="5.87973">
        <ele>1119.4470214844</ele>
        <time>2017-12-15T10:08:19Z</time>
      </trkpt>
      <trkpt lat="45.31354" lon="5.87967">
        <ele>1120.4470214844</ele>
        <time>2017-12-15T10:08:24Z</time>
      </trkpt>
      <trkpt lat="45.31353" lon="5.8796">
        <ele>1125.4470214844</ele>
        <time>2017-12-15T10:08:33Z</time>
      </trkpt>
      <trkpt lat="45.31355" lon="5.87954">
        <ele>1129.4470214844</ele>
        <time>2017-12-15T10:08:46Z</time>
      </trkpt>
      <trkpt lat="45.31355" lon="5.87947">
        <ele>1129.4470214844</ele>
        <time>2017-12-15T10:08:51Z</time>
      </trkpt>
      <trkpt lat="45.31357" lon="5.87941">
        <ele>1130.4470214844</ele>
        <time>2017-12-15T10:08:57Z</time>
      </trkpt>
      <trkpt lat="45.31358" lon="5.87935">
        <ele>1134.4470214844</ele>
        <time>2017-12-15T10:09:05Z</time>
      </trkpt>
      <trkpt lat="45.31363" lon="5.87929">
        <ele>1134.4470214844</ele>
        <time>2017-12-15T10:09:14Z</time>
      </trkpt>
      <trkpt lat="45.31363" lon="5.87921">
        <ele>1137.4470214844</ele>
        <time>2017-12-15T10:09:20Z</time>
      </trkpt>
      <trkpt lat="45.31364" lon="5.87915">
        <ele>1139.4460449219</ele>
        <time>2017-12-15T10:09:27Z</time>
      </trkpt>
      <trkpt lat="45.31365" lon="5.87908">
        <ele>1139.4460449219</ele>
        <time>2017-12-15T10:09:31Z</time>
      </trkpt>
      <trkpt lat="45.31366" lon="5.879">
        <ele>1143.4460449219</ele>
        <time>2017-12-15T10:09:37Z</time>
      </trkpt>
      <trkpt lat="45.31364" lon="5.87893">
        <ele>1143.4460449219</ele>
        <time>2017-12-15T10:09:42Z</time>
      </trkpt>
      <trkpt lat="45.31368" lon="5.87887">
        <ele>1148.4460449219</ele>
        <time>2017-12-15T10:09:47Z</time>
      </trkpt>
      <trkpt lat="45.31368" lon="5.8788">
        <ele>1151.4460449219</ele>
        <time>2017-12-15T10:09:54Z</time>
      </trkpt>
      <trkpt lat="45.3137" lon="5.87874">
        <ele>1151.4460449219</ele>
        <time>2017-12-15T10:09:58Z</time>
      </trkpt>
      <trkpt lat="45.31369" lon="5.87867">
        <ele>1154.4460449219</ele>
        <time>2017-12-15T10:10:04Z</time>
      </trkpt>
      <trkpt lat="45.31368" lon="5.8786">
        <ele>1155.4460449219</ele>
        <time>2017-12-15T10:10:11Z</time>
      </trkpt>
      <trkpt lat="45.31367" lon="5.87854">
        <ele>1157.4460449219</ele>
        <time>2017-12-15T10:10:17Z</time>
      </trkpt>
      <trkpt lat="45.31366" lon="5.87846">
        <ele>1158.4460449219</ele>
        <time>2017-12-15T10:10:21Z</time>
      </trkpt>
      <trkpt lat="45.31365" lon="5.8784">
        <ele>1159.4460449219</ele>
        <time>2017-12-15T10:10:26Z</time>
      </trkpt>
      <trkpt lat="45.31363" lon="5.87834">
        <ele>1160.4460449219</ele>
        <time>2017-12-15T10:10:31Z</time>
      </trkpt>
      <trkpt lat="45.31364" lon="5.87814">
        <ele>1162.4460449219</ele>
        <time>2017-12-15T10:10:43Z</time>
      </trkpt>
      <trkpt lat="45.3136" lon="5.8781">
        <ele>1165.4460449219</ele>
        <time>2017-12-15T10:10:51Z</time>
      </trkpt>
      <trkpt lat="45.31359" lon="5.87804">
        <ele>1166.4460449219</ele>
        <time>2017-12-15T10:10:58Z</time>
      </trkpt>
      <trkpt lat="45.31358" lon="5.87797">
        <ele>1168.4460449219</ele>
        <time>2017-12-15T10:11:05Z</time>
      </trkpt>
      <trkpt lat="45.31359" lon="5.8779">
        <ele>1169.4460449219</ele>
        <time>2017-12-15T10:11:11Z</time>
      </trkpt>
      <trkpt lat="45.31359" lon="5.87783">
        <ele>1172.4460449219</ele>
        <time>2017-12-15T10:11:18Z</time>
      </trkpt>
      <trkpt lat="45.31358" lon="5.87777">
        <ele>1174.4460449219</ele>
        <time>2017-12-15T10:11:24Z</time>
      </trkpt>
      <trkpt lat="45.31358" lon="5.8777">
        <ele>1177.4460449219</ele>
        <time>2017-12-15T10:11:30Z</time>
      </trkpt>
      <trkpt lat="45.31359" lon="5.87763">
        <ele>1179.4460449219</ele>
        <time>2017-12-15T10:11:35Z</time>
      </trkpt>
      <trkpt lat="45.3136" lon="5.87756">
        <ele>1180.4460449219</ele>
        <time>2017-12-15T10:11:41Z</time>
      </trkpt>
      <trkpt lat="45.3136" lon="5.8775">
        <ele>1181.4460449219</ele>
        <time>2017-12-15T10:11:46Z</time>
      </trkpt>
      <trkpt lat="45.31361" lon="5.87743">
        <ele>1184.4460449219</ele>
        <time>2017-12-15T10:11:53Z</time>
      </trkpt>
      <trkpt lat="45.3136" lon="5.87736">
        <ele>1184.4460449219</ele>
        <time>2017-12-15T10:11:59Z</time>
      </trkpt>
      <trkpt lat="45.31358" lon="5.8773">
        <ele>1184.4460449219</ele>
        <time>2017-12-15T10:12:06Z</time>
      </trkpt>
      <trkpt lat="45.31358" lon="5.87723">
        <ele>1186.4460449219</ele>
        <time>2017-12-15T10:12:12Z</time>
      </trkpt>
      <trkpt lat="45.31355" lon="5.87717">
        <ele>1188.4460449219</ele>
        <time>2017-12-15T10:12:19Z</time>
      </trkpt>
      <trkpt lat="45.31358" lon="5.87712">
        <ele>1188.4460449219</ele>
        <time>2017-12-15T10:12:22Z</time>
      </trkpt>
      <trkpt lat="45.31359" lon="5.87706">
        <ele>1191.4460449219</ele>
        <time>2017-12-15T10:12:28Z</time>
      </trkpt>
      <trkpt lat="45.31362" lon="5.87698">
        <ele>1195.4460449219</ele>
        <time>2017-12-15T10:12:35Z</time>
      </trkpt>
      <trkpt lat="45.31362" lon="5.87691">
        <ele>1199.4460449219</ele>
        <time>2017-12-15T10:12:44Z</time>
      </trkpt>
      <trkpt lat="45.3136" lon="5.87684">
        <ele>1201.4460449219</ele>
        <time>2017-12-15T10:12:53Z</time>
      </trkpt>
      <trkpt lat="45.31362" lon="5.87676">
        <ele>1204.4460449219</ele>
        <time>2017-12-15T10:13:00Z</time>
      </trkpt>
      <trkpt lat="45.31362" lon="5.87669">
        <ele>1204.4460449219</ele>
        <time>2017-12-15T10:13:07Z</time>
      </trkpt>
      <trkpt lat="45.31362" lon="5.87662">
        <ele>1205.4460449219</ele>
        <time>2017-12-15T10:13:16Z</time>
      </trkpt>
      <trkpt lat="45.31361" lon="5.87655">
        <ele>1207.4460449219</ele>
        <time>2017-12-15T10:13:22Z</time>
      </trkpt>
      <trkpt lat="45.31364" lon="5.8765">
        <ele>1212.4460449219</ele>
        <time>2017-12-15T10:13:27Z</time>
      </trkpt>
      <trkpt lat="45.31362" lon="5.87642">
        <ele>1214.4460449219</ele>
        <time>2017-12-15T10:13:35Z</time>
      </trkpt>
      <trkpt lat="45.31361" lon="5.87636">
        <ele>1216.4460449219</ele>
        <time>2017-12-15T10:13:42Z</time>
      </trkpt>
      <trkpt lat="45.31357" lon="5.87632">
        <ele>1216.4460449219</ele>
        <time>2017-12-15T10:13:51Z</time>
      </trkpt>
      <trkpt lat="45.31355" lon="5.87626">
        <ele>1216.4460449219</ele>
        <time>2017-12-15T10:13:58Z</time>
      </trkpt>
      <trkpt lat="45.31354" lon="5.87619">
        <ele>1221.4460449219</ele>
        <time>2017-12-15T10:14:07Z</time>
      </trkpt>
      <trkpt lat="45.31357" lon="5.87612">
        <ele>1224.4460449219</ele>
        <time>2017-12-15T10:14:14Z</time>
      </trkpt>
      <trkpt lat="45.31357" lon="5.87606">
        <ele>1227.4460449219</ele>
        <time>2017-12-15T10:14:21Z</time>
      </trkpt>
      <trkpt lat="45.31356" lon="5.87599">
        <ele>1231.4460449219</ele>
        <time>2017-12-15T10:14:29Z</time>
      </trkpt>
      <trkpt lat="45.31354" lon="5.87593">
        <ele>1232.4460449219</ele>
        <time>2017-12-15T10:14:36Z</time>
      </trkpt>
      <trkpt lat="45.31352" lon="5.87586">
        <ele>1233.4460449219</ele>
        <time>2017-12-15T10:14:43Z</time>
      </trkpt>
      <trkpt lat="45.3135" lon="5.8758">
        <ele>1234.4460449219</ele>
        <time>2017-12-15T10:14:51Z</time>
      </trkpt>
      <trkpt lat="45.31349" lon="5.87572">
        <ele>1236.4460449219</ele>
        <time>2017-12-15T10:14:57Z</time>
      </trkpt>
      <trkpt lat="45.31347" lon="5.87566">
        <ele>1238.4460449219</ele>
        <time>2017-12-15T10:15:03Z</time>
      </trkpt>
      <trkpt lat="45.31348" lon="5.8756">
        <ele>1239.4460449219</ele>
        <time>2017-12-15T10:15:09Z</time>
      </trkpt>
      <trkpt lat="45.31346" lon="5.87553">
        <ele>1241.4460449219</ele>
        <time>2017-12-15T10:15:16Z</time>
      </trkpt>
      <trkpt lat="45.31344" lon="5.87547">
        <ele>1243.4460449219</ele>
        <time>2017-12-15T10:15:24Z</time>
      </trkpt>
      <trkpt lat="45.31343" lon="5.87541">
        <ele>1244.4460449219</ele>
        <time>2017-12-15T10:15:31Z</time>
      </trkpt>
      <trkpt lat="45.31341" lon="5.87533">
        <ele>1247.4460449219</ele>
        <time>2017-12-15T10:15:39Z</time>
      </trkpt>
      <trkpt lat="45.3134" lon="5.87526">
        <ele>1249.4460449219</ele>
        <time>2017-12-15T10:15:46Z</time>
      </trkpt>
      <trkpt lat="45.31339" lon="5.87519">
        <ele>1252.4460449219</ele>
        <time>2017-12-15T10:15:54Z</time>
      </trkpt>
      <trkpt lat="45.31339" lon="5.87513">
        <ele>1253.4460449219</ele>
        <time>2017-12-15T10:16:01Z</time>
      </trkpt>
      <trkpt lat="45.31338" lon="5.87506">
        <ele>1257.4460449219</ele>
        <time>2017-12-15T10:16:11Z</time>
      </trkpt>
      <trkpt lat="45.31338" lon="5.87499">
        <ele>1258.4460449219</ele>
        <time>2017-12-15T10:16:18Z</time>
      </trkpt>
      <trkpt lat="45.31336" lon="5.87493">
        <ele>1260.4460449219</ele>
        <time>2017-12-15T10:16:26Z</time>
      </trkpt>
      <trkpt lat="45.31336" lon="5.87486">
        <ele>1262.4460449219</ele>
        <time>2017-12-15T10:16:32Z</time>
      </trkpt>
      <trkpt lat="45.31334" lon="5.87479">
        <ele>1265.4460449219</ele>
        <time>2017-12-15T10:16:40Z</time>
      </trkpt>
      <trkpt lat="45.31333" lon="5.87472">
        <ele>1268.4460449219</ele>
        <time>2017-12-15T10:16:49Z</time>
      </trkpt>
      <trkpt lat="45.31331" lon="5.87465">
        <ele>1271.4460449219</ele>
        <time>2017-12-15T10:16:58Z</time>
      </trkpt>
      <trkpt lat="45.3133" lon="5.87458">
        <ele>1272.4460449219</ele>
        <time>2017-12-15T10:17:05Z</time>
      </trkpt>
      <trkpt lat="45.31329" lon="5.87452">
        <ele>1275.4460449219</ele>
        <time>2017-12-15T10:17:13Z</time>
      </trkpt>
      <trkpt lat="45.31327" lon="5.87446">
        <ele>1278.4460449219</ele>
        <time>2017-12-15T10:17:20Z</time>
      </trkpt>
      <trkpt lat="45.31325" lon="5.87439">
        <ele>1278.4460449219</ele>
        <time>2017-12-15T10:17:28Z</time>
      </trkpt>
      <trkpt lat="45.31323" lon="5.87433">
        <ele>1280.4460449219</ele>
        <time>2017-12-15T10:17:35Z</time>
      </trkpt>
      <trkpt lat="45.31321" lon="5.87426">
        <ele>1282.4460449219</ele>
        <time>2017-12-15T10:17:43Z</time>
      </trkpt>
      <trkpt lat="45.31321" lon="5.87419">
        <ele>1284.4460449219</ele>
        <time>2017-12-15T10:17:49Z</time>
      </trkpt>
      <trkpt lat="45.31321" lon="5.87411">
        <ele>1286.4460449219</ele>
        <time>2017-12-15T10:17:56Z</time>
      </trkpt>
      <trkpt lat="45.31322" lon="5.87404">
        <ele>1289.4460449219</ele>
        <time>2017-12-15T10:18:02Z</time>
      </trkpt>
      <trkpt lat="45.31324" lon="5.87397">
        <ele>1291.4460449219</ele>
        <time>2017-12-15T10:18:08Z</time>
      </trkpt>
      <trkpt lat="45.31326" lon="5.87391">
        <ele>1295.4460449219</ele>
        <time>2017-12-15T10:18:14Z</time>
      </trkpt>
      <trkpt lat="45.31325" lon="5.87385">
        <ele>1296.4460449219</ele>
        <time>2017-12-15T10:18:19Z</time>
      </trkpt>
      <trkpt lat="45.31327" lon="5.87378">
        <ele>1298.4460449219</ele>
        <time>2017-12-15T10:18:23Z</time>
      </trkpt>
      <trkpt lat="45.31328" lon="5.87372">
        <ele>1298.4460449219</ele>
        <time>2017-12-15T10:18:27Z</time>
      </trkpt>
      <trkpt lat="45.3133" lon="5.87364">
        <ele>1300.4460449219</ele>
        <time>2017-12-15T10:18:31Z</time>
      </trkpt>
      <trkpt lat="45.31332" lon="5.87356">
        <ele>1299.4460449219</ele>
        <time>2017-12-15T10:18:35Z</time>
      </trkpt>
      <trkpt lat="45.31333" lon="5.87349">
        <ele>1300.4460449219</ele>
        <time>2017-12-15T10:18:39Z</time>
      </trkpt>
      <trkpt lat="45.31334" lon="5.87341">
        <ele>1299.4460449219</ele>
        <time>2017-12-15T10:18:43Z</time>
      </trkpt>
      <trkpt lat="45.31335" lon="5.87334">
        <ele>1299.4460449219</ele>
        <time>2017-12-15T10:18:47Z</time>
      </trkpt>
      <trkpt lat="45.31336" lon="5.87326">
        <ele>1300.4460449219</ele>
        <time>2017-12-15T10:18:53Z</time>
      </trkpt>
      <trkpt lat="45.31338" lon="5.87319">
        <ele>1301.4460449219</ele>
        <time>2017-12-15T10:18:57Z</time>
      </trkpt>
      <trkpt lat="45.31339" lon="5.87297">
        <ele>1301.4460449219</ele>
        <time>2017-12-15T10:19:13Z</time>
      </trkpt>
      <trkpt lat="45.31342" lon="5.87291">
        <ele>1306.4460449219</ele>
        <time>2017-12-15T10:19:21Z</time>
      </trkpt>
      <trkpt lat="45.31342" lon="5.87284">
        <ele>1306.4460449219</ele>
        <time>2017-12-15T10:19:27Z</time>
      </trkpt>
      <trkpt lat="45.31341" lon="5.87277">
        <ele>1305.4460449219</ele>
        <time>2017-12-15T10:19:33Z</time>
      </trkpt>
      <trkpt lat="45.31342" lon="5.87271">
        <ele>1299.4460449219</ele>
        <time>2017-12-15T10:19:39Z</time>
      </trkpt>
      <trkpt lat="45.31344" lon="5.87264">
        <ele>1304.4460449219</ele>
        <time>2017-12-15T10:19:44Z</time>
      </trkpt>
      <trkpt lat="45.31345" lon="5.87257">
        <ele>1308.4460449219</ele>
        <time>2017-12-15T10:19:50Z</time>
      </trkpt>
      <trkpt lat="45.31346" lon="5.8725">
        <ele>1309.4460449219</ele>
        <time>2017-12-15T10:19:56Z</time>
      </trkpt>
      <trkpt lat="45.31347" lon="5.87244">
        <ele>1310.4460449219</ele>
        <time>2017-12-15T10:20:03Z</time>
      </trkpt>
      <trkpt lat="45.31349" lon="5.87236">
        <ele>1312.4460449219</ele>
        <time>2017-12-15T10:20:09Z</time>
      </trkpt>
      <trkpt lat="45.31351" lon="5.8723">
        <ele>1314.4460449219</ele>
        <time>2017-12-15T10:20:15Z</time>
      </trkpt>
      <trkpt lat="45.31354" lon="5.87225">
        <ele>1316.4460449219</ele>
        <time>2017-12-15T10:20:22Z</time>
      </trkpt>
      <trkpt lat="45.31357" lon="5.87219">
        <ele>1318.4460449219</ele>
        <time>2017-12-15T10:20:28Z</time>
      </trkpt>
      <trkpt lat="45.3136" lon="5.87213">
        <ele>1318.4460449219</ele>
        <time>2017-12-15T10:20:32Z</time>
      </trkpt>
      <trkpt lat="45.31362" lon="5.8722">
        <ele>1325.4460449219</ele>
        <time>2017-12-15T10:22:32Z</time>
      </trkpt>
      <trkpt lat="45.31362" lon="5.87228">
        <ele>1324.4460449219</ele>
        <time>2017-12-15T10:22:34Z</time>
      </trkpt>
      <trkpt lat="45.31365" lon="5.87237">
        <ele>1322.4460449219</ele>
        <time>2017-12-15T10:22:36Z</time>
      </trkpt>
      <trkpt lat="45.31364" lon="5.87251">
        <ele>1317.4460449219</ele>
        <time>2017-12-15T10:22:38Z</time>
      </trkpt>
      <trkpt lat="45.3136" lon="5.87271">
        <ele>1313.4460449219</ele>
        <time>2017-12-15T10:22:40Z</time>
      </trkpt>
      <trkpt lat="45.31354" lon="5.8729">
        <ele>1309.4460449219</ele>
        <time>2017-12-15T10:22:42Z</time>
      </trkpt>
      <trkpt lat="45.3135" lon="5.87309">
        <ele>1305.4460449219</ele>
        <time>2017-12-15T10:22:44Z</time>
      </trkpt>
      <trkpt lat="45.31344" lon="5.8733">
        <ele>1302.4460449219</ele>
        <time>2017-12-15T10:22:46Z</time>
      </trkpt>
      <trkpt lat="45.3134" lon="5.87353">
        <ele>1298.4460449219</ele>
        <time>2017-12-15T10:22:48Z</time>
      </trkpt>
      <trkpt lat="45.31336" lon="5.87374">
        <ele>1299.4460449219</ele>
        <time>2017-12-15T10:22:50Z</time>
      </trkpt>
      <trkpt lat="45.3133" lon="5.87395">
        <ele>1295.4460449219</ele>
        <time>2017-12-15T10:22:53Z</time>
      </trkpt>
      <trkpt lat="45.31329" lon="5.87412">
        <ele>1291.4460449219</ele>
        <time>2017-12-15T10:22:55Z</time>
      </trkpt>
      <trkpt lat="45.3133" lon="5.87436">
        <ele>1285.4460449219</ele>
        <time>2017-12-15T10:23:10Z</time>
      </trkpt>
      <trkpt lat="45.31335" lon="5.87438">
        <ele>1284.4460449219</ele>
        <time>2017-12-15T10:23:12Z</time>
      </trkpt>
      <trkpt lat="45.3134" lon="5.87439">
        <ele>1283.4460449219</ele>
        <time>2017-12-15T10:23:15Z</time>
      </trkpt>
      <trkpt lat="45.31345" lon="5.87446">
        <ele>1282.4460449219</ele>
        <time>2017-12-15T10:23:19Z</time>
      </trkpt>
      <trkpt lat="45.31345" lon="5.87457">
        <ele>1278.4460449219</ele>
        <time>2017-12-15T10:23:20Z</time>
      </trkpt>
      <trkpt lat="45.31346" lon="5.87478">
        <ele>1274.4460449219</ele>
        <time>2017-12-15T10:23:22Z</time>
      </trkpt>
      <trkpt lat="45.31351" lon="5.87502">
        <ele>1270.4460449219</ele>
        <time>2017-12-15T10:23:24Z</time>
      </trkpt>
      <trkpt lat="45.31361" lon="5.87526">
        <ele>1267.4460449219</ele>
        <time>2017-12-15T10:23:26Z</time>
      </trkpt>
      <trkpt lat="45.31369" lon="5.87556">
        <ele>1263.4460449219</ele>
        <time>2017-12-15T10:23:28Z</time>
      </trkpt>
      <trkpt lat="45.3137" lon="5.87568">
        <ele>1260.4460449219</ele>
        <time>2017-12-15T10:23:29Z</time>
      </trkpt>
      <trkpt lat="45.31373" lon="5.87581">
        <ele>1258.4460449219</ele>
        <time>2017-12-15T10:23:30Z</time>
      </trkpt>
      <trkpt lat="45.31378" lon="5.87609">
        <ele>1250.4460449219</ele>
        <time>2017-12-15T10:23:32Z</time>
      </trkpt>
      <trkpt lat="45.31379" lon="5.87636">
        <ele>1244.4460449219</ele>
        <time>2017-12-15T10:23:34Z</time>
      </trkpt>
      <trkpt lat="45.31382" lon="5.87666">
        <ele>1239.4460449219</ele>
        <time>2017-12-15T10:23:36Z</time>
      </trkpt>
      <trkpt lat="45.31381" lon="5.87681">
        <ele>1235.4460449219</ele>
        <time>2017-12-15T10:23:37Z</time>
      </trkpt>
      <trkpt lat="45.3138" lon="5.87719">
        <ele>1232.4460449219</ele>
        <time>2017-12-15T10:23:39Z</time>
      </trkpt>
      <trkpt lat="45.31371" lon="5.87753">
        <ele>1228.4460449219</ele>
        <time>2017-12-15T10:23:41Z</time>
      </trkpt>
      <trkpt lat="45.31373" lon="5.87788">
        <ele>1224.4460449219</ele>
        <time>2017-12-15T10:23:43Z</time>
      </trkpt>
      <trkpt lat="45.31379" lon="5.87818">
        <ele>1208.4460449219</ele>
        <time>2017-12-15T10:23:45Z</time>
      </trkpt>
      <trkpt lat="45.31382" lon="5.87829">
        <ele>1036.4460449219</ele>
        <time>2017-12-15T10:23:46Z</time>
      </trkpt>
      <trkpt lat="45.31376" lon="5.87864">
        <ele>1094.4460449219</ele>
        <time>2017-12-15T10:23:49Z</time>
      </trkpt>
      <trkpt lat="45.31379" lon="5.87872">
        <ele>1114.4460449219</ele>
        <time>2017-12-15T10:23:50Z</time>
      </trkpt>
      <trkpt lat="45.31377" lon="5.87895">
        <ele>1132.4460449219</ele>
        <time>2017-12-15T10:23:52Z</time>
      </trkpt>
      <trkpt lat="45.31373" lon="5.87918">
        <ele>1140.4470214844</ele>
        <time>2017-12-15T10:23:54Z</time>
      </trkpt>
      <trkpt lat="45.31361" lon="5.87963">
        <ele>1143.4470214844</ele>
        <time>2017-12-15T10:23:57Z</time>
      </trkpt>
      <trkpt lat="45.31356" lon="5.87996">
        <ele>1146.4470214844</ele>
        <time>2017-12-15T10:23:59Z</time>
      </trkpt>
      <trkpt lat="45.31354" lon="5.88031">
        <ele>1145.4470214844</ele>
        <time>2017-12-15T10:24:01Z</time>
      </trkpt>
      <trkpt lat="45.3136" lon="5.8804">
        <ele>1140.4470214844</ele>
        <time>2017-12-15T10:24:02Z</time>
      </trkpt>
      <trkpt lat="45.31365" lon="5.88049">
        <ele>1135.4470214844</ele>
        <time>2017-12-15T10:24:03Z</time>
      </trkpt>
      <trkpt lat="45.31377" lon="5.88069">
        <ele>1130.4470214844</ele>
        <time>2017-12-15T10:24:05Z</time>
      </trkpt>
      <trkpt lat="45.31388" lon="5.88097">
        <ele>1125.4470214844</ele>
        <time>2017-12-15T10:24:07Z</time>
      </trkpt>
      <trkpt lat="45.31396" lon="5.88104">
        <ele>1120.4470214844</ele>
        <time>2017-12-15T10:24:09Z</time>
      </trkpt>
      <trkpt lat="45.31414" lon="5.88113">
        <ele>1109.4470214844</ele>
        <time>2017-12-15T10:24:11Z</time>
      </trkpt>
      <trkpt lat="45.3142" lon="5.88135">
        <ele>1103.4470214844</ele>
        <time>2017-12-15T10:24:13Z</time>
      </trkpt>
      <trkpt lat="45.31428" lon="5.88154">
        <ele>1093.4470214844</ele>
        <time>2017-12-15T10:24:15Z</time>
      </trkpt>
      <trkpt lat="45.31431" lon="5.88179">
        <ele>1082.4470214844</ele>
        <time>2017-12-15T10:24:17Z</time>
      </trkpt>
      <trkpt lat="45.31429" lon="5.88191">
        <ele>1078.4470214844</ele>
        <time>2017-12-15T10:24:18Z</time>
      </trkpt>
      <trkpt lat="45.31429" lon="5.88201">
        <ele>1073.4470214844</ele>
        <time>2017-12-15T10:24:19Z</time>
      </trkpt>
      <trkpt lat="45.31425" lon="5.88225">
        <ele>1066.4470214844</ele>
        <time>2017-12-15T10:24:21Z</time>
      </trkpt>
      <trkpt lat="45.31424" lon="5.88249">
        <ele>1057.4470214844</ele>
        <time>2017-12-15T10:24:23Z</time>
      </trkpt>
      <trkpt lat="45.31423" lon="5.88272">
        <ele>1048.4470214844</ele>
        <time>2017-12-15T10:24:25Z</time>
      </trkpt>
      <trkpt lat="45.31419" lon="5.88294">
        <ele>1040.4470214844</ele>
        <time>2017-12-15T10:24:27Z</time>
      </trkpt>
      <trkpt lat="45.31412" lon="5.88319">
        <ele>1035.4470214844</ele>
        <time>2017-12-15T10:24:29Z</time>
      </trkpt>
      <trkpt lat="45.31408" lon="5.88345">
        <ele>1027.4470214844</ele>
        <time>2017-12-15T10:24:31Z</time>
      </trkpt>
      <trkpt lat="45.31405" lon="5.88369">
        <ele>1022.4470214844</ele>
        <time>2017-12-15T10:24:33Z</time>
      </trkpt>
      <trkpt lat="45.31398" lon="5.88382">
        <ele>1016.4470214844</ele>
        <time>2017-12-15T10:24:34Z</time>
      </trkpt>
      <trkpt lat="45.31392" lon="5.88407">
        <ele>1009.4470214844</ele>
        <time>2017-12-15T10:24:36Z</time>
      </trkpt>
      <trkpt lat="45.31385" lon="5.8843">
        <ele>1003.4470214844</ele>
        <time>2017-12-15T10:24:38Z</time>
      </trkpt>
      <trkpt lat="45.31381" lon="5.88453">
        <ele>998.44702148438</ele>
        <time>2017-12-15T10:24:40Z</time>
      </trkpt>
      <trkpt lat="45.31377" lon="5.88474">
        <ele>996.44702148438</ele>
        <time>2017-12-15T10:24:42Z</time>
      </trkpt>
      <trkpt lat="45.31377" lon="5.88498">
        <ele>993.44702148438</ele>
        <time>2017-12-15T10:24:44Z</time>
      </trkpt>
      <trkpt lat="45.31378" lon="5.88519">
        <ele>989.44702148438</ele>
        <time>2017-12-15T10:24:46Z</time>
      </trkpt>
      <trkpt lat="45.31376" lon="5.88534">
        <ele>987.44702148438</ele>
        <time>2017-12-15T10:24:48Z</time>
      </trkpt>
      <trkpt lat="45.31377" lon="5.88525">
        <ele>982.44702148438</ele>
        <time>2017-12-15T10:27:05Z</time>
      </trkpt>
      <trkpt lat="45.31376" lon="5.88518">
        <ele>982.44702148438</ele>
        <time>2017-12-15T10:27:10Z</time>
      </trkpt>
      <trkpt lat="45.31375" lon="5.88509">
        <ele>979.44702148438</ele>
        <time>2017-12-15T10:27:14Z</time>
      </trkpt>
      <trkpt lat="45.31374" lon="5.88502">
        <ele>978.44702148438</ele>
        <time>2017-12-15T10:27:18Z</time>
      </trkpt>
      <trkpt lat="45.31375" lon="5.88494">
        <ele>980.44702148438</ele>
        <time>2017-12-15T10:27:22Z</time>
      </trkpt>
      <trkpt lat="45.31376" lon="5.88487">
        <ele>981.44702148438</ele>
        <time>2017-12-15T10:27:25Z</time>
      </trkpt>
      <trkpt lat="45.31375" lon="5.88481">
        <ele>980.44702148438</ele>
        <time>2017-12-15T10:27:29Z</time>
      </trkpt>
      <trkpt lat="45.31373" lon="5.88475">
        <ele>979.44702148438</ele>
        <time>2017-12-15T10:27:34Z</time>
      </trkpt>
      <trkpt lat="45.31374" lon="5.88468">
        <ele>978.44702148438</ele>
        <time>2017-12-15T10:27:37Z</time>
      </trkpt>
      <trkpt lat="45.31375" lon="5.88461">
        <ele>981.44702148438</ele>
        <time>2017-12-15T10:27:41Z</time>
      </trkpt>
      <trkpt lat="45.31377" lon="5.88455">
        <ele>983.44702148438</ele>
        <time>2017-12-15T10:27:44Z</time>
      </trkpt>
      <trkpt lat="45.31377" lon="5.88448">
        <ele>987.44702148438</ele>
        <time>2017-12-15T10:27:49Z</time>
      </trkpt>
      <trkpt lat="45.3138" lon="5.88441">
        <ele>986.44702148438</ele>
        <time>2017-12-15T10:27:53Z</time>
      </trkpt>
      <trkpt lat="45.31381" lon="5.88433">
        <ele>987.44702148438</ele>
        <time>2017-12-15T10:28:00Z</time>
      </trkpt>
      <trkpt lat="45.31382" lon="5.88427">
        <ele>985.44702148438</ele>
        <time>2017-12-15T10:28:06Z</time>
      </trkpt>
      <trkpt lat="45.31383" lon="5.88419">
        <ele>982.44702148438</ele>
        <time>2017-12-15T10:28:15Z</time>
      </trkpt>
      <trkpt lat="45.31383" lon="5.88411">
        <ele>981.44702148438</ele>
        <time>2017-12-15T10:28:21Z</time>
      </trkpt>
      <trkpt lat="45.31385" lon="5.88405">
        <ele>988.44702148438</ele>
        <time>2017-12-15T10:28:29Z</time>
      </trkpt>
      <trkpt lat="45.31388" lon="5.88399">
        <ele>990.44702148438</ele>
        <time>2017-12-15T10:28:37Z</time>
      </trkpt>
      <trkpt lat="45.3139" lon="5.88393">
        <ele>990.44702148438</ele>
        <time>2017-12-15T10:28:43Z</time>
      </trkpt>
      <trkpt lat="45.31393" lon="5.88386">
        <ele>996.44702148438</ele>
        <time>2017-12-15T10:28:47Z</time>
      </trkpt>
      <trkpt lat="45.31394" lon="5.88379">
        <ele>998.44702148438</ele>
        <time>2017-12-15T10:28:54Z</time>
      </trkpt>
      <trkpt lat="45.31394" lon="5.88371">
        <ele>995.44702148438</ele>
        <time>2017-12-15T10:28:59Z</time>
      </trkpt>
      <trkpt lat="45.31395" lon="5.88365">
        <ele>994.44702148438</ele>
        <time>2017-12-15T10:29:05Z</time>
      </trkpt>
      <trkpt lat="45.31401" lon="5.88358">
        <ele>1001.4470214844</ele>
        <time>2017-12-15T10:29:08Z</time>
      </trkpt>
      <trkpt lat="45.31404" lon="5.88352">
        <ele>1007.4470214844</ele>
        <time>2017-12-15T10:29:13Z</time>
      </trkpt>
      <trkpt lat="45.31402" lon="5.88346">
        <ele>1005.4470214844</ele>
        <time>2017-12-15T10:29:21Z</time>
      </trkpt>
      <trkpt lat="45.31404" lon="5.88339">
        <ele>1005.4470214844</ele>
        <time>2017-12-15T10:29:28Z</time>
      </trkpt>
      <trkpt lat="45.31407" lon="5.88333">
        <ele>1000.4470214844</ele>
        <time>2017-12-15T10:29:35Z</time>
      </trkpt>
      <trkpt lat="45.31406" lon="5.88326">
        <ele>1002.4470214844</ele>
        <time>2017-12-15T10:29:44Z</time>
      </trkpt>
      <trkpt lat="45.31408" lon="5.88319">
        <ele>1006.4470214844</ele>
        <time>2017-12-15T10:29:50Z</time>
      </trkpt>
      <trkpt lat="45.31409" lon="5.88312">
        <ele>1011.4470214844</ele>
        <time>2017-12-15T10:29:55Z</time>
      </trkpt>
      <trkpt lat="45.31409" lon="5.88304">
        <ele>1013.4470214844</ele>
        <time>2017-12-15T10:30:00Z</time>
      </trkpt>
      <trkpt lat="45.31411" lon="5.88297">
        <ele>1017.4470214844</ele>
        <time>2017-12-15T10:30:08Z</time>
      </trkpt>
      <trkpt lat="45.31413" lon="5.88291">
        <ele>1017.4470214844</ele>
        <time>2017-12-15T10:30:16Z</time>
      </trkpt>
      <trkpt lat="45.31413" lon="5.88284">
        <ele>1017.4470214844</ele>
        <time>2017-12-15T10:30:21Z</time>
      </trkpt>
      <trkpt lat="45.31416" lon="5.88278">
        <ele>1019.4470214844</ele>
        <time>2017-12-15T10:30:27Z</time>
      </trkpt>
      <trkpt lat="45.31415" lon="5.88269">
        <ele>1021.4470214844</ele>
        <time>2017-12-15T10:30:37Z</time>
      </trkpt>
      <trkpt lat="45.31416" lon="5.88263">
        <ele>1025.4470214844</ele>
        <time>2017-12-15T10:30:42Z</time>
      </trkpt>
      <trkpt lat="45.31415" lon="5.88256">
        <ele>1029.4470214844</ele>
        <time>2017-12-15T10:30:49Z</time>
      </trkpt>
      <trkpt lat="45.31417" lon="5.88249">
        <ele>1030.4470214844</ele>
        <time>2017-12-15T10:30:56Z</time>
      </trkpt>
      <trkpt lat="45.31418" lon="5.88242">
        <ele>1031.4470214844</ele>
        <time>2017-12-15T10:31:03Z</time>
      </trkpt>
      <trkpt lat="45.31417" lon="5.88234">
        <ele>1032.4470214844</ele>
        <time>2017-12-15T10:31:09Z</time>
      </trkpt>
      <trkpt lat="45.31415" lon="5.88227">
        <ele>1033.4470214844</ele>
        <time>2017-12-15T10:31:17Z</time>
      </trkpt>
      <trkpt lat="45.31415" lon="5.88221">
        <ele>1035.4470214844</ele>
        <time>2017-12-15T10:31:25Z</time>
      </trkpt>
      <trkpt lat="45.31413" lon="5.88214">
        <ele>1036.4470214844</ele>
        <time>2017-12-15T10:31:32Z</time>
      </trkpt>
      <trkpt lat="45.31415" lon="5.88207">
        <ele>1040.4470214844</ele>
        <time>2017-12-15T10:31:40Z</time>
      </trkpt>
      <trkpt lat="45.31415" lon="5.88201">
        <ele>1044.4470214844</ele>
        <time>2017-12-15T10:31:46Z</time>
      </trkpt>
      <trkpt lat="45.31418" lon="5.88195">
        <ele>1050.4470214844</ele>
        <time>2017-12-15T10:31:53Z</time>
      </trkpt>
      <trkpt lat="45.31417" lon="5.88188">
        <ele>1051.4470214844</ele>
        <time>2017-12-15T10:31:59Z</time>
      </trkpt>
      <trkpt lat="45.31417" lon="5.8818">
        <ele>1050.4470214844</ele>
        <time>2017-12-15T10:32:06Z</time>
      </trkpt>
      <trkpt lat="45.31416" lon="5.88171">
        <ele>1048.4470214844</ele>
        <time>2017-12-15T10:32:12Z</time>
      </trkpt>
      <trkpt lat="45.31416" lon="5.88165">
        <ele>1050.4470214844</ele>
        <time>2017-12-15T10:32:18Z</time>
      </trkpt>
      <trkpt lat="45.31418" lon="5.88159">
        <ele>1053.4470214844</ele>
        <time>2017-12-15T10:32:26Z</time>
      </trkpt>
      <trkpt lat="45.31419" lon="5.88152">
        <ele>1054.4470214844</ele>
        <time>2017-12-15T10:32:32Z</time>
      </trkpt>
      <trkpt lat="45.3142" lon="5.88144">
        <ele>1058.4470214844</ele>
        <time>2017-12-15T10:32:41Z</time>
      </trkpt>
      <trkpt lat="45.31417" lon="5.88139">
        <ele>1057.4470214844</ele>
        <time>2017-12-15T10:32:49Z</time>
      </trkpt>
      <trkpt lat="45.31419" lon="5.88134">
        <ele>1062.4470214844</ele>
        <time>2017-12-15T10:32:56Z</time>
      </trkpt>
      <trkpt lat="45.31417" lon="5.88127">
        <ele>1061.4470214844</ele>
        <time>2017-12-15T10:33:03Z</time>
      </trkpt>
      <trkpt lat="45.31415" lon="5.8812">
        <ele>1065.4470214844</ele>
        <time>2017-12-15T10:33:09Z</time>
      </trkpt>
      <trkpt lat="45.31412" lon="5.88115">
        <ele>1066.4470214844</ele>
        <time>2017-12-15T10:33:18Z</time>
      </trkpt>
      <trkpt lat="45.31409" lon="5.88109">
        <ele>1065.4470214844</ele>
        <time>2017-12-15T10:33:25Z</time>
      </trkpt>
      <trkpt lat="45.31409" lon="5.88103">
        <ele>1069.4470214844</ele>
        <time>2017-12-15T10:33:30Z</time>
      </trkpt>
      <trkpt lat="45.31405" lon="5.88101">
        <ele>1073.4470214844</ele>
        <time>2017-12-15T10:33:34Z</time>
      </trkpt>
      <trkpt lat="45.31402" lon="5.88094">
        <ele>1074.4470214844</ele>
        <time>2017-12-15T10:33:43Z</time>
      </trkpt>
      <trkpt lat="45.314" lon="5.88087">
        <ele>1081.4470214844</ele>
        <time>2017-12-15T10:33:54Z</time>
      </trkpt>
      <trkpt lat="45.31398" lon="5.88081">
        <ele>1085.4470214844</ele>
        <time>2017-12-15T10:34:03Z</time>
      </trkpt>
      <trkpt lat="45.31394" lon="5.88077">
        <ele>1089.4470214844</ele>
        <time>2017-12-15T10:34:11Z</time>
      </trkpt>
      <trkpt lat="45.31393" lon="5.8807">
        <ele>1087.4470214844</ele>
        <time>2017-12-15T10:34:18Z</time>
      </trkpt>
      <trkpt lat="45.31396" lon="5.88065">
        <ele>1085.4470214844</ele>
        <time>2017-12-15T10:34:21Z</time>
      </trkpt>
      <trkpt lat="45.31392" lon="5.88062">
        <ele>1086.4470214844</ele>
        <time>2017-12-15T10:34:27Z</time>
      </trkpt>
      <trkpt lat="45.31388" lon="5.88058">
        <ele>1089.4470214844</ele>
        <time>2017-12-15T10:34:35Z</time>
      </trkpt>
      <trkpt lat="45.31384" lon="5.88054">
        <ele>1089.4470214844</ele>
        <time>2017-12-15T10:34:41Z</time>
      </trkpt>
      <trkpt lat="45.31381" lon="5.8805">
        <ele>1092.4470214844</ele>
        <time>2017-12-15T10:34:46Z</time>
      </trkpt>
      <trkpt lat="45.31376" lon="5.88047">
        <ele>1095.4470214844</ele>
        <time>2017-12-15T10:34:56Z</time>
      </trkpt>
      <trkpt lat="45.31373" lon="5.88042">
        <ele>1097.4470214844</ele>
        <time>2017-12-15T10:35:04Z</time>
      </trkpt>
      <trkpt lat="45.31375" lon="5.88036">
        <ele>1098.4470214844</ele>
        <time>2017-12-15T10:35:09Z</time>
      </trkpt>
      <trkpt lat="45.31373" lon="5.8803">
        <ele>1101.4470214844</ele>
        <time>2017-12-15T10:35:18Z</time>
      </trkpt>
      <trkpt lat="45.31371" lon="5.88023">
        <ele>1104.4470214844</ele>
        <time>2017-12-15T10:35:25Z</time>
      </trkpt>
      <trkpt lat="45.3137" lon="5.88017">
        <ele>1108.4470214844</ele>
        <time>2017-12-15T10:35:33Z</time>
      </trkpt>
      <trkpt lat="45.3137" lon="5.8801">
        <ele>1107.4470214844</ele>
        <time>2017-12-15T10:35:47Z</time>
      </trkpt>
      <trkpt lat="45.31368" lon="5.88004">
        <ele>1110.4470214844</ele>
        <time>2017-12-15T10:35:57Z</time>
      </trkpt>
      <trkpt lat="45.31364" lon="5.88">
        <ele>1113.4470214844</ele>
        <time>2017-12-15T10:36:04Z</time>
      </trkpt>
      <trkpt lat="45.31366" lon="5.87993">
        <ele>1111.4470214844</ele>
        <time>2017-12-15T10:36:10Z</time>
      </trkpt>
      <trkpt lat="45.31363" lon="5.87987">
        <ele>1111.4470214844</ele>
        <time>2017-12-15T10:36:18Z</time>
      </trkpt>
      <trkpt lat="45.31361" lon="5.87979">
        <ele>1113.4470214844</ele>
        <time>2017-12-15T10:36:22Z</time>
      </trkpt>
      <trkpt lat="45.31359" lon="5.87973">
        <ele>1115.4470214844</ele>
        <time>2017-12-15T10:36:28Z</time>
      </trkpt>
      <trkpt lat="45.31357" lon="5.87966">
        <ele>1117.4470214844</ele>
        <time>2017-12-15T10:36:33Z</time>
      </trkpt>
      <trkpt lat="45.31355" lon="5.8796">
        <ele>1120.4470214844</ele>
        <time>2017-12-15T10:36:39Z</time>
      </trkpt>
      <trkpt lat="45.31353" lon="5.87953">
        <ele>1122.4470214844</ele>
        <time>2017-12-15T10:36:46Z</time>
      </trkpt>
      <trkpt lat="45.31355" lon="5.87947">
        <ele>1124.4470214844</ele>
        <time>2017-12-15T10:36:54Z</time>
      </trkpt>
      <trkpt lat="45.31358" lon="5.87942">
        <ele>1124.4470214844</ele>
        <time>2017-12-15T10:36:59Z</time>
      </trkpt>
      <trkpt lat="45.3136" lon="5.87934">
        <ele>1125.4470214844</ele>
        <time>2017-12-15T10:37:07Z</time>
      </trkpt>
      <trkpt lat="45.31362" lon="5.87928">
        <ele>1126.4470214844</ele>
        <time>2017-12-15T10:37:16Z</time>
      </trkpt>
      <trkpt lat="45.31365" lon="5.87923">
        <ele>1128.4470214844</ele>
        <time>2017-12-15T10:37:23Z</time>
      </trkpt>
      <trkpt lat="45.31365" lon="5.87915">
        <ele>1129.4470214844</ele>
        <time>2017-12-15T10:37:29Z</time>
      </trkpt>
      <trkpt lat="45.31369" lon="5.8791">
        <ele>1133.4470214844</ele>
        <time>2017-12-15T10:37:35Z</time>
      </trkpt>
      <trkpt lat="45.3137" lon="5.87904">
        <ele>1136.4460449219</ele>
        <time>2017-12-15T10:37:43Z</time>
      </trkpt>
      <trkpt lat="45.31372" lon="5.87896">
        <ele>1142.4460449219</ele>
        <time>2017-12-15T10:37:53Z</time>
      </trkpt>
      <trkpt lat="45.3137" lon="5.8789">
        <ele>1141.4460449219</ele>
        <time>2017-12-15T10:37:58Z</time>
      </trkpt>
      <trkpt lat="45.3137" lon="5.87883">
        <ele>1140.4460449219</ele>
        <time>2017-12-15T10:38:05Z</time>
      </trkpt>
      <trkpt lat="45.3137" lon="5.87877">
        <ele>1142.4460449219</ele>
        <time>2017-12-15T10:38:11Z</time>
      </trkpt>
      <trkpt lat="45.31369" lon="5.8787">
        <ele>1146.4460449219</ele>
        <time>2017-12-15T10:38:18Z</time>
      </trkpt>
      <trkpt lat="45.31368" lon="5.87864">
        <ele>1150.4460449219</ele>
        <time>2017-12-15T10:38:25Z</time>
      </trkpt>
      <trkpt lat="45.31367" lon="5.87857">
        <ele>1154.4460449219</ele>
        <time>2017-12-15T10:38:31Z</time>
      </trkpt>
      <trkpt lat="45.31365" lon="5.87851">
        <ele>1156.4460449219</ele>
        <time>2017-12-15T10:38:36Z</time>
      </trkpt>
      <trkpt lat="45.31364" lon="5.87844">
        <ele>1157.4460449219</ele>
        <time>2017-12-15T10:38:41Z</time>
      </trkpt>
      <trkpt lat="45.31363" lon="5.87837">
        <ele>1158.4460449219</ele>
        <time>2017-12-15T10:38:46Z</time>
      </trkpt>
      <trkpt lat="45.31361" lon="5.87831">
        <ele>1161.4460449219</ele>
        <time>2017-12-15T10:38:54Z</time>
      </trkpt>
      <trkpt lat="45.31359" lon="5.87824">
        <ele>1163.4460449219</ele>
        <time>2017-12-15T10:39:01Z</time>
      </trkpt>
      <trkpt lat="45.31358" lon="5.87818">
        <ele>1166.4460449219</ele>
        <time>2017-12-15T10:39:08Z</time>
      </trkpt>
      <trkpt lat="45.31357" lon="5.87811">
        <ele>1167.4460449219</ele>
        <time>2017-12-15T10:39:15Z</time>
      </trkpt>
      <trkpt lat="45.31357" lon="5.87804">
        <ele>1168.4460449219</ele>
        <time>2017-12-15T10:39:22Z</time>
      </trkpt>
      <trkpt lat="45.31357" lon="5.87798">
        <ele>1170.4460449219</ele>
        <time>2017-12-15T10:39:29Z</time>
      </trkpt>
      <trkpt lat="45.31357" lon="5.87791">
        <ele>1173.4460449219</ele>
        <time>2017-12-15T10:39:36Z</time>
      </trkpt>
      <trkpt lat="45.31357" lon="5.87784">
        <ele>1175.4460449219</ele>
        <time>2017-12-15T10:39:43Z</time>
      </trkpt>
      <trkpt lat="45.31357" lon="5.87777">
        <ele>1173.4460449219</ele>
        <time>2017-12-15T10:39:49Z</time>
      </trkpt>
      <trkpt lat="45.31358" lon="5.87769">
        <ele>1175.4460449219</ele>
        <time>2017-12-15T10:39:55Z</time>
      </trkpt>
      <trkpt lat="45.31358" lon="5.87762">
        <ele>1176.4460449219</ele>
        <time>2017-12-15T10:40:02Z</time>
      </trkpt>
      <trkpt lat="45.31358" lon="5.87755">
        <ele>1177.4460449219</ele>
        <time>2017-12-15T10:40:07Z</time>
      </trkpt>
      <trkpt lat="45.31358" lon="5.87748">
        <ele>1178.4460449219</ele>
        <time>2017-12-15T10:40:14Z</time>
      </trkpt>
      <trkpt lat="45.31357" lon="5.87741">
        <ele>1177.4460449219</ele>
        <time>2017-12-15T10:40:20Z</time>
      </trkpt>
      <trkpt lat="45.31356" lon="5.87735">
        <ele>1176.4460449219</ele>
        <time>2017-12-15T10:40:27Z</time>
      </trkpt>
      <trkpt lat="45.31357" lon="5.87729">
        <ele>1177.4460449219</ele>
        <time>2017-12-15T10:40:33Z</time>
      </trkpt>
      <trkpt lat="45.31355" lon="5.87722">
        <ele>1178.4460449219</ele>
        <time>2017-12-15T10:40:39Z</time>
      </trkpt>
      <trkpt lat="45.31355" lon="5.87716">
        <ele>1178.4460449219</ele>
        <time>2017-12-15T10:40:51Z</time>
      </trkpt>
      <trkpt lat="45.31357" lon="5.87709">
        <ele>1183.4460449219</ele>
        <time>2017-12-15T10:41:06Z</time>
      </trkpt>
      <trkpt lat="45.31356" lon="5.87703">
        <ele>1185.4460449219</ele>
        <time>2017-12-15T10:41:15Z</time>
      </trkpt>
      <trkpt lat="45.31357" lon="5.87696">
        <ele>1188.4460449219</ele>
        <time>2017-12-15T10:41:21Z</time>
      </trkpt>
      <trkpt lat="45.31357" lon="5.87689">
        <ele>1189.4460449219</ele>
        <time>2017-12-15T10:41:29Z</time>
      </trkpt>
      <trkpt lat="45.31358" lon="5.87683">
        <ele>1192.4460449219</ele>
        <time>2017-12-15T10:41:37Z</time>
      </trkpt>
      <trkpt lat="45.3136" lon="5.87677">
        <ele>1196.4460449219</ele>
        <time>2017-12-15T10:41:59Z</time>
      </trkpt>
      <trkpt lat="45.31359" lon="5.8767">
        <ele>1195.4460449219</ele>
        <time>2017-12-15T10:42:11Z</time>
      </trkpt>
      <trkpt lat="45.3136" lon="5.87662">
        <ele>1197.4460449219</ele>
        <time>2017-12-15T10:42:16Z</time>
      </trkpt>
      <trkpt lat="45.31363" lon="5.87657">
        <ele>1206.4460449219</ele>
        <time>2017-12-15T10:42:27Z</time>
      </trkpt>
      <trkpt lat="45.3136" lon="5.87651">
        <ele>1206.4460449219</ele>
        <time>2017-12-15T10:42:31Z</time>
      </trkpt>
      <trkpt lat="45.31358" lon="5.87645">
        <ele>1207.4460449219</ele>
        <time>2017-12-15T10:42:40Z</time>
      </trkpt>
      <trkpt lat="45.31357" lon="5.87639">
        <ele>1206.4460449219</ele>
        <time>2017-12-15T10:42:46Z</time>
      </trkpt>
      <trkpt lat="45.31356" lon="5.87632">
        <ele>1213.4460449219</ele>
        <time>2017-12-15T10:42:58Z</time>
      </trkpt>
      <trkpt lat="45.31354" lon="5.87626">
        <ele>1215.4460449219</ele>
        <time>2017-12-15T10:43:05Z</time>
      </trkpt>
      <trkpt lat="45.31352" lon="5.8762">
        <ele>1214.4460449219</ele>
        <time>2017-12-15T10:43:29Z</time>
      </trkpt>
      <trkpt lat="45.31351" lon="5.87614">
        <ele>1214.4460449219</ele>
        <time>2017-12-15T10:43:38Z</time>
      </trkpt>
      <trkpt lat="45.31348" lon="5.87608">
        <ele>1216.4460449219</ele>
        <time>2017-12-15T10:43:44Z</time>
      </trkpt>
      <trkpt lat="45.3135" lon="5.87602">
        <ele>1221.4460449219</ele>
        <time>2017-12-15T10:43:50Z</time>
      </trkpt>
      <trkpt lat="45.3135" lon="5.87595">
        <ele>1221.4460449219</ele>
        <time>2017-12-15T10:43:56Z</time>
      </trkpt>
      <trkpt lat="45.31351" lon="5.87588">
        <ele>1223.4460449219</ele>
        <time>2017-12-15T10:44:04Z</time>
      </trkpt>
      <trkpt lat="45.3135" lon="5.87582">
        <ele>1223.4460449219</ele>
        <time>2017-12-15T10:44:14Z</time>
      </trkpt>
      <trkpt lat="45.3135" lon="5.87575">
        <ele>1226.4460449219</ele>
        <time>2017-12-15T10:44:20Z</time>
      </trkpt>
      <trkpt lat="45.31348" lon="5.87569">
        <ele>1227.4460449219</ele>
        <time>2017-12-15T10:44:28Z</time>
      </trkpt>
      <trkpt lat="45.31346" lon="5.87562">
        <ele>1228.4460449219</ele>
        <time>2017-12-15T10:44:34Z</time>
      </trkpt>
      <trkpt lat="45.31343" lon="5.87557">
        <ele>1228.4460449219</ele>
        <time>2017-12-15T10:44:41Z</time>
      </trkpt>
      <trkpt lat="45.31344" lon="5.8755">
        <ele>1233.4460449219</ele>
        <time>2017-12-15T10:44:59Z</time>
      </trkpt>
      <trkpt lat="45.31342" lon="5.87544">
        <ele>1234.4460449219</ele>
        <time>2017-12-15T10:45:14Z</time>
      </trkpt>
      <trkpt lat="45.3134" lon="5.87538">
        <ele>1237.4460449219</ele>
        <time>2017-12-15T10:45:21Z</time>
      </trkpt>
      <trkpt lat="45.31339" lon="5.87531">
        <ele>1242.4460449219</ele>
        <time>2017-12-15T10:45:29Z</time>
      </trkpt>
      <trkpt lat="45.31338" lon="5.87524">
        <ele>1245.4460449219</ele>
        <time>2017-12-15T10:45:36Z</time>
      </trkpt>
      <trkpt lat="45.31337" lon="5.87517">
        <ele>1250.4460449219</ele>
        <time>2017-12-15T10:45:44Z</time>
      </trkpt>
      <trkpt lat="45.31337" lon="5.87511">
        <ele>1255.4460449219</ele>
        <time>2017-12-15T10:46:01Z</time>
      </trkpt>
      <trkpt lat="45.31339" lon="5.87504">
        <ele>1257.4460449219</ele>
        <time>2017-12-15T10:46:09Z</time>
      </trkpt>
      <trkpt lat="45.31338" lon="5.87494">
        <ele>1258.4460449219</ele>
        <time>2017-12-15T10:46:28Z</time>
      </trkpt>
      <trkpt lat="45.31335" lon="5.87488">
        <ele>1258.4460449219</ele>
        <time>2017-12-15T10:46:34Z</time>
      </trkpt>
      <trkpt lat="45.31335" lon="5.87481">
        <ele>1260.4460449219</ele>
        <time>2017-12-15T10:46:39Z</time>
      </trkpt>
      <trkpt lat="45.31335" lon="5.87474">
        <ele>1268.4460449219</ele>
        <time>2017-12-15T10:46:47Z</time>
      </trkpt>
      <trkpt lat="45.31333" lon="5.87468">
        <ele>1269.4460449219</ele>
        <time>2017-12-15T10:46:56Z</time>
      </trkpt>
      <trkpt lat="45.31332" lon="5.87462">
        <ele>1271.4460449219</ele>
        <time>2017-12-15T10:47:23Z</time>
      </trkpt>
      <trkpt lat="45.31334" lon="5.87454">
        <ele>1270.4460449219</ele>
        <time>2017-12-15T10:47:30Z</time>
      </trkpt>
      <trkpt lat="45.31329" lon="5.87453">
        <ele>1271.4460449219</ele>
        <time>2017-12-15T10:47:36Z</time>
      </trkpt>
      <trkpt lat="45.31328" lon="5.87446">
        <ele>1272.4460449219</ele>
        <time>2017-12-15T10:47:41Z</time>
      </trkpt>
      <trkpt lat="45.31325" lon="5.87441">
        <ele>1275.4460449219</ele>
        <time>2017-12-15T10:47:56Z</time>
      </trkpt>
      <trkpt lat="45.31324" lon="5.87434">
        <ele>1278.4460449219</ele>
        <time>2017-12-15T10:48:07Z</time>
      </trkpt>
      <trkpt lat="45.31323" lon="5.87427">
        <ele>1283.4460449219</ele>
        <time>2017-12-15T10:48:14Z</time>
      </trkpt>
      <trkpt lat="45.31322" lon="5.87421">
        <ele>1283.4460449219</ele>
        <time>2017-12-15T10:48:18Z</time>
      </trkpt>
      <trkpt lat="45.31322" lon="5.87413">
        <ele>1285.4460449219</ele>
        <time>2017-12-15T10:48:23Z</time>
      </trkpt>
      <trkpt lat="45.31323" lon="5.87406">
        <ele>1284.4460449219</ele>
        <time>2017-12-15T10:48:28Z</time>
      </trkpt>
      <trkpt lat="45.31324" lon="5.87399">
        <ele>1287.4460449219</ele>
        <time>2017-12-15T10:48:37Z</time>
      </trkpt>
      <trkpt lat="45.31325" lon="5.87393">
        <ele>1289.4460449219</ele>
        <time>2017-12-15T10:48:43Z</time>
      </trkpt>
      <trkpt lat="45.31327" lon="5.87386">
        <ele>1290.4460449219</ele>
        <time>2017-12-15T10:48:47Z</time>
      </trkpt>
      <trkpt lat="45.31326" lon="5.87379">
        <ele>1289.4460449219</ele>
        <time>2017-12-15T10:48:53Z</time>
      </trkpt>
      <trkpt lat="45.31328" lon="5.87373">
        <ele>1291.4460449219</ele>
        <time>2017-12-15T10:48:58Z</time>
      </trkpt>
      <trkpt lat="45.31328" lon="5.87365">
        <ele>1290.4460449219</ele>
        <time>2017-12-15T10:49:02Z</time>
      </trkpt>
      <trkpt lat="45.31331" lon="5.87359">
        <ele>1292.4460449219</ele>
        <time>2017-12-15T10:49:08Z</time>
      </trkpt>
      <trkpt lat="45.31333" lon="5.87353">
        <ele>1291.4460449219</ele>
        <time>2017-12-15T10:49:11Z</time>
      </trkpt>
      <trkpt lat="45.31329" lon="5.87347">
        <ele>1291.4460449219</ele>
        <time>2017-12-15T10:49:18Z</time>
      </trkpt>
      <trkpt lat="45.31333" lon="5.87339">
        <ele>1292.4460449219</ele>
        <time>2017-12-15T10:49:22Z</time>
      </trkpt>
      <trkpt lat="45.31335" lon="5.87333">
        <ele>1294.4460449219</ele>
        <time>2017-12-15T10:49:26Z</time>
      </trkpt>
      <trkpt lat="45.31339" lon="5.87327">
        <ele>1296.4460449219</ele>
        <time>2017-12-15T10:49:30Z</time>
      </trkpt>
      <trkpt lat="45.31341" lon="5.8732">
        <ele>1298.4460449219</ele>
        <time>2017-12-15T10:49:35Z</time>
      </trkpt>
      <trkpt lat="45.31341" lon="5.87312">
        <ele>1300.4460449219</ele>
        <time>2017-12-15T10:49:40Z</time>
      </trkpt>
      <trkpt lat="45.31342" lon="5.87304">
        <ele>1303.4460449219</ele>
        <time>2017-12-15T10:49:45Z</time>
      </trkpt>
      <trkpt lat="45.31342" lon="5.87298">
        <ele>1304.4460449219</ele>
        <time>2017-12-15T10:49:50Z</time>
      </trkpt>
      <trkpt lat="45.31344" lon="5.87291">
        <ele>1308.4460449219</ele>
        <time>2017-12-15T10:49:56Z</time>
      </trkpt>
      <trkpt lat="45.31345" lon="5.87285">
        <ele>1307.4460449219</ele>
        <time>2017-12-15T10:50:03Z</time>
      </trkpt>
      <trkpt lat="45.31343" lon="5.87278">
        <ele>1307.4460449219</ele>
        <time>2017-12-15T10:50:09Z</time>
      </trkpt>
      <trkpt lat="45.3134" lon="5.87273">
        <ele>1304.4460449219</ele>
        <time>2017-12-15T10:50:17Z</time>
      </trkpt>
      <trkpt lat="45.31342" lon="5.87267">
        <ele>1307.4460449219</ele>
        <time>2017-12-15T10:50:23Z</time>
      </trkpt>
      <trkpt lat="45.31342" lon="5.87259">
        <ele>1308.4460449219</ele>
        <time>2017-12-15T10:50:30Z</time>
      </trkpt>
      <trkpt lat="45.31343" lon="5.87252">
        <ele>1308.4460449219</ele>
        <time>2017-12-15T10:50:35Z</time>
      </trkpt>
      <trkpt lat="45.31345" lon="5.87245">
        <ele>1312.4460449219</ele>
        <time>2017-12-15T10:50:41Z</time>
      </trkpt>
      <trkpt lat="45.31347" lon="5.87237">
        <ele>1314.4460449219</ele>
        <time>2017-12-15T10:50:47Z</time>
      </trkpt>
      <trkpt lat="45.31349" lon="5.87231">
        <ele>1315.4460449219</ele>
        <time>2017-12-15T10:50:54Z</time>
      </trkpt>
      <trkpt lat="45.31352" lon="5.87225">
        <ele>1318.4460449219</ele>
        <time>2017-12-15T10:50:59Z</time>
      </trkpt>
      <trkpt lat="45.31355" lon="5.87218">
        <ele>1319.4460449219</ele>
        <time>2017-12-15T10:51:06Z</time>
      </trkpt>
      <trkpt lat="45.31358" lon="5.87214">
        <ele>1324.4460449219</ele>
        <time>2017-12-15T10:51:20Z</time>
      </trkpt>
      <trkpt lat="45.31363" lon="5.87216">
        <ele>1328.4460449219</ele>
        <time>2017-12-15T10:58:02Z</time>
      </trkpt>
      <trkpt lat="45.31367" lon="5.87213">
        <ele>1329.4460449219</ele>
        <time>2017-12-15T10:58:07Z</time>
      </trkpt>
      <trkpt lat="45.31373" lon="5.87212">
        <ele>1329.4460449219</ele>
        <time>2017-12-15T10:58:10Z</time>
      </trkpt>
      <trkpt lat="45.31377" lon="5.87214">
        <ele>1329.4460449219</ele>
        <time>2017-12-15T10:58:13Z</time>
      </trkpt>
      <trkpt lat="45.31381" lon="5.87209">
        <ele>1327.4460449219</ele>
        <time>2017-12-15T10:58:23Z</time>
      </trkpt>
      <trkpt lat="45.31387" lon="5.87209">
        <ele>1325.4460449219</ele>
        <time>2017-12-15T10:58:27Z</time>
      </trkpt>
      <trkpt lat="45.31393" lon="5.87216">
        <ele>1323.4460449219</ele>
        <time>2017-12-15T10:58:29Z</time>
      </trkpt>
      <trkpt lat="45.31394" lon="5.87235">
        <ele>1317.4460449219</ele>
        <time>2017-12-15T10:58:31Z</time>
      </trkpt>
      <trkpt lat="45.31387" lon="5.87254">
        <ele>1312.4460449219</ele>
        <time>2017-12-15T10:58:33Z</time>
      </trkpt>
      <trkpt lat="45.3138" lon="5.87272">
        <ele>1311.4460449219</ele>
        <time>2017-12-15T10:58:35Z</time>
      </trkpt>
      <trkpt lat="45.31376" lon="5.8729">
        <ele>1310.4460449219</ele>
        <time>2017-12-15T10:58:37Z</time>
      </trkpt>
      <trkpt lat="45.31375" lon="5.8731">
        <ele>1306.4460449219</ele>
        <time>2017-12-15T10:58:39Z</time>
      </trkpt>
      <trkpt lat="45.31376" lon="5.87332">
        <ele>1304.4460449219</ele>
        <time>2017-12-15T10:58:41Z</time>
      </trkpt>
      <trkpt lat="45.31385" lon="5.87356">
        <ele>1302.4460449219</ele>
        <time>2017-12-15T10:58:43Z</time>
      </trkpt>
      <trkpt lat="45.31392" lon="5.87375">
        <ele>1290.4460449219</ele>
        <time>2017-12-15T10:58:45Z</time>
      </trkpt>
      <trkpt lat="45.31403" lon="5.87399">
        <ele>1285.4460449219</ele>
        <time>2017-12-15T10:58:47Z</time>
      </trkpt>
      <trkpt lat="45.31403" lon="5.87423">
        <ele>1269.4460449219</ele>
        <time>2017-12-15T10:58:49Z</time>
      </trkpt>
      <trkpt lat="45.31409" lon="5.87449">
        <ele>1262.4460449219</ele>
        <time>2017-12-15T10:58:51Z</time>
      </trkpt>
      <trkpt lat="45.31413" lon="5.87476">
        <ele>1253.4460449219</ele>
        <time>2017-12-15T10:58:53Z</time>
      </trkpt>
      <trkpt lat="45.31419" lon="5.875">
        <ele>1250.4460449219</ele>
        <time>2017-12-15T10:58:55Z</time>
      </trkpt>
      <trkpt lat="45.31423" lon="5.87511">
        <ele>1249.4460449219</ele>
        <time>2017-12-15T10:58:56Z</time>
      </trkpt>
      <trkpt lat="45.31431" lon="5.8754">
        <ele>1233.4460449219</ele>
        <time>2017-12-15T10:58:59Z</time>
      </trkpt>
      <trkpt lat="45.31432" lon="5.87557">
        <ele>1229.4460449219</ele>
        <time>2017-12-15T10:59:00Z</time>
      </trkpt>
      <trkpt lat="45.31439" lon="5.8758">
        <ele>1223.4460449219</ele>
        <time>2017-12-15T10:59:02Z</time>
      </trkpt>
      <trkpt lat="45.31445" lon="5.87603">
        <ele>1221.4460449219</ele>
        <time>2017-12-15T10:59:04Z</time>
      </trkpt>
      <trkpt lat="45.31448" lon="5.8761">
        <ele>1217.4460449219</ele>
        <time>2017-12-15T10:59:05Z</time>
      </trkpt>
      <trkpt lat="45.31455" lon="5.87638">
        <ele>1213.4460449219</ele>
        <time>2017-12-15T10:59:07Z</time>
      </trkpt>
      <trkpt lat="45.31467" lon="5.87661">
        <ele>1208.4460449219</ele>
        <time>2017-12-15T10:59:09Z</time>
      </trkpt>
      <trkpt lat="45.31475" lon="5.8766">
        <ele>1202.4460449219</ele>
        <time>2017-12-15T10:59:10Z</time>
      </trkpt>
      <trkpt lat="45.31488" lon="5.87654">
        <ele>1197.4460449219</ele>
        <time>2017-12-15T10:59:12Z</time>
      </trkpt>
      <trkpt lat="45.31488" lon="5.87656">
        <ele>1185.4460449219</ele>
        <time>2017-12-15T10:59:24Z</time>
      </trkpt>
      <trkpt lat="45.31483" lon="5.87665">
        <ele>1181.4460449219</ele>
        <time>2017-12-15T10:59:26Z</time>
      </trkpt>
      <trkpt lat="45.31477" lon="5.87683">
        <ele>1177.4460449219</ele>
        <time>2017-12-15T10:59:28Z</time>
      </trkpt>
      <trkpt lat="45.3147" lon="5.87702">
        <ele>1171.4460449219</ele>
        <time>2017-12-15T10:59:30Z</time>
      </trkpt>
      <trkpt lat="45.31471" lon="5.87723">
        <ele>1165.4460449219</ele>
        <time>2017-12-15T10:59:32Z</time>
      </trkpt>
      <trkpt lat="45.31474" lon="5.87736">
        <ele>1163.4460449219</ele>
        <time>2017-12-15T10:59:33Z</time>
      </trkpt>
      <trkpt lat="45.31473" lon="5.87764">
        <ele>1160.4470214844</ele>
        <time>2017-12-15T10:59:35Z</time>
      </trkpt>
      <trkpt lat="45.3148" lon="5.87793">
        <ele>1156.4470214844</ele>
        <time>2017-12-15T10:59:37Z</time>
      </trkpt>
      <trkpt lat="45.31494" lon="5.87825">
        <ele>1152.4470214844</ele>
        <time>2017-12-15T10:59:39Z</time>
      </trkpt>
      <trkpt lat="45.31501" lon="5.87853">
        <ele>1146.4470214844</ele>
        <time>2017-12-15T10:59:41Z</time>
      </trkpt>
      <trkpt lat="45.31492" lon="5.87861">
        <ele>1137.4470214844</ele>
        <time>2017-12-15T10:59:42Z</time>
      </trkpt>
      <trkpt lat="45.31492" lon="5.87891">
        <ele>1126.4470214844</ele>
        <time>2017-12-15T10:59:44Z</time>
      </trkpt>
      <trkpt lat="45.31493" lon="5.87922">
        <ele>1115.4470214844</ele>
        <time>2017-12-15T10:59:46Z</time>
      </trkpt>
      <trkpt lat="45.31504" lon="5.8795">
        <ele>1113.4470214844</ele>
        <time>2017-12-15T10:59:48Z</time>
      </trkpt>
      <trkpt lat="45.31513" lon="5.87981">
        <ele>1109.4470214844</ele>
        <time>2017-12-15T10:59:50Z</time>
      </trkpt>
      <trkpt lat="45.31516" lon="5.88011">
        <ele>1103.4470214844</ele>
        <time>2017-12-15T10:59:52Z</time>
      </trkpt>
      <trkpt lat="45.31514" lon="5.88024">
        <ele>1099.4470214844</ele>
        <time>2017-12-15T10:59:53Z</time>
      </trkpt>
      <trkpt lat="45.3152" lon="5.88039">
        <ele>1096.4470214844</ele>
        <time>2017-12-15T10:59:55Z</time>
      </trkpt>
      <trkpt lat="45.31525" lon="5.88065">
        <ele>1090.4470214844</ele>
        <time>2017-12-15T10:59:57Z</time>
      </trkpt>
      <trkpt lat="45.31527" lon="5.88094">
        <ele>1085.4470214844</ele>
        <time>2017-12-15T10:59:59Z</time>
      </trkpt>
      <trkpt lat="45.31535" lon="5.88123">
        <ele>1080.4470214844</ele>
        <time>2017-12-15T11:00:01Z</time>
      </trkpt>
      <trkpt lat="45.31541" lon="5.88135">
        <ele>1074.4470214844</ele>
        <time>2017-12-15T11:00:02Z</time>
      </trkpt>
      <trkpt lat="45.31554" lon="5.88174">
        <ele>1065.4470214844</ele>
        <time>2017-12-15T11:00:05Z</time>
      </trkpt>
      <trkpt lat="45.3157" lon="5.88191">
        <ele>1060.4470214844</ele>
        <time>2017-12-15T11:00:07Z</time>
      </trkpt>
      <trkpt lat="45.31584" lon="5.88196">
        <ele>1055.4470214844</ele>
        <time>2017-12-15T11:00:09Z</time>
      </trkpt>
      <trkpt lat="45.31589" lon="5.882">
        <ele>1054.4470214844</ele>
        <time>2017-12-15T11:00:10Z</time>
      </trkpt>
      <trkpt lat="45.31585" lon="5.88208">
        <ele>1050.4470214844</ele>
        <time>2017-12-15T11:00:12Z</time>
      </trkpt>
      <trkpt lat="45.31581" lon="5.88206">
        <ele>1049.4470214844</ele>
        <time>2017-12-15T11:00:14Z</time>
      </trkpt>
      <trkpt lat="45.31578" lon="5.88211">
        <ele>1047.4470214844</ele>
        <time>2017-12-15T11:00:16Z</time>
      </trkpt>
      <trkpt lat="45.31572" lon="5.88222">
        <ele>1046.4470214844</ele>
        <time>2017-12-15T11:00:18Z</time>
      </trkpt>
      <trkpt lat="45.31566" lon="5.88241">
        <ele>1045.4470214844</ele>
        <time>2017-12-15T11:00:20Z</time>
      </trkpt>
      <trkpt lat="45.31557" lon="5.8826">
        <ele>1044.4470214844</ele>
        <time>2017-12-15T11:00:22Z</time>
      </trkpt>
      <trkpt lat="45.31546" lon="5.88283">
        <ele>1043.4470214844</ele>
        <time>2017-12-15T11:00:24Z</time>
      </trkpt>
      <trkpt lat="45.31535" lon="5.88309">
        <ele>1042.4470214844</ele>
        <time>2017-12-15T11:00:26Z</time>
      </trkpt>
      <trkpt lat="45.31525" lon="5.88327">
        <ele>1034.4470214844</ele>
        <time>2017-12-15T11:00:28Z</time>
      </trkpt>
      <trkpt lat="45.31509" lon="5.88344">
        <ele>1029.4470214844</ele>
        <time>2017-12-15T11:00:30Z</time>
      </trkpt>
      <trkpt lat="45.31493" lon="5.88361">
        <ele>1024.4470214844</ele>
        <time>2017-12-15T11:00:32Z</time>
      </trkpt>
      <trkpt lat="45.31482" lon="5.88381">
        <ele>1019.4470214844</ele>
        <time>2017-12-15T11:00:34Z</time>
      </trkpt>
      <trkpt lat="45.31471" lon="5.88406">
        <ele>1015.4470214844</ele>
        <time>2017-12-15T11:00:36Z</time>
      </trkpt>
      <trkpt lat="45.31457" lon="5.88426">
        <ele>1009.4470214844</ele>
        <time>2017-12-15T11:00:38Z</time>
      </trkpt>
      <trkpt lat="45.31445" lon="5.88447">
        <ele>1005.4470214844</ele>
        <time>2017-12-15T11:00:40Z</time>
      </trkpt>
      <trkpt lat="45.31433" lon="5.88461">
        <ele>1001.4470214844</ele>
        <time>2017-12-15T11:00:42Z</time>
      </trkpt>
      <trkpt lat="45.31424" lon="5.88479">
        <ele>999.44702148438</ele>
        <time>2017-12-15T11:00:44Z</time>
      </trkpt>
      <trkpt lat="45.31416" lon="5.88498">
        <ele>995.44702148438</ele>
        <time>2017-12-15T11:00:46Z</time>
      </trkpt>
      <trkpt lat="45.31408" lon="5.88516">
        <ele>990.44702148438</ele>
        <time>2017-12-15T11:00:48Z</time>
      </trkpt>
      <trkpt lat="45.31399" lon="5.88532">
        <ele>986.44702148438</ele>
        <time>2017-12-15T11:00:50Z</time>
      </trkpt>
      <trkpt lat="45.31394" lon="5.8855">
        <ele>984.44702148438</ele>
        <time>2017-12-15T11:00:52Z</time>
      </trkpt>
      <trkpt lat="45.31395" lon="5.88565">
        <ele>982.44702148438</ele>
        <time>2017-12-15T11:00:54Z</time>
      </trkpt>
      <trkpt lat="45.31396" lon="5.88571">
        <ele>979.44702148438</ele>
        <time>2017-12-15T11:00:56Z</time>
      </trkpt>
      <trkpt lat="45.31401" lon="5.8857">
        <ele>980.44702148438</ele>
        <time>2017-12-15T11:01:22Z</time>
      </trkpt>
      <trkpt lat="45.31398" lon="5.88575">
        <ele>976.44702148438</ele>
        <time>2017-12-15T11:01:44Z</time>
      </trkpt>
      <trkpt lat="45.31398" lon="5.88583">
        <ele>977.44702148438</ele>
        <time>2017-12-15T11:01:50Z</time>
      </trkpt>
      <trkpt lat="45.314" lon="5.8859">
        <ele>977.44702148438</ele>
        <time>2017-12-15T11:01:55Z</time>
      </trkpt>
      <trkpt lat="45.314" lon="5.88596">
        <ele>975.44702148438</ele>
        <time>2017-12-15T11:01:59Z</time>
      </trkpt>
      <trkpt lat="45.31401" lon="5.88605">
        <ele>975.44799804688</ele>
        <time>2017-12-15T11:02:05Z</time>
      </trkpt>
      <trkpt lat="45.314" lon="5.88611">
        <ele>972.44799804688</ele>
        <time>2017-12-15T11:02:20Z</time>
      </trkpt>
    </trkseg>
  </trk>
</gpx>